[[{"header":{"parameterUnit":"m.s-1","parameterCategory":1,"la1":30.6,"la2":29.2853,"lo1":-89.7004,"lo2":-87.6739,"dx":0.0162,"dy":0.0183,"nx":112,"ny":82,"refTime":"2022-11-03T06:00:00:Z","depth":0,"parameterNumber":2,"parameterNumberName":"U-component_of_WINDS"},"data":[0.0,0.0,0.0,0.0,0.0,0.0,0.0,0.0,0.0,0.0,0.0,0.0,0.0,0.0,0.0,0.0,0.0,0.0,0.0,0.0,0.0,0.0,0.0,0.0,0.0,0.0,0.0,0.0,0.0,0.0,0.0,0.0,0.0,0.0,0.0,0.0,0.0,0.0,0.0,0.0,0.0,0.0,0.0,0.0,0.0,0.0,0.0,0.0,0.0,0.0,0.0,0.0,0.0,0.0,0.0,0.0,0.0,0.0,0.0,0.0,0.0,0.0,0.0,0.0,0.0,0.0,0.0,0.0,0.0,0.0,0.0,0.0,0.0,0.0,0.0,0.0,0.0,0.0,0.0,0.0,0.0,0.0,0.0,0.0,0.0,0.0,0.0,0.0,0.0,0.0,2.7655,2.9817,3.1974,3.3232,3.3128,3.2489,3.0967,2.8255,0.0,0.0,0.0,0.0,0.0,0.0,0.0,0.0,0.0,0.0,0.0,0.0,0.0,0.0,0.0,0.0,0.0,0.0,0.0,0.0,0.0,0.0,0.0,0.0,0.0,0.0,0.0,0.0,0.0,0.0,0.0,0.0,0.0,0.0,0.0,0.0,0.0,0.0,0.0,0.0,0.0,0.0,0.0,0.0,0.0,0.0,0.0,0.0,0.0,0.0,0.0,0.0,0.0,0.0,0.0,0.0,0.0,0.0,0.0,0.0,0.0,0.0,0.0,0.0,0.0,0.0,0.0,0.0,0.0,0.0,0.0,0.0,0.0,0.0,0.0,0.0,0.0,0.0,0.0,0.0,0.0,0.0,0.0,0.0,0.0,0.0,0.0,0.0,0.0,0.0,0.0,0.0,0.0,0.0,0.0,0.0,0.0,0.0,0.0,0.0,0.0,0.0,0.0,0.0,2.7437,3.2518,3.3323,3.4053,3.5286,3.3428,3.1398,2.9513,0.0,0.0,0.0,0.0,0.0,0.0,0.0,0.0,0.0,0.0,0.0,0.0,0.0,0.0,0.0,0.0,0.0,0.0,0.0,0.0,0.0,0.0,0.0,0.0,0.0,0.0,0.0,0.0,0.0,0.0,0.0,0.0,0.0,0.0,0.0,0.0,0.0,0.0,0.0,0.0,0.0,0.0,0.0,0.0,0.0,0.0,0.0,0.0,0.0,0.0,0.0,0.0,0.0,0.0,0.0,0.0,0.0,0.0,0.0,0.0,0.0,0.0,0.0,0.0,0.0,0.0,0.0,0.0,0.0,0.0,0.0,0.0,0.0,0.0,0.0,0.0,0.0,0.0,0.0,0.0,0.0,0.0,0.0,0.0,0.0,0.0,0.0,0.0,0.0,0.0,0.0,0.0,0.0,0.0,0.0,0.0,0.0,0.0,0.0,0.0,0.0,0.0,0.0,2.6478,2.9759,3.4185,3.442,3.4739,3.5893,3.3872,3.1742,2.9876,2.6798,0.0,0.0,0.0,0.0,0.0,0.0,0.0,0.0,0.0,0.0,0.0,0.0,0.0,0.0,0.0,0.0,0.0,0.0,0.0,0.0,0.0,0.0,0.0,0.0,0.0,0.0,0.0,0.0,0.0,0.0,0.0,0.0,0.0,0.0,0.0,0.0,0.0,0.0,0.0,0.0,0.0,0.0,0.0,0.0,0.0,0.0,0.0,0.0,0.0,0.0,0.0,0.0,0.0,0.0,0.0,0.0,0.0,0.0,0.0,0.0,0.0,0.0,0.0,0.0,0.0,0.0,0.0,0.0,0.0,0.0,0.0,0.0,0.0,0.0,0.0,0.0,0.0,0.0,0.0,0.0,0.0,0.0,0.0,0.0,0.0,0.0,0.0,0.0,0.0,0.0,0.0,0.0,0.0,0.0,0.0,0.0,0.0,0.0,0.0,0.0,0.0,0.0,3.0133,3.2336,3.5555,3.5473,3.5577,3.6502,3.4301,3.2044,3.0098,2.7033,0.0,0.0,0.0,0.0,0.0,0.0,0.0,0.0,0.0,0.0,0.0,0.0,0.0,0.0,0.0,0.0,0.0,0.0,0.0,0.0,0.0,0.0,0.0,0.0,0.0,0.0,0.0,0.0,0.0,0.0,0.0,0.0,0.0,0.0,0.0,0.0,0.0,0.0,0.0,0.0,0.0,0.0,0.0,0.0,0.0,0.0,0.0,0.0,0.0,0.0,0.0,0.0,0.0,0.0,0.0,0.0,0.0,0.0,0.0,0.0,0.0,0.0,0.0,0.0,0.0,0.0,0.0,0.0,0.0,0.0,0.0,0.0,0.0,0.0,0.0,0.0,0.0,0.0,0.0,0.0,0.0,0.0,0.0,0.0,0.0,0.0,0.0,0.0,0.0,0.0,0.0,0.0,0.0,0.0,0.0,0.0,0.0,0.0,0.0,0.0,0.0,0.0,3.1163,3.3992,3.6793,3.6651,3.6817,3.7882,3.501,3.2429,3.067,2.7354,0.0,0.0,0.0,0.0,0.0,0.0,0.0,0.0,0.0,0.0,0.0,0.0,0.0,0.0,0.0,0.0,0.0,0.0,0.0,0.0,0.0,0.0,0.0,0.0,0.0,0.0,0.0,0.0,0.0,0.0,0.0,0.0,0.0,0.0,0.0,0.0,0.0,0.0,0.0,0.0,0.0,0.0,0.0,0.0,0.0,0.0,0.0,0.0,0.0,0.0,0.0,0.0,0.0,0.0,0.0,0.0,0.0,0.0,0.0,0.0,0.0,0.0,0.0,0.0,0.0,0.0,0.0,0.0,0.0,0.0,0.0,0.0,0.0,0.0,0.0,0.0,0.0,0.0,0.0,0.0,0.0,0.0,0.0,0.0,0.0,0.0,0.0,0.0,0.0,0.0,0.0,0.0,0.0,0.0,0.0,0.0,0.0,0.0,0.0,0.0,0.0,0.0,3.0325,3.3488,3.6831,3.7237,3.752,3.8155,3.5688,3.3354,3.1654,0.0,0.0,0.0,0.0,0.0,0.0,0.0,0.0,0.0,0.0,0.0,0.0,0.0,0.0,0.0,0.0,0.0,0.0,0.0,0.0,0.0,0.0,0.0,0.0,0.0,0.0,0.0,0.0,0.0,0.0,0.0,0.0,0.0,0.0,0.0,0.0,0.0,0.0,0.0,0.0,0.0,0.0,0.0,0.0,0.0,0.0,0.0,0.0,0.0,0.0,0.0,0.0,0.0,0.0,0.0,0.0,0.0,0.0,0.0,0.0,0.0,0.0,0.0,0.0,0.0,0.0,0.0,0.0,0.0,0.0,0.0,0.0,0.0,0.0,0.0,0.0,0.0,0.0,0.0,0.0,0.0,0.0,0.0,0.0,0.0,0.0,0.0,0.0,0.0,0.0,0.0,0.0,0.0,0.0,0.0,0.0,0.0,0.0,0.0,0.0,0.0,0.0,2.6907,3.0361,3.3596,3.6858,3.7712,3.812,3.8223,3.6245,3.4169,3.2179,0.0,0.0,0.0,0.0,0.0,0.0,0.0,0.0,0.0,0.0,0.0,0.0,0.0,0.0,0.0,0.0,0.0,0.0,0.0,0.0,0.0,0.0,0.0,0.0,0.0,0.0,0.0,0.0,0.0,0.0,0.0,0.0,0.0,0.0,0.0,0.0,0.0,0.0,0.0,0.0,0.0,0.0,0.0,0.0,0.0,0.0,0.0,0.0,0.0,0.0,0.0,0.0,0.0,0.0,0.0,0.0,0.0,0.0,0.0,0.0,0.0,0.0,0.0,0.0,0.0,0.0,0.0,0.0,0.0,0.0,0.0,0.0,0.0,0.0,0.0,0.0,0.0,0.0,0.0,0.0,0.0,0.0,0.0,0.0,0.0,0.0,0.0,0.0,0.0,0.0,0.0,0.0,0.0,0.0,0.0,0.0,0.0,0.0,0.0,0.0,0.0,0.0,2.7996,3.1612,3.4575,3.6944,3.8238,3.87,3.8146,3.6778,3.4756,0.0,0.0,0.0,0.0,0.0,0.0,0.0,0.0,0.0,0.0,0.0,0.0,0.0,0.0,0.0,0.0,0.0,0.0,0.0,0.0,0.0,0.0,0.0,0.0,0.0,0.0,0.0,0.0,0.0,0.0,0.0,0.0,0.0,0.0,0.0,0.0,0.0,0.0,0.0,0.0,0.0,0.0,0.0,0.0,0.0,0.0,0.0,0.0,0.0,0.0,0.0,0.0,0.0,0.0,0.0,0.0,0.0,0.0,0.0,0.0,0.0,0.0,0.0,0.0,0.0,0.0,0.0,0.0,0.0,0.0,0.0,0.0,0.0,0.0,0.0,0.0,0.0,0.0,0.0,0.0,0.0,0.0,0.0,0.0,0.0,0.0,0.0,0.0,0.0,0.0,0.0,0.0,0.0,0.0,0.0,0.0,0.0,0.0,0.0,0.0,0.0,0.0,0.0,2.7396,3.119,3.4284,3.6595,3.8374,3.9204,3.8719,3.7361,3.5743,3.3832,0.0,0.0,0.0,0.0,0.0,0.0,0.0,0.0,0.0,0.0,0.0,0.0,0.0,0.0,0.0,0.0,0.0,0.0,0.0,0.0,0.0,0.0,0.0,0.0,0.0,0.0,0.0,0.0,0.0,0.0,0.0,0.0,0.0,0.0,0.0,0.0,0.0,0.0,0.0,0.0,0.0,0.0,0.0,0.0,0.0,0.0,0.0,0.0,0.0,0.0,0.0,0.0,0.0,0.0,0.0,0.0,0.0,0.0,0.0,0.0,0.0,0.0,0.0,0.0,0.0,0.0,0.0,0.0,0.0,0.0,0.0,0.0,0.0,0.0,0.0,0.0,0.0,0.0,0.0,0.0,0.0,0.0,0.0,0.0,0.0,0.0,0.0,0.0,0.0,0.0,0.0,0.0,0.0,0.0,0.0,0.0,0.0,0.0,0.0,0.0,0.0,0.0,2.7339,3.1173,3.4242,3.6239,3.8327,3.9418,3.8895,3.7897,3.6746,3.5442,0.0,0.0,0.0,0.0,0.0,0.0,0.0,0.0,0.0,0.0,0.0,0.0,0.0,0.0,0.0,0.0,0.0,0.0,0.0,0.0,0.0,0.0,0.0,0.0,0.0,0.0,0.0,0.0,0.0,0.0,0.0,0.0,0.0,0.0,0.0,0.0,0.0,0.0,0.0,0.0,0.0,0.0,0.0,0.0,0.0,0.0,0.0,0.0,0.0,0.0,0.0,0.0,0.0,0.0,0.0,0.0,0.0,0.0,0.0,0.0,0.0,0.0,0.0,0.0,0.0,0.0,0.0,0.0,0.0,0.0,0.0,0.0,0.0,0.0,0.0,0.0,0.0,0.0,0.0,0.0,0.0,0.0,0.0,0.0,0.0,0.0,0.0,0.0,0.0,0.0,0.0,0.0,0.0,0.0,0.0,0.0,0.0,0.0,0.0,0.0,0.0,0.0,2.7589,3.14,3.4354,3.5981,3.8176,3.9324,3.8899,3.8453,3.7743,3.6769,0.0,0.0,0.0,0.0,0.0,0.0,0.0,0.0,0.0,0.0,0.0,0.0,0.0,0.0,0.0,0.0,0.0,0.0,0.0,0.0,0.0,0.0,0.0,0.0,0.0,0.0,0.0,0.0,0.0,0.0,0.0,0.0,0.0,0.0,0.0,0.0,0.0,0.0,0.0,0.0,0.0,0.0,0.0,0.0,0.0,0.0,0.0,0.0,0.0,0.0,0.0,0.0,0.0,0.0,0.0,0.0,0.0,0.0,0.0,0.0,-0.7629,-0.6806,0.0,0.0,0.0,0.0,0.0,0.0,0.0,0.0,0.0,0.0,0.0,0.0,0.0,0.0,0.0,0.0,0.0,0.0,0.0,0.0,0.0,0.0,0.0,0.0,0.0,0.0,0.0,0.0,0.0,0.0,0.0,0.0,0.0,0.0,0.0,0.0,0.0,0.0,0.0,0.0,2.7678,3.1147,3.4094,3.6318,3.7807,3.8877,3.9399,3.8965,3.8083,3.6762,3.4629,0.0,0.0,0.0,0.0,0.0,0.0,0.0,0.0,0.0,0.0,0.0,0.0,0.0,0.0,0.0,0.0,0.0,0.0,0.0,0.0,0.0,0.0,0.0,0.0,0.0,0.0,0.0,0.0,0.0,0.0,0.0,0.0,0.0,0.0,0.0,0.0,0.0,0.0,0.0,0.0,0.0,0.0,0.0,0.0,0.0,0.0,0.0,0.0,0.0,0.0,0.0,0.0,0.0,0.0,0.0,0.0,0.0,0.0,0.0,-0.7476,-0.6727,0.0,0.0,0.0,0.0,0.0,0.0,0.0,0.0,0.0,0.0,0.0,0.0,0.0,0.0,0.0,0.0,0.0,0.0,0.0,0.0,0.0,0.0,0.0,0.0,0.0,0.0,0.0,0.0,0.0,0.0,0.0,0.0,0.0,0.0,0.0,0.0,0.0,0.0,0.0,0.0,2.8383,3.1634,3.4341,3.6158,3.7588,3.8749,3.9528,3.9112,3.8719,3.8535,3.6546,0.0,0.0,0.0,0.0,0.0,0.0,0.0,0.0,0.0,0.0,0.0,0.0,0.0,0.0,0.0,0.0,0.0,0.0,0.0,0.0,0.0,0.0,0.0,0.0,0.0,0.0,0.0,0.0,0.0,0.0,0.0,0.0,0.0,0.0,0.0,0.0,0.0,0.0,0.0,0.0,0.0,0.0,0.0,0.0,0.0,0.0,0.0,0.0,0.0,0.0,0.0,0.0,0.0,-0.7502,-0.7694,-0.784,-0.7923,-0.77,-0.7252,-0.6987,-0.6306,-0.5449,-0.623,0.0,0.0,0.0,0.0,0.0,0.0,0.0,0.0,0.0,0.0,0.0,0.0,0.0,0.0,0.0,0.0,0.0,0.0,0.0,0.0,0.0,0.0,0.7668,0.8293,0.9359,1.0249,1.0363,0.0,0.0,0.0,0.0,0.0,0.0,0.0,0.0,0.0,0.0,0.0,2.9278,3.2274,3.4644,3.6074,3.7397,3.8538,3.9444,3.911,3.9209,4.0079,3.8123,3.624,0.0,0.0,0.0,0.0,0.0,0.0,0.0,0.0,0.0,0.0,0.0,0.0,0.0,0.0,0.0,0.0,0.0,0.0,0.0,0.0,0.0,0.0,0.0,0.0,0.0,0.0,0.0,0.0,0.0,0.0,0.0,0.0,-0.3974,-0.4035,0.0,0.0,0.0,0.0,0.0,0.0,0.0,0.0,0.0,0.0,0.0,0.0,0.0,-0.5723,-0.6673,-0.6104,-0.6255,-0.7128,-0.6419,-0.6495,-0.7204,-0.6465,-0.6505,-0.7093,-0.6308,0.0,-0.5769,-0.6243,0.0,0.0,0.0,0.0,0.0,0.0,0.0,0.0,0.0,0.0,0.0,0.0,0.0,0.0,0.0,0.0,0.0,0.0,0.0,0.0,0.0,0.0,0.7969,0.9817,1.0497,1.116,1.2817,1.2805,1.251,1.2595,1.4312,1.5945,0.0,0.0,0.0,0.0,0.0,0.0,3.0087,3.2292,3.4484,3.6792,3.7233,3.7864,3.9073,3.908,3.8939,3.8601,3.8267,3.7343,3.5655,3.5124,0.0,0.0,0.0,0.0,0.0,0.0,0.0,0.0,0.0,0.0,0.0,0.0,0.0,0.0,0.0,0.0,0.0,0.0,0.0,0.0,0.0,0.0,0.0,0.0,0.0,0.0,0.0,0.0,0.0,-0.3992,-0.4129,-0.4687,-0.4422,-0.4225,0.0,0.0,0.0,0.0,0.0,0.0,0.0,0.0,0.0,-0.5205,-0.5325,-0.5639,-0.6184,-0.5955,-0.6049,-0.6478,-0.6203,-0.6282,-0.6637,-0.6263,-0.6282,-0.6637,-0.6245,-0.5732,-0.5183,-0.5169,-0.4894,-0.4445,0.0,0.0,0.0,0.0,-0.1998,-0.1911,-0.1084,-0.1061,-0.1342,-0.0928,0.0,0.0,0.0,0.0,0.0,0.0,0.0,0.6039,0.6974,0.8079,0.9257,1.0432,1.0924,1.1449,1.2663,1.3362,1.401,1.479,1.6127,1.7532,1.8672,1.9659,0.0,0.0,0.0,2.7761,3.0122,3.1897,3.3782,3.5945,3.6195,3.6732,3.8144,3.8531,3.8663,3.8596,3.9306,3.8931,3.7261,3.6987,3.515,0.0,0.0,0.0,0.0,0.0,0.0,0.0,0.0,0.0,0.0,0.0,0.0,0.0,0.0,0.0,0.0,0.0,0.0,0.0,0.0,0.0,0.0,0.0,0.0,0.0,0.0,0.0,0.0,-0.4468,-0.4543,-0.5378,-0.5035,-0.4737,0.0,0.0,0.0,0.0,0.0,0.0,-0.5243,-0.5268,-0.5389,-0.5637,-0.5684,-0.5752,-0.5842,-0.5991,-0.6072,-0.6072,-0.6226,-0.63,-0.63,-0.63,-0.63,-0.63,-0.63,-0.5686,-0.467,-0.4402,-0.4056,-0.3644,-0.2861,-0.2316,-0.1903,-0.1347,-0.1352,-0.1477,-0.0376,-0.0361,-0.0723,-0.0181,0.0148,0.0377,0.0665,0.0,0.0,0.0,0.0,0.6969,0.7628,0.8849,1.011,1.0978,1.1418,1.1823,1.2508,1.381,1.5118,1.6053,1.755,1.9082,2.0376,2.1311,0.0,2.4772,2.6276,2.7868,2.9729,3.1269,3.2856,3.4625,3.515,3.5879,3.7103,3.7881,3.8365,3.8558,3.9612,3.9714,3.8434,3.8677,3.7236,3.3925,0.0,0.0,0.0,0.0,0.0,0.0,0.0,0.0,0.0,0.0,0.0,0.0,0.0,0.0,0.0,0.0,0.0,0.0,0.0,0.0,0.0,0.0,0.0,0.0,0.0,0.0,0.0,0.0,0.0,-0.5359,-0.5384,0.0,0.0,0.0,0.0,-0.5105,-0.5402,-0.5597,-0.5586,-0.5691,-0.5772,-0.5793,-0.591,-0.5991,-0.5998,-0.6192,-0.6286,-0.6286,-0.6293,-0.63,-0.63,-0.63,-0.63,-0.63,-0.63,-0.5686,-0.4695,-0.4539,-0.3886,-0.2943,-0.276,-0.2135,-0.1343,-0.1303,-0.0789,-0.0094,-0.0019,-0.002,-0.0059,-0.002,0.0558,0.1434,0.2449,0.3386,0.0,0.0,0.5973,0.654,0.8665,0.9261,0.9836,1.1774,1.2241,1.2503,1.343,1.4442,1.5191,1.5261,1.8087,2.0648,2.1234,0.0,2.4298,2.5631,2.6448,2.7457,2.8869,3.0408,3.1855,3.3099,3.4532,3.5626,3.6135,3.7254,3.7936,3.7925,3.8481,3.8779,3.8669,3.9643,3.8922,3.6192,3.6281,0.0,0.0,0.0,0.0,0.0,0.0,0.0,0.0,0.0,0.0,0.0,0.0,0.0,0.0,0.0,0.0,0.0,0.0,0.0,0.0,0.0,0.0,0.0,0.0,0.0,0.0,0.0,0.0,-0.5385,-0.5545,0.0,-0.5661,-0.5732,-0.5725,-0.5558,-0.5734,-0.5856,-0.5856,-0.5903,-0.5996,-0.611,-0.6171,-0.6199,-0.6199,-0.6272,-0.63,-0.63,-0.63,-0.63,-0.63,-0.63,-0.5925,-0.5273,-0.5273,-0.4297,-0.2696,-0.2654,-0.2414,-0.1989,-0.1245,-0.0764,-0.0459,-0.0463,-0.0271,0.0,0.0,0.0,0.0,0.0,0.022,0.0656,0.1731,0.2741,0.3729,0.4844,0.6118,0.7342,0.8124,0.9291,1.0447,1.1168,1.183,1.2549,1.3499,1.4494,1.5367,1.5983,1.8079,2.0142,2.1328,2.2445,2.3668,2.5218,2.6264,2.7401,2.8824,2.9963,3.1186,3.2645,3.3648,3.4481,3.508,3.6226,3.6943,3.6943,3.7932,3.8286,3.7774,3.8589,3.8547,3.7358,3.6919,3.5579,0.0,0.0,0.0,0.0,0.0,0.0,0.0,0.0,0.0,0.0,0.0,0.0,0.0,0.0,0.0,0.0,0.0,0.0,0.0,0.0,0.0,0.0,0.0,0.0,0.0,-0.5173,-0.5453,-0.5586,-0.5759,-0.5863,-0.5863,-0.6017,-0.6044,-0.587,-0.6023,-0.6105,-0.6105,-0.6105,-0.6152,-0.6293,-0.63,-0.63,-0.63,-0.63,-0.63,-0.63,-0.6347,-0.6368,-0.6375,-0.6403,-0.5822,-0.4763,-0.4763,-0.3568,-0.1606,-0.1606,-0.1382,-0.098,-0.0275,0.0,0.0,0.0,0.0,0.0,0.0,0.0,0.0,0.0,0.0241,0.0745,0.1794,0.2834,0.3858,0.4942,0.6244,0.7461,0.8122,0.9291,1.0477,1.1149,1.183,1.247,1.3098,1.4009,1.4977,1.593,1.7845,1.9679,2.0875,2.1975,2.3196,2.4667,2.5787,2.6866,2.8017,2.8907,2.9923,3.1246,3.2259,3.3119,3.3858,3.5474,3.6318,3.6088,3.7496,3.8032,3.7227,3.8228,3.855,3.8026,3.7673,3.7055,3.6252,0.0,0.0,0.0,0.0,0.0,0.0,0.0,0.0,0.0,0.0,0.0,0.0,0.0,0.0,0.0,0.0,0.0,0.0,0.0,0.0,0.0,0.0,0.0,-0.5358,-0.54,-0.5473,-0.5902,-0.5918,-0.5944,-0.6,-0.6154,-0.6181,-0.5976,-0.6134,-0.6241,-0.6203,-0.6241,-0.6241,-0.6203,-0.6268,-0.6287,-0.6268,-0.6294,-0.6313,-0.6313,-0.6457,-0.6498,-0.6505,-0.6613,-0.599,-0.484,-0.4819,-0.356,-0.1544,-0.1544,-0.0943,0.0,0.0,0.0,0.0,0.0,0.0,0.0,0.0,0.0,0.0,0.0039,0.0767,0.1804,0.2839,0.3893,0.4935,0.6015,0.6313,0.6771,0.8751,0.9303,0.9822,1.18,1.2313,1.235,1.2368,1.309,1.4021,1.5044,1.7404,1.9406,1.9948,2.1473,2.2955,2.4055,2.4959,0.0,2.6433,2.7229,2.8048,2.8935,3.0407,3.1675,3.2506,3.4955,3.614,3.5374,3.7141,3.7845,3.7151,3.8585,3.9035,3.8263,3.8777,3.8941,3.8702,0.0,0.0,0.0,0.0,0.0,0.0,0.0,0.0,0.0,0.0,0.0,0.0,0.0,0.0,0.0,0.0,0.0,0.0,0.0,0.0,0.0,-0.3283,-0.3013,-0.3317,-0.3489,-0.3921,-0.4806,-0.4318,-0.4505,-0.6059,-0.5565,-0.5121,-0.5068,-0.5121,-0.4802,-0.4021,-0.4724,-0.4783,-0.4001,-0.5582,-0.6073,-0.5291,-0.6155,-0.66,-0.658,-0.662,-0.6634,-0.662,-0.5785,-0.4793,-0.3688,-0.2869,-0.1713,-0.0438,-0.0438,-0.027,0.0,0.0,0.0,0.0,0.0,0.0,0.0,0.0,0.0,0.0145,0.103,0.1504,0.2098,0.3981,0.4762,0.5216,0.6288,0.66,0.6898,0.8288,0.9189,1.0104,1.1516,1.2421,1.3153,1.382,1.4169,1.4645,1.5595,1.6792,1.7837,1.8458,1.9515,2.0665,2.2007,2.3283,2.4715,2.6563,2.7308,2.8165,2.9448,3.106,3.2077,3.2237,3.3999,3.4823,3.4133,3.5036,3.5509,3.5318,3.6206,3.6745,3.6924,3.8916,3.9633,0.0,0.0,0.0,0.0,0.0,0.0,0.0,0.0,0.0,0.0,0.0,0.0,0.0,0.0,0.0,0.0,0.0,0.0,0.0,0.0,0.0,0.0,-0.2405,-0.1964,-0.1508,-0.2294,-0.3159,-0.3838,-0.3426,-0.3593,-0.4841,-0.4394,-0.4021,-0.4021,-0.4021,-0.3765,-0.313,-0.3687,-0.3742,-0.3117,-0.4378,-0.5027,-0.491,-0.5596,-0.6197,-0.6702,-0.6763,-0.6517,-0.6005,-0.54,-0.4218,-0.2628,-0.1961,-0.1052,0.0,0.0,0.0,0.0,0.0,0.0,0.0,0.0,0.0,0.0,0.0,0.0,0.0105,0.0819,0.1678,0.2681,0.3997,0.5038,0.5901,0.6529,0.6702,0.7067,0.8626,0.9452,1.0302,1.1942,1.2764,1.3338,1.3895,1.3999,1.4292,1.5231,1.6082,0.0,1.7725,1.8665,1.9656,2.0713,2.2177,2.3797,2.5584,2.6404,2.7347,2.8773,2.978,3.0626,3.1292,3.279,0.0,0.0,0.0,3.5199,3.5507,3.5912,0.0,0.0,0.0,3.951,3.9299,3.9828,0.0,0.0,3.7124,3.7128,0.0,0.0,0.0,0.0,0.0,0.0,0.0,0.0,0.0,0.0,0.0,0.0,0.0,0.0,0.0,0.0,-0.1293,-0.109,-0.0134,-0.1485,-0.2663,-0.2905,-0.282,-0.2842,-0.3077,-0.3005,-0.2933,-0.2933,-0.2933,-0.2879,-0.2759,-0.2863,0.0,0.0,0.0,-0.3594,-0.4541,-0.468,-0.5294,-0.6352,-0.648,-0.5971,-0.4925,-0.4978,-0.382,-0.1791,-0.1657,-0.0998,0.0,0.0,0.0,0.0,0.0,0.0,0.0,0.0,0.0,0.0,0.0,0.0,0.0,0.0318,0.1732,0.3395,0.371,0.5184,0.6749,0.6749,0.6749,0.7222,0.9263,0.9795,1.0345,1.2561,1.3107,1.3147,1.3267,1.3307,1.3566,1.4374,1.5366,1.6408,1.7426,1.8545,1.9502,2.007,2.1503,2.2926,2.4127,2.4975,2.6013,2.7497,2.7759,0.0,2.9973,3.144,3.228,3.2327,3.4317,3.5789,3.6533,3.6614,3.7195,3.8336,3.8482,3.8852,3.9378,4.0042,4.0338,4.032,3.9744,3.9855,0.0,0.0,0.0,0.0,0.0,0.0,0.0,0.0,0.0,0.0,0.0,0.0,0.0,0.0,0.0,-0.1323,-0.0729,-0.0237,-0.002,-0.0321,-0.0897,-0.1785,-0.1117,-0.1249,-0.2933,-0.2371,-0.1882,-0.1882,-0.1882,-0.1514,-0.0647,-0.1417,-0.1503,-0.063,-0.2389,-0.3034,-0.2411,-0.3369,-0.3967,-0.4208,-0.4228,0.0,-0.3861,-0.2922,-0.2236,-0.1746,-0.0763,-0.0224,0.0,0.0,0.0,0.0,0.0,0.0,0.0,0.0,0.0,0.0,0.0,0.0,0.031,0.2274,0.3197,0.3901,0.5818,0.6677,0.0,0.7033,0.7033,0.7338,0.8733,0.9099,0.9659,1.1949,1.2455,1.274,1.372,1.3921,1.3984,1.4158,1.4796,1.5649,1.6713,1.823,1.9562,2.0368,2.0881,2.1912,2.3964,2.4414,2.5291,2.7167,2.8057,2.8608,2.8822,3.045,3.1226,3.0777,3.2792,3.4311,3.5003,3.5529,3.5938,3.6197,3.7273,3.786,3.7976,3.9762,4.0607,4.0637,4.1365,4.1769,0.0,0.0,0.0,0.0,0.0,0.0,0.0,0.0,0.0,0.0,0.0,-0.2542,-0.1998,0.0,-0.1275,-0.0743,-0.0277,0.0,0.0,0.0,-0.0206,-0.0732,-0.0329,-0.0414,-0.1445,-0.1084,-0.0798,-0.0798,-0.0798,-0.057,-0.0021,-0.0513,-0.0558,-0.0022,-0.1097,-0.1741,-0.1806,-0.2401,-0.2992,-0.3594,-0.3594,-0.3282,-0.268,-0.208,-0.1478,-0.0874,-0.0269,0.0,0.0,0.0,0.0,0.0,0.0,0.0,0.0,0.0,0.0,0.0,0.0,0.0404,0.1098,0.2303,0.3505,0.4732,0.5891,0.665,0.7098,0.7098,0.7098,0.7379,0.8588,0.8894,0.9323,1.1037,1.1445,1.1766,1.2942,1.3209,1.3379,1.3976,1.4787,1.5741,1.6814,1.8197,1.9315,1.9861,2.0392,2.1215,2.2635,2.338,2.4518,2.6334,2.7175,2.7825,2.8461,2.9871,3.0754,3.0793,3.2249,3.3404,3.4058,3.4423,3.4781,3.5086,3.5745,3.6469,3.7202,3.8896,3.9898,4.0284,4.1505,4.2202,0.0,0.0,0.0,0.0,0.0,0.0,0.0,-0.3821,-0.3646,-0.2431,-0.2428,-0.2316,-0.1245,-0.1173,-0.1,-0.0143,0.0,0.0,0.0,0.0,0.0,0.0,0.0,0.0,0.0,0.0,0.0,0.0,0.0,0.0,0.0,0.0,0.0,0.0,0.0,-0.0472,-0.1433,-0.1455,-0.1946,-0.2903,-0.2903,-0.2392,-0.1455,-0.1455,-0.0919,0.0,0.0,0.0,0.0,0.0,0.0,0.0,0.0,0.0,0.0,0.0,0.0,0.0022,0.0269,0.0986,0.1878,0.2348,0.382,0.5447,0.5669,0.6362,0.7098,0.7098,0.7098,0.7312,0.8303,0.8544,0.8842,0.9988,1.0269,1.0627,1.2002,1.2301,1.2653,1.387,1.4789,1.5717,1.6805,1.7738,1.8642,1.9425,2.0073,2.0715,2.1429,2.2398,2.3664,2.5315,2.6103,2.7097,2.8559,2.9562,3.0432,3.1116,3.1966,3.2729,3.3477,3.3636,3.404,3.4767,3.4779,3.5432,3.674,3.8069,3.9124,3.9856,4.1254,4.2186,-0.4587,-0.4227,-0.4438,-0.5607,-0.5261,-0.4372,0.0,-0.3203,-0.2673,-0.07,-0.107,-0.141,-0.0343,-0.0164,-0.0146,-0.0021,0.0,0.0,0.0,0.0,0.0,0.0,0.0,0.0,0.0,0.0,0.0,0.0,0.0,0.0,0.0,0.0,0.0,0.0,0.0,-0.0067,-0.0202,-0.0202,-0.0269,-0.0404,-0.0404,-0.0337,-0.0202,-0.0202,-0.0135,0.0,0.0,0.0,0.0,0.0,0.0,0.0,0.0,0.0,0.0,0.0,0.0,0.0157,0.1233,0.1679,0.2147,0.431,0.5181,0.5581,0.6605,0.7003,0.7098,0.7098,0.7098,0.7136,0.7268,0.7297,0.7599,0.8798,0.9082,0.9684,1.1831,1.2301,1.2653,1.387,1.4208,1.4615,1.5675,1.5985,1.7078,2.0004,2.0192,2.045,2.1759,2.2052,2.2716,2.4217,2.5652,2.7243,2.9144,2.9415,2.9844,3.0627,3.1366,3.2209,3.3126,3.3733,3.4495,3.5472,3.5486,3.5819,3.6533,3.8108,3.9209,3.991,4.1491,4.2462,-0.5575,-0.4873,-0.4556,-0.5719,-0.5829,-0.5374,-0.4278,-0.3631,-0.2849,-0.1345,-0.0844,-0.0539,-0.0083,0.0,0.0,0.0,0.0,0.0,0.0,0.0,0.0,0.0,0.0,0.0,0.0,0.0,0.0,0.0,0.0,0.0,0.0,0.0,0.0,0.0,0.0,0.0,0.0,0.0,0.0,0.0,0.0,0.0,0.0,0.0,0.0,0.0,0.0,0.0,0.0,0.0,0.0,0.0,0.0,0.0,0.0,0.0,0.0449,0.1121,0.1634,0.2727,0.4065,0.507,0.5847,0.6473,0.6959,0.7098,0.7098,0.7098,0.7098,0.7098,0.7098,0.7098,0.7224,0.7731,0.7863,0.8295,0.9966,1.0843,1.1659,1.2836,1.3625,1.4426,1.5525,1.5696,1.6375,1.8381,1.9088,1.9811,2.1029,2.1386,2.2223,2.4025,2.5844,2.7296,2.8102,2.8942,2.9539,2.9887,3.0625,3.1492,3.2481,3.2783,3.3563,3.4912,3.4972,3.572,3.7199,3.7872,3.9013,4.055,4.1219,4.2132,-0.5987,-0.5099,-0.4363,-0.5107,-0.5218,-0.4915,-0.4037,-0.3353,-0.2598,-0.1532,-0.0844,-0.0361,-0.0064,0.0,0.0,0.0,0.0,0.0,0.0,0.0,0.0,0.0,0.0,0.0,0.0,0.0,0.0,0.0,0.0,0.0,0.0,0.0,0.0,0.0,0.0,0.0,0.0,0.0,0.0,0.0,0.0,0.0,0.0,0.0,0.0,0.0,0.0,0.0,0.0,0.0,0.0,0.0,0.0,0.0,0.0,0.0,0.0799,0.1958,0.266,0.4044,0.5563,0.5907,0.6536,0.7181,0.7181,0.7154,0.7098,0.7098,0.7098,0.7098,0.7098,0.7098,0.7098,0.7098,0.7098,0.7423,0.8632,0.9792,1.0929,1.2066,1.3273,1.4356,1.5109,1.5255,1.5628,1.6703,1.7557,1.8581,1.9981,2.0875,2.2108,2.399,2.5652,2.6863,2.7454,2.845,2.9171,2.9486,3.0051,3.0813,3.1803,3.1853,3.2634,3.4334,3.438,3.5462,3.7604,3.7846,3.898,4.0919,4.1413,4.2265,-0.5131,-0.4301,-0.3447,-0.3465,-0.2613,-0.1738,-0.1694,-0.1675,-0.1341,-0.0273,-0.0855,-0.1235,-0.0196,0.0,0.0,0.0,0.0,0.0,0.0,0.0,0.0,0.0,0.0,0.0,0.0,0.0,0.0,0.0,0.0,0.0,0.0,0.0,0.0,0.0,0.0,0.0,0.0,0.0,0.0,0.0,0.0,0.0,0.0,0.0,0.0,0.0,0.0,0.0,0.0,0.0,0.0,0.0,0.0,0.0,0.0,0.0,0.0856,0.2351,0.4827,0.5727,0.5986,0.7155,0.7459,0.7389,0.7389,0.7258,0.7098,0.7098,0.7098,0.7098,0.7098,0.7098,0.7098,0.7098,0.7098,0.7423,0.8632,0.9792,1.0929,1.2066,1.3273,1.4103,1.4145,1.4145,1.451,1.5587,1.5779,1.6601,1.8778,2.0702,2.2468,2.4032,2.4619,2.5733,2.788,2.812,2.8595,2.971,2.9806,3.026,3.117,3.1225,3.2091,3.3972,3.4006,3.5149,3.7413,3.8256,3.9378,4.0764,4.244,4.3257,-0.4564,-0.3621,-0.2367,-0.3037,-0.2965,-0.272,-0.272,-0.2209,-0.162,-0.1271,-0.0848,-0.043,-0.0068,0.0,0.0,0.0,0.0,0.0,0.0,0.0,0.0,0.0,0.0,0.0,0.0,0.0,0.0,0.0,0.0,0.0,0.0,0.0,0.0,0.0,0.0,0.0,0.0,0.0,0.0,0.0,0.0,0.0,0.0,0.0,0.0,0.0,0.0,0.0,0.0,0.0,0.0,0.0,0.0,0.0,0.0099,0.0989,0.1606,0.2238,0.3902,0.5001,0.5879,0.7167,0.7563,0.7522,0.7522,0.7489,0.7425,0.7425,0.7425,0.7425,0.7425,0.7373,0.7292,0.7292,0.7195,0.7209,0.7621,0.9226,1.0713,1.1101,1.275,1.4103,1.4103,1.4103,1.4229,1.4573,1.5856,1.7396,1.9158,2.0198,2.1347,2.2927,2.4114,2.5105,2.5838,2.6605,2.7525,2.8609,2.8668,2.9447,3.113,3.1185,3.1792,3.3035,3.3052,3.4182,3.6476,3.678,3.8232,4.0724,4.1281,4.1869,-0.3629,-0.2756,-0.1714,-0.1934,-0.2049,-0.2128,-0.2128,-0.1631,-0.1152,-0.1152,-0.0538,0.0,0.0,0.0,0.0,0.0,0.0,0.0,0.0,0.0,0.0,0.0,0.0,0.0,0.0,0.0,0.0,0.0,0.0,0.0,0.0,0.0,0.0,0.0,0.0,0.0,0.0,0.0,0.0,0.0,0.0,0.0,0.0,0.0,0.0,0.0,0.0,0.0,0.0,0.0,0.0,0.0,0.0,0.0,0.0101,0.0958,0.1586,0.2256,0.3985,0.5085,0.5952,0.7315,0.7719,0.7678,0.7678,0.7638,0.7597,0.7597,0.7597,0.7611,0.7658,0.7604,0.7553,0.7553,0.7455,0.7357,0.7357,0.9264,1.0939,1.0814,1.2758,1.4357,1.4143,1.4103,1.4103,1.4103,1.5269,1.6639,1.8039,1.9247,2.0432,2.1575,2.3064,2.4196,2.4745,2.5462,2.6357,2.7461,2.7884,2.8718,3.0031,3.0481,3.1137,3.2074,3.2092,3.3201,3.5433,3.5795,3.7269,3.9688,4.0368,4.098,-0.2345,-0.1756,-0.1425,-0.0284,0.0,0.0,0.0,0.0,0.0,0.0,0.0,0.0,0.0,0.0,0.0,0.0,0.0,0.0,0.0,0.0,0.0,0.0,0.0,0.0,0.0,0.0,0.0,0.0,0.0,0.0,0.0,0.0,0.0,0.0,0.0,0.0,0.0,0.0,0.0,0.0,0.0,0.0,0.0,0.0,0.0,0.0,0.0,0.0,0.0,0.0,0.0,0.0,0.0,0.0,0.0,0.0076,0.0907,0.2389,0.5072,0.6002,0.6232,0.7559,0.7918,0.7797,0.7797,0.7726,0.7624,0.7624,0.7624,0.7651,0.7794,0.7828,0.7828,0.7834,0.7828,0.7797,0.7797,0.9795,1.1495,1.1112,1.3156,1.4763,1.4269,1.4196,1.4196,1.4196,1.4196,1.4593,1.5714,1.8011,1.9735,2.0277,2.1674,2.3124,2.4596,2.4702,2.5189,2.6359,2.736,2.7984,2.8084,2.9126,3.0177,3.1119,3.1137,3.2171,3.4305,3.536,3.651,3.7804,3.9675,4.0588,-0.1705,-0.1142,-0.0395,-0.0067,0.0,0.0,0.0,0.0,0.0,0.0,0.0,0.0,0.0,0.0,0.0,0.0,0.0,0.0,0.0,0.0,0.0,0.0,0.0,0.0,0.0,0.0,0.0,0.0,0.0,0.0,0.0,0.0,0.0,0.0,0.0,0.0,0.0,0.0,0.0,0.0,0.0,0.0,0.0,0.0,0.0,0.0,0.0,0.0,0.0,0.0,0.0,0.0,0.0,0.0,0.0129,0.1114,0.1712,0.2389,0.5072,0.6002,0.6232,0.7559,0.7986,0.7959,0.7959,0.7932,0.7905,0.7905,0.7905,0.7939,0.8113,0.8065,0.7986,0.8126,0.8065,0.7959,0.7959,0.9167,1.0241,1.014,1.2247,1.4321,1.5196,1.5368,1.5368,1.5368,1.5368,1.5976,1.7653,1.8443,1.977,2.2092,2.2715,2.3095,2.3497,2.3519,2.4038,2.5168,2.5504,2.6376,2.8024,2.8386,2.9042,3.0139,3.0158,3.1021,3.2752,3.343,3.4944,3.7226,3.8124,3.8976,-0.098,-0.0515,0.0,0.0,0.0,0.0,0.0,0.0,0.0,0.0,0.0,0.0,0.0,0.0,0.0,0.0,0.0,0.0,0.0,0.0,0.0,0.0,0.0,0.0,0.0,0.0,0.0,0.0,0.0,0.0,0.0,0.0,0.0,0.0,0.0,0.0,0.0,0.0,0.0,0.0,0.0,0.0,0.0,0.0,0.0,0.0,0.0,0.0,0.0,0.0,0.0373,0.0958,0.0974,0.139,0.2066,0.282,0.3477,0.4193,0.5683,0.6609,0.7184,0.7804,0.7988,0.7988,0.7988,0.7988,0.8027,0.8094,0.814,0.8187,0.8404,0.8397,0.8331,0.8445,0.8397,0.8311,0.8311,0.9343,1.0602,1.1669,1.2856,1.4148,1.5557,1.5808,1.5808,1.5808,1.5808,1.642,1.8152,1.8566,1.9373,2.1145,2.2225,2.2927,2.3081,2.3101,2.3365,2.3996,2.4531,2.5357,2.6603,2.7582,2.8406,2.9047,2.9566,3.0341,3.15,3.2515,3.3884,3.5624,3.6643,3.7682,-0.0293,0.0,0.0,0.0,0.0,0.0,0.0,0.0,0.0,0.0,0.0,0.0,0.0,0.0,0.0,0.0,0.0,0.0,0.0,0.0,0.0,0.0,0.0,0.0,0.0,0.0,0.0,0.0,0.0,0.0,0.0,0.0,0.0,0.0,0.0,0.0,0.0,0.0,0.0,0.0,0.0,0.0,0.0,0.0,0.0109,0.0268,0.0081,0.0215,0.059,0.0376,0.1179,0.2514,0.2508,0.3329,0.4524,0.4699,0.5488,0.6521,0.6706,0.7527,0.8438,0.8155,0.806,0.8047,0.8067,0.806,0.8074,0.8281,0.8321,0.8389,0.8635,0.871,0.8716,0.871,0.8743,0.8743,0.8743,0.9881,1.1654,1.4148,1.424,1.4388,1.5794,1.6035,1.6035,1.6035,1.6035,1.6512,1.7824,1.8411,1.8848,1.9234,2.1197,2.2628,2.2975,2.3169,2.3257,2.3257,2.42,2.4805,2.4976,2.6903,2.8042,2.8203,2.9253,3.003,3.0487,3.2038,3.312,3.3734,3.533,3.6685,-0.0046,0.0,0.0,0.0,0.0,0.0,0.0,0.0,0.0,0.0,0.0,0.0,0.0,0.0,0.0,0.0,0.0,0.0,0.0,0.0,0.0,0.0,0.0,0.0,0.0,0.0,0.0,0.0,0.0,0.0,0.0,0.0,0.0,0.0,0.0,0.0,0.0,0.0,0.0,0.0,0.0,0.0,0.0,0.0,0.0677,0.1749,0.0536,0.1406,0.3631,0.2355,0.2715,0.4095,0.4089,0.4256,0.4627,0.5757,0.6305,0.6653,0.7764,0.8295,0.8498,0.8425,0.833,0.8281,0.837,0.8349,0.8287,0.843,0.8471,0.8512,0.8662,0.871,0.8716,0.8838,0.8872,0.8872,0.8872,1.0003,1.1882,1.4699,1.5159,1.5572,1.7041,1.7275,1.7275,1.7275,1.7275,1.7311,1.7338,1.7857,1.8729,2.0019,2.1509,2.2449,2.2522,2.3537,2.4176,2.4176,2.4362,2.4907,2.5851,2.6777,2.7715,2.8668,2.9411,2.9854,2.993,3.1109,3.218,3.3179,3.4856,3.619,0.0,0.0,0.0,0.0,0.0,0.0,0.0,0.0,0.0,0.0,0.0,0.0,0.0,0.0,0.0,0.0,0.0,0.0,0.0,0.0,0.0,0.0,0.0,0.0,0.0,0.0,0.0,0.0,0.0,0.0,0.0,0.0,0.0,0.0,0.0,0.0,0.0,0.0,0.0,0.0,0.0,0.0392,0.1148,0.1157,0.1973,0.3354,0.265,0.3155,0.4442,0.3714,0.4272,0.5635,0.5647,0.6124,0.6859,0.7518,0.7738,0.7846,0.8474,0.8716,0.8716,0.8716,0.8621,0.8513,0.8581,0.8608,0.8648,0.8818,0.8777,0.8757,0.8927,0.8886,0.8818,0.8892,0.8912,0.9099,0.9891,1.059,1.1946,1.485,1.5384,1.5876,1.7345,1.7608,1.7608,1.7608,1.7608,1.7555,1.7421,1.7652,1.8242,1.9293,2.121,2.2392,2.2392,2.363,2.4391,2.4391,2.4391,2.4644,2.5197,2.6073,2.6824,2.7387,2.8914,2.9699,2.9699,3.1444,3.2558,3.3075,3.447,3.5674,0.0,0.0,0.0,0.0,0.0,0.0,0.0,0.0,0.0,0.0,0.0,0.0,0.0,0.0,0.0,0.0,0.0,0.0,0.0,0.0,0.0,0.0,0.0,0.0,0.0,0.0,0.0,0.0,0.0,0.0,0.0,0.0,0.0,0.0,0.0,0.0,0.0,0.0308,0.0476,0.0476,0.0812,0.1566,0.2682,0.2682,0.3519,0.4944,0.4637,0.486,0.5417,0.5111,0.5838,0.7177,0.7177,0.7875,0.8912,0.8912,0.8912,0.8912,0.8912,0.8933,0.896,0.896,0.8858,0.8737,0.8798,0.8886,0.9015,0.9192,0.9117,0.9034,0.9199,0.9117,0.9,0.8967,0.8933,0.9292,1.0781,1.1109,1.1946,1.485,1.5384,1.5876,1.7345,1.7608,1.7608,1.7608,1.7608,1.7608,1.7608,1.7608,1.7785,1.825,2.0402,2.1907,2.2219,2.3475,2.4384,2.466,2.4684,2.4684,2.4684,2.5696,2.6248,2.6248,2.818,2.9336,2.959,3.1678,3.2828,3.314,3.4324,3.5302,0.0,0.0,0.0,0.0,0.0,0.0,0.0,0.0,0.0,0.0,0.0,0.0,0.0,0.0,0.0,0.0,0.0,0.0,0.0,0.0,0.0,0.0,0.0,0.0,0.0,0.0,0.0,0.0,0.0,0.0,0.0,0.0,0.0,0.0,0.0,0.0,0.0,0.1343,0.1984,0.2012,0.341,0.4164,0.4275,0.4275,0.5083,0.6422,0.5083,0.6033,0.838,0.7038,0.7371,0.8685,0.8685,0.8768,0.8912,0.8912,0.8912,0.8912,0.8912,0.9022,0.9158,0.9158,0.9035,0.8912,0.9104,0.9152,0.9192,0.9349,0.9383,0.9347,0.9383,0.9383,0.9335,0.9192,0.9035,0.9292,1.0781,1.1109,1.1946,1.485,1.5384,1.5876,1.7345,1.7608,1.7608,1.7608,1.7608,1.7608,1.7608,1.7608,1.7608,1.7685,1.8985,2.0368,2.1661,2.2987,2.4282,2.5484,2.5577,2.5577,2.5577,2.6282,2.6639,2.6639,2.7458,2.8436,2.959,3.0789,3.1952,3.314,3.4703,3.5502,0.0,0.0,0.0,0.0,0.0,0.0,0.0,0.0,0.0,0.0,0.0,0.0,0.0,0.0,0.0,0.0,0.0,0.0,0.0,0.0,0.0,0.0,0.0,0.0,0.0,0.0,0.0422,0.1419,0.1505,0.1939,0.2906,0.1922,0.1315,0.1315,0.2314,0.2836,0.2836,0.3493,0.3825,0.3825,0.4459,0.5205,0.6064,0.6064,0.6898,0.828,0.7704,0.8109,0.9148,0.8571,0.8685,0.9205,0.9205,0.9205,0.9191,0.9103,0.9069,0.9055,0.894,0.9035,0.9207,0.9207,0.9267,0.9325,0.9408,0.949,0.9571,0.9632,0.9585,0.9517,0.9517,0.9449,0.9396,0.9335,0.9245,0.9596,1.1017,1.2105,1.3351,1.5219,1.6319,1.7088,1.7529,1.7608,1.7608,1.7608,1.7608,1.7608,1.7608,1.7608,1.7608,1.7608,1.8812,2.0154,2.1567,2.2918,2.427,2.562,2.5693,2.5693,2.5693,2.5956,2.6119,2.6119,2.7117,2.7885,2.8407,3.0169,3.1692,3.2996,3.4263,3.5275,0.0,0.0,0.0,0.0,0.0,0.0,0.0,0.0,0.0,0.0,0.0,0.0,0.0,0.0,0.0,0.0,0.0,0.0,0.0,0.0,0.0,0.0,0.0,0.0166,0.061,0.1093,0.1901,0.3111,0.3202,0.3709,0.4834,0.4103,0.3457,0.3004,0.4154,0.4753,0.4753,0.5274,0.5539,0.5568,0.6006,0.6769,0.7793,0.7793,0.8381,0.941,0.941,0.941,0.941,0.941,0.941,0.941,0.941,0.941,0.9396,0.9288,0.9247,0.9233,0.9103,0.9164,0.9322,0.9369,0.953,0.971,0.971,0.9751,0.9792,0.9792,0.9717,0.9673,0.9673,0.9557,0.9595,1.0048,1.0128,1.0524,1.1966,1.3155,1.4333,1.562,1.6737,1.7574,1.7836,1.7876,1.7876,1.7876,1.7876,1.7876,1.7876,1.7876,1.7876,1.7876,1.8631,1.9836,2.1558,2.2567,2.385,2.5577,2.5693,2.5693,2.5693,2.5693,2.5693,2.5693,2.6572,2.741,2.8143,3.0024,3.1805,3.3468,3.4509,3.5499,0.0,0.0,0.0,0.0,0.0,0.0,0.0,0.0,0.0,0.0,0.0,0.0,0.0,0.0,0.0,0.0,0.0,0.0,0.0,0.0,0.0,0.0,0.0,0.0564,0.2031,0.3691,0.4721,0.486,0.4867,0.4896,0.4896,0.6268,0.6385,0.4922,0.4893,0.4896,0.4896,0.6356,0.7089,0.7089,0.8613,0.9352,0.9381,0.9381,0.9381,0.941,0.941,0.941,0.941,0.941,0.941,0.941,0.941,0.941,0.941,0.941,0.941,0.941,0.9403,0.9476,0.9625,0.9737,0.9886,0.9984,0.9984,0.9907,0.9792,0.9792,0.9792,0.9792,0.9792,0.9683,0.9984,1.1577,1.1881,1.2203,1.3752,1.4092,1.4544,1.6007,1.6298,1.6785,1.8242,1.8477,1.8477,1.8477,1.8477,1.8477,1.8477,1.8477,1.8477,1.8477,1.8223,1.9037,2.1498,2.1719,2.2868,2.5528,2.5693,2.5693,2.5693,2.5693,2.5693,2.5693,2.5718,2.6935,2.9395,3.0453,3.2277,3.4705,3.5855,3.6381,0.0,0.0,0.0,0.0,0.0,0.0,0.0,0.0,0.0,0.0,0.0,0.0,0.0,0.0,0.0,0.0,0.0,0.0,0.0,0.0799,0.141,0.149,0.2517,0.3387,0.3862,0.4479,0.5331,0.6517,0.6615,0.709,0.8192,0.8678,0.8177,0.6453,0.752,0.8101,0.8101,0.8665,0.8954,0.8954,0.944,0.968,0.968,0.968,0.968,0.968,0.968,0.968,0.968,0.968,0.968,0.968,0.968,0.968,0.9673,0.9571,0.9537,0.9537,0.9537,0.9632,0.9751,0.99,1.0049,1.0209,1.0209,1.0069,0.9927,0.9819,0.9792,0.9792,0.9792,0.9758,0.9875,1.0373,1.0456,1.0569,1.106,1.2031,1.3224,1.4607,1.5732,1.6891,1.8267,1.849,1.849,1.849,1.849,1.849,1.849,1.849,1.849,1.849,1.841,1.9337,2.1762,2.1791,2.2843,2.5528,2.5693,2.5693,2.5693,2.5693,2.5693,2.5693,2.5693,2.6225,2.7357,2.7955,2.9931,3.3112,3.5375,3.6405,0.0,0.0,0.0,0.0,0.0,0.0,0.0,0.0,0.0,0.0,0.0,0.0,0.0,0.0,0.0,0.0,0.0,0.0179,0.0673,0.1506,0.2312,0.2976,0.4517,0.5553,0.559,0.6262,0.7114,0.8222,0.8294,0.8751,0.9754,0.9792,0.9275,0.8148,0.9125,0.9686,0.9686,0.9744,0.9792,0.9792,0.9792,0.9792,0.9792,0.9792,0.9792,0.9792,0.9792,0.9792,0.0,0.9792,0.9792,0.9792,0.9792,0.9792,0.9778,0.969,0.9686,0.97,0.9724,0.9805,0.9907,1.0116,1.0283,1.039,1.039,1.0256,1.0076,0.992,0.9879,0.9859,0.9805,0.9792,1.0119,1.1322,1.1615,1.1946,1.3168,1.4202,1.515,1.5995,1.6929,1.7855,1.871,1.8853,1.8853,1.8853,1.8853,1.8853,1.8853,1.8853,1.8853,1.8853,1.8718,1.9472,2.1478,2.1905,2.3022,2.5227,2.5888,2.6186,2.6186,2.6186,2.6186,2.6186,2.6186,2.6571,2.7307,2.8232,3.0203,3.313,3.4872,3.5906,0.0,0.0,0.0,0.0,0.0,0.0,0.0,0.0,0.0,0.0,0.0,0.0,0.0,0.0061,0.0105,0.0021,0.0156,0.0675,0.184,0.2314,0.3066,0.4485,0.6094,0.7087,0.711,0.8629,0.968,0.9778,0.9792,0.9792,0.9792,0.9792,0.9792,0.9792,0.9792,0.9792,0.9792,0.9792,0.9792,0.9792,0.9792,0.9792,0.9792,0.9792,0.9792,0.9792,0.9792,0.9792,0.9792,0.9792,0.9792,0.9792,0.9792,0.9792,0.9792,0.9792,0.9798,0.9832,0.9981,1.0042,1.0096,1.0412,1.0507,1.0507,1.0507,1.0399,1.0249,1.0076,1.0035,1.0001,0.9859,0.9825,1.0602,1.3584,1.4361,1.5243,1.8227,1.8981,1.9098,1.9214,1.9243,1.9272,1.9388,1.9401,1.9401,1.9401,1.9401,1.9401,1.9401,1.9401,1.9401,1.9401,1.9118,1.9441,2.0691,2.1965,2.3306,2.4699,2.6179,2.6986,2.6986,2.6986,2.6986,2.6986,2.7045,2.7631,2.8774,3.0612,3.2491,3.4358,3.448,3.5211,0.0,0.0,0.0,0.0,0.0,0.0,0.0,0.0,0.0,0.0,0.0,0.0,0.0,0.0752,0.1073,0.016,0.1641,0.2725,0.2227,0.4256,0.5845,0.6015,0.7775,0.8468,0.7226,0.8702,0.9758,0.9792,0.9792,0.9792,0.9792,0.9792,0.9792,0.9792,0.9792,0.9792,0.9792,0.9792,0.9792,0.9792,0.9792,0.9792,0.9792,0.9792,0.9792,0.9792,0.9792,0.9792,0.9792,0.9792,0.9792,0.9792,0.9792,0.9792,0.9792,0.9792,0.9866,0.9988,1.0175,1.0297,1.0419,1.0609,1.0663,1.0663,1.0663,1.0487,1.0308,1.0236,1.0222,1.0215,1.0181,1.0175,1.0329,1.094,1.2008,1.3086,1.3734,1.4866,1.609,1.7325,1.756,1.7952,1.9185,1.9401,1.9401,1.9401,1.9401,1.9401,1.9401,1.9401,1.9401,1.9401,1.9334,1.9396,1.9742,2.1548,2.3306,2.4699,2.6179,2.6986,2.6986,2.6986,2.6986,2.6986,2.7656,2.8147,2.8417,3.0546,3.2393,3.3967,3.4992,3.6253,0.1429,0.0731,0.0119,0.061,0.0731,0.0876,0.1432,0.1532,0.1537,0.1634,0.1692,0.1726,0.1668,0.2337,0.2446,0.105,0.2678,0.3915,0.3339,0.464,0.5908,0.6608,0.7735,0.8407,0.8262,0.92,0.9792,0.9792,0.9792,0.9792,0.9792,0.9792,0.9792,0.9792,0.9792,0.9792,0.9792,0.9792,0.9792,0.9792,0.9792,0.9792,0.9792,0.9792,0.9792,0.9792,0.9792,0.9792,0.9792,0.9792,0.9792,0.9792,0.9792,0.9792,0.9798,0.9866,0.9947,1.0049,1.0304,1.0473,1.0609,1.0697,1.0684,1.0684,1.0684,1.0609,1.0466,1.0399,1.0378,1.0397,1.0329,1.0873,1.1665,1.2274,1.3793,1.5288,1.5962,1.6763,1.7665,1.8541,1.8561,1.8754,1.9612,1.9653,1.9559,1.9559,1.9481,1.9401,1.9401,1.9401,1.9401,1.9401,1.9401,1.9401,1.9401,2.1747,2.3543,2.4299,2.5733,2.6879,2.7572,2.7598,2.7695,2.7864,2.8535,2.8914,2.8914,3.0116,3.1393,3.2802,3.3546,3.4984,0.3139,0.1892,0.0778,0.1648,0.186,0.2131,0.3194,0.3376,0.3336,0.3319,0.3408,0.347,0.3408,0.3797,0.3706,0.2413,0.371,0.4932,0.5147,0.5095,0.5512,0.6774,0.728,0.798,0.914,0.958,0.9792,0.9792,0.9792,0.9792,0.9792,0.9792,0.9792,0.9792,0.9792,0.9792,0.9792,0.9792,0.9792,0.9792,0.9792,0.9792,0.9792,0.9792,0.9792,0.9792,0.9792,0.9792,0.9792,0.9792,0.9792,0.9792,0.9792,0.9792,0.9812,0.9961,1.0035,1.0096,1.0426,1.0609,1.0684,1.0684,1.0684,1.0684,1.0684,1.0684,1.0697,1.0561,1.0723,1.0915,1.0788,1.2099,1.3762,1.5036,1.6914,1.8753,2.0047,2.0513,2.0712,2.0712,2.0441,2.0197,2.0197,1.9997,1.9867,1.9867,1.9653,1.9535,1.9535,1.9535,1.9535,1.9535,1.9535,1.9508,1.9468,2.1761,2.3271,2.3459,2.5316,2.7025,2.8325,2.8398,2.8594,2.9004,2.9481,2.9696,2.9696,2.9755,3.0501,3.182,3.2066,3.3555,0.3303,0.3283,0.3191,0.3068,0.305,0.3133,0.3485,0.3565,0.3274,0.2281,0.2091,0.2165,0.2372,0.3195,0.3912,0.4061,0.5456,0.6934,0.8054,0.8526,0.8361,0.7211,0.8447,0.8964,0.7846,0.8983,0.9792,0.9792,0.9792,0.9792,0.9792,0.9792,0.9792,0.9792,0.9792,0.9792,0.9792,0.9792,0.9792,0.9792,0.9792,0.9792,0.9792,0.9792,0.9792,0.9792,0.9792,0.9792,0.9792,0.9792,0.9792,0.9792,0.9792,0.9792,0.9812,0.9961,1.0103,1.029,1.0582,1.0671,1.0684,1.0684,1.0684,1.0684,1.0684,1.0684,1.0717,1.069,1.1724,1.2882,1.2824,1.4333,1.5809,1.5684,1.73,1.8847,1.8691,1.9742,2.0712,2.0712,2.0441,2.0197,2.0197,2.017,2.0144,2.0144,2.0104,2.0064,2.0064,2.0064,2.0064,2.0064,2.0064,2.0,1.976,2.0162,2.0842,2.1885,2.5745,2.8222,2.8781,2.8828,2.9023,2.9481,2.9883,3.0098,3.0098,3.0517,3.1451,3.2896,3.4157,3.5636,0.5023,0.5172,0.5294,0.5475,0.5087,0.4855,0.5597,0.5769,0.5628,0.5139,0.5097,0.5157,0.5218,0.5824,0.6498,0.697,0.6288,0.6219,0.7703,0.7425,0.7099,0.7235,0.8002,0.8564,0.8682,0.9368,0.9792,0.9792,0.9792,0.9792,0.9792,0.9792,0.9792,0.9792,0.9792,0.9792,0.9792,0.9792,0.9792,0.9792,0.9792,0.9792,0.9792,0.9792,0.9792,0.9792,0.9792,0.9792,0.9792,0.9792,0.9792,0.9792,0.9792,0.9839,0.994,1.017,1.0385,1.0534,1.067,1.0684,1.0684,1.0684,1.0684,1.0684,1.0684,1.0684,1.0684,1.0684,1.1338,1.1996,1.1996,1.4101,1.6227,1.6179,1.8464,2.0613,2.0532,2.1117,2.1577,2.1416,2.1149,2.0895,2.0735,2.0575,2.0468,2.0468,2.0304,2.0197,2.0197,2.0197,2.0197,2.0197,2.0197,2.0536,2.1297,2.2098,2.2724,2.3143,2.5844,2.7988,2.923,2.9492,2.9707,2.9931,3.0351,3.0566,3.0566,3.0781,3.1257,3.194,3.2607,3.3726,0.6498,0.6593,0.6784,0.7355,0.6822,0.6444,0.7418,0.7678,0.7624,0.7432,0.7489,0.7584,0.7557,0.8156,0.8777,0.9152,0.7319,0.6269,0.7525,0.6752,0.6538,0.782,0.7963,0.8453,0.9677,0.9792,0.9792,0.9792,0.9792,0.9792,0.9792,0.9792,0.9792,0.9792,0.9792,0.9792,0.9792,0.9792,0.9792,0.9792,0.9792,0.9792,0.9792,0.9792,0.9792,0.9792,0.9792,0.9792,0.9792,0.9792,0.9792,0.9792,0.9792,0.9907,1.0103,1.0399,1.0588,1.0684,1.0684,1.0684,1.0684,1.0684,1.0684,1.0684,1.0684,1.0982,1.1306,1.1306,1.1688,1.2101,1.2063,1.4726,1.7456,1.7706,1.9999,2.2124,2.2285,2.2311,2.2231,2.197,2.1676,2.1408,2.1149,2.0922,2.0775,2.0775,2.0588,2.041,2.041,2.041,2.041,2.041,2.041,2.092,2.2122,2.3211,2.4071,2.4717,2.6487,2.8286,2.9972,3.0234,3.041,3.0508,3.0762,3.0898,3.0898,3.0898,3.0898,3.0928,3.1238,3.2006,0.6607,0.6864,0.7181,0.7641,0.7537,0.7362,0.7709,0.7885,0.7618,0.6395,0.6282,0.6493,0.673,0.8083,0.9173,0.9207,0.9236,0.9304,0.9397,0.9426,0.9481,0.9609,0.9616,0.9677,0.9792,0.9792,0.9792,0.9792,0.9792,0.9792,0.9792,0.9792,0.9792,0.9792,0.9792,0.9792,0.9792,0.9792,0.9792,0.9792,0.9792,0.9792,0.9792,0.9792,0.9792,0.9792,0.9792,0.9792,0.9792,0.9792,0.9792,0.9792,0.9792,1.0005,1.0315,1.0432,1.0588,1.0684,1.0684,1.0684,1.0684,1.0684,1.0684,1.0684,1.0684,1.1828,1.3095,1.3095,1.4376,1.5711,1.5571,1.8355,2.1227,2.124,2.1826,2.2311,2.2071,2.2017,2.197,2.1676,2.1349,2.1136,2.1109,2.1096,2.1082,2.1082,2.1056,2.1042,2.1042,2.1042,2.1042,2.1042,2.1042,2.0967,2.0854,2.0662,2.1957,2.5327,2.8292,3.0373,3.1318,3.1035,3.1035,3.1406,3.1074,3.0898,3.0898,3.0898,3.0898,3.0928,3.2322,3.2992,0.6762,0.7107,0.7536,0.7984,0.8104,0.8145,0.8323,0.8392,0.8282,0.7781,0.7813,0.7987,0.8207,0.8828,0.9356,0.9422,0.9537,0.9639,0.9697,0.9758,0.9792,0.9792,0.9792,0.9792,0.9792,0.9792,0.9792,0.9792,0.9792,0.9792,0.9792,0.9792,0.9792,0.9792,0.9792,0.9792,0.9792,0.9792,0.9792,0.9792,0.9792,0.9792,0.9792,0.9792,0.9792,0.9792,0.9792,0.9792,0.9792,0.9792,0.9792,0.9812,1.0032,1.0236,1.0432,1.0582,1.067,1.0684,1.0684,1.0684,1.0684,1.0684,1.0684,1.0684,1.0684,1.1141,1.1927,1.2997,1.4581,1.5989,1.6017,1.7904,1.9842,2.0068,2.1043,2.193,2.201,2.1991,2.193,2.1649,2.1489,2.1323,2.1149,2.1109,2.1109,2.1109,2.1109,2.1109,2.1109,2.1109,2.1109,2.1109,2.2937,2.4101,2.4009,2.5761,2.7546,2.9168,2.8288,2.8861,3.1395,3.1621,3.1788,3.1914,3.1788,3.171,3.171,3.171,3.171,3.171,3.2266,3.2533,0.7039,0.7366,0.7719,0.824,0.8437,0.8573,0.8791,0.8852,0.8852,0.8852,0.9008,0.9149,0.9308,0.9451,0.9551,0.9659,0.968,0.9707,0.9778,0.9792,0.9792,0.9792,0.9792,0.9792,0.9792,0.9792,0.9792,0.9792,0.9792,0.9792,0.9792,0.9839,0.9859,0.9859,0.9913,0.9964,0.9964,0.9964,0.9964,0.9964,0.9964,0.9913,0.9866,0.9944,0.9964,0.9964,0.9964,0.9964,0.9964,0.9964,0.9992,1.0059,1.0371,1.0555,1.0656,1.0806,1.0833,1.0759,1.0759,1.0725,1.0684,1.0684,1.1082,1.1538,1.1538,1.2281,1.3423,1.4623,1.6205,1.7571,1.7641,1.8543,1.9536,1.987,2.0804,2.1636,2.1836,2.1877,2.1796,2.1502,2.1448,2.1381,2.1149,2.1109,2.1109,2.1109,2.1109,2.1109,2.1109,2.1109,2.1109,2.1109,2.3124,2.4455,2.4455,2.7,2.8929,2.9714,2.8106,2.8569,3.1774,3.212,3.2257,3.2394,3.2257,3.2198,3.2198,3.2198,3.2198,3.2198,3.2198,3.2198,0.7434,0.7604,0.7753,0.8362,0.8512,0.8634,0.9111,0.9214,0.9207,0.9214,0.943,0.9612,0.9612,0.9697,0.9792,0.9792,0.9792,0.9792,0.9792,0.9792,0.9792,0.9792,0.9792,0.9792,0.9792,0.9792,0.9792,0.9792,0.9792,0.9792,0.9792,0.994,0.999,0.999,1.0202,1.0315,1.0315,1.0315,1.0315,1.0315,1.0315,1.0202,1.0028,1.0209,1.0315,1.0315,1.0315,1.0315,1.0315,1.0315,1.0365,1.0527,1.0799,1.0914,1.0934,1.1145,1.107,1.0914,1.0914,1.0819,1.0724,1.0724,1.1901,1.3325,1.3325,1.5729,1.848,1.8512,1.975,2.1091,2.1109,2.1122,2.1189,2.1515,2.1614,2.1614,2.1614,2.1614,2.1489,2.1162,2.1109,2.1109,2.1109,2.1109,2.1109,2.1109,2.1109,2.1109,2.1109,2.1109,2.1109,2.1109,2.1141,2.1141,2.1141,2.2716,2.4363,2.5954,2.7982,3.021,3.2692,3.2413,3.2394,3.2793,3.2413,3.2218,3.2218,3.2218,3.2218,3.2218,3.2218,3.2218,0.7611,0.8058,0.8425,0.8601,0.8879,0.9179,0.9308,0.926,0.924,0.9429,0.9544,0.9639,0.971,0.9765,0.9792,0.9792,0.9792,0.9792,0.9792,0.9792,0.9792,0.9792,0.9792,0.9792,0.9792,0.9886,0.9947,0.9947,1.008,1.0148,1.0148,1.0188,1.0209,1.0209,1.0256,1.0315,1.0315,1.0315,1.0315,1.0315,1.041,1.0351,1.0215,1.0256,1.0315,1.0315,1.0315,1.0315,1.0322,1.0385,1.0582,1.0786,1.088,1.0975,1.1104,1.1179,1.1172,1.1097,1.1097,1.1945,1.302,1.302,1.4253,1.5744,1.5744,1.6478,1.7542,1.8777,1.9513,2.0182,2.1417,2.1577,2.1422,2.1269,2.1243,2.1243,2.1243,2.1243,2.1216,2.1122,2.1109,2.1109,2.1109,2.1109,2.1109,2.1109,2.1109,2.1109,2.1109,2.1109,2.1109,2.1109,2.3186,2.4548,2.4548,2.7121,2.8938,2.9412,3.0016,3.0815,3.1845,3.2363,3.2676,3.2793,3.2969,3.3047,3.3047,3.3047,3.3047,3.3047,3.3047,3.3047,0.7997,0.8453,0.8784,0.8872,0.9165,0.9424,0.9456,0.9442,0.9469,0.9652,0.971,0.9765,0.9785,0.9839,0.9859,0.9798,0.9792,0.9792,0.9792,0.9792,0.9812,0.9873,0.9879,0.9907,0.9998,1.0055,1.0109,1.0109,1.0229,1.0315,1.0315,1.0363,1.0365,1.0365,1.0426,1.0453,1.0453,1.0453,1.0453,1.046,1.0541,1.0534,1.0453,1.0453,1.0453,1.046,1.0521,1.0548,1.0561,1.0765,1.0962,1.1097,1.1158,1.1232,1.1341,1.1341,1.1342,1.1392,1.2142,1.3091,1.4122,1.4862,1.6344,1.7826,1.7826,1.8329,1.9076,2.0153,2.0418,2.0663,2.1747,2.189,2.1676,2.1349,2.1189,2.1109,2.1109,2.1109,2.1109,2.1109,2.1109,2.1109,2.1109,2.1109,2.1109,2.1109,2.1109,2.1109,2.1109,2.1109,2.1109,2.1109,2.2875,2.4317,2.4993,2.7452,2.9235,2.9873,3.0509,3.0996,3.125,3.209,3.2617,3.2793,3.3203,3.3386,3.3386,3.3386,3.3386,3.3386,3.3386,3.3386,0.8431,0.8784,0.896,0.9152,0.9308,0.9442,0.9591,0.9697,0.9792,0.9792,0.99,0.9954,0.9819,0.9907,0.9954,0.9812,0.9792,0.9798,0.9812,0.9812,0.9866,1.0021,1.0042,1.0096,1.0263,1.0322,1.0329,1.0329,1.0342,1.0356,1.0356,1.0439,1.0514,1.0514,1.0649,1.0684,1.0684,1.0684,1.0684,1.0684,1.0684,1.0684,1.0684,1.0684,1.0691,1.0718,1.0867,1.0941,1.0975,1.128,1.1402,1.1423,1.1565,1.1584,1.1584,1.1584,1.1531,1.1691,1.355,1.4242,1.4618,1.6506,1.8295,1.9714,1.9714,2.0838,2.2071,2.2071,2.2071,2.2071,2.2071,2.2044,2.1951,2.1729,2.1435,2.1189,2.1189,2.1189,2.1189,2.1189,2.1189,2.1176,2.1149,2.1149,2.1136,2.1109,2.1109,2.1109,2.1109,2.1109,2.1109,2.1109,2.138,2.2153,2.3698,2.5436,2.7073,2.8545,3.005,3.0898,3.0898,3.171,3.2316,3.2676,3.3125,3.3359,3.3359,3.3367,3.3386,3.3386,3.3386,3.3386,0.8213,0.8757,0.9145,0.92,0.939,0.9598,0.971,0.9771,0.9792,0.9792,0.9819,0.9832,0.9798,0.9819,0.9832,0.9798,0.9792,0.9832,0.9954,0.9967,1.0028,1.0215,1.0229,1.0243,1.0308,1.041,1.0446,1.0446,1.0561,1.0622,1.0622,1.0656,1.067,1.067,1.0671,1.0684,1.0684,1.0684,1.0684,1.0684,1.0684,1.0684,1.0684,1.0684,1.0752,1.0874,1.1056,1.1185,1.1301,1.1362,1.1463,1.1572,1.1606,1.1584,1.1584,1.1584,1.1563,1.1816,1.3708,1.529,1.6828,1.8772,2.0654,2.2149,2.2149,2.2421,2.2706,2.2706,2.2706,2.2706,2.2706,2.2498,2.2311,2.2245,2.2004,2.179,2.179,2.179,2.179,2.179,2.179,2.1724,2.1529,2.1489,2.1408,2.1149,2.1109,2.1109,2.1109,2.1109,2.1109,2.1109,2.3404,2.51,2.5436,2.8158,2.9991,3.0333,3.0704,3.0898,3.0898,3.1387,3.1699,3.1797,3.2539,3.293,3.293,3.3262,3.3386,3.3386,3.3386,3.3386,0.8192,0.873,0.9117,0.9401,0.9646,0.9792,0.9792,0.9792,0.9792,0.9792,0.9792,0.9792,0.9792,0.9792,0.9812,0.9886,0.99,0.9954,1.0109,1.013,1.0215,1.0397,1.041,1.0412,1.0487,1.0561,1.0602,1.0602,1.0677,1.0684,1.0684,1.0684,1.0684,1.0684,1.0684,1.0684,1.0684,1.0684,1.0725,1.0792,1.0792,1.0867,1.1036,1.086,1.084,1.0928,1.1179,1.1349,1.1396,1.147,1.1545,1.1584,1.1584,1.2144,1.296,1.296,1.3523,1.4547,1.6474,1.7774,1.8903,2.0825,2.2091,2.2893,2.2893,2.2893,2.2893,2.2893,2.2893,2.2893,2.2893,2.2786,2.2632,2.2632,2.2298,2.1991,2.1991,2.1991,2.1991,2.1991,2.1991,2.197,2.1823,2.1796,2.1743,2.155,2.1523,2.1523,2.1523,2.1403,2.1355,2.1355,2.2726,2.3977,2.4778,2.7121,2.889,2.9648,3.045,3.0898,3.0898,3.1094,3.1309,3.1504,3.2168,3.2598,3.2793,3.3008,3.3223,3.3386,3.3386,3.3386,0.814,0.8682,0.9109,0.9623,0.9866,0.9947,0.9819,0.9792,0.9798,0.9825,0.9805,0.9798,0.9825,0.9832,0.9879,1.0035,1.0055,1.0109,1.0297,1.0317,1.0371,1.0514,1.0527,1.0582,1.0677,1.0684,1.0684,1.0684,1.0684,1.0684,1.0684,1.0684,1.0698,1.0725,1.0725,1.0738,1.0799,1.0799,1.084,1.0988,1.1016,1.1144,1.1382,1.1158,1.1063,1.1083,1.1389,1.1504,1.1518,1.164,1.1694,1.173,1.2085,1.3151,1.4561,1.4918,1.6022,1.7617,1.9551,2.0262,2.0541,2.2454,2.3054,2.3054,2.3054,2.3054,2.3054,2.3054,2.3054,2.3041,2.2987,2.2974,2.296,2.2907,2.2519,2.2171,2.2171,2.2171,2.2171,2.2171,2.2098,2.2058,2.2058,2.2017,2.1991,2.1991,2.1991,2.1991,2.1991,2.181,2.1662,2.1662,2.1934,2.2686,2.4082,2.5968,2.7608,2.8863,3.0252,3.0957,3.0898,3.0898,3.1055,3.1406,3.1866,3.2226,3.2578,3.2734,3.2969,3.332,3.3347,3.3386,0.7736,0.8594,0.9374,0.9585,0.9717,0.9812,0.9798,0.9792,0.9825,0.9961,0.9886,0.9832,0.9961,0.9988,1.0035,1.0222,1.0249,1.0297,1.0446,1.0466,1.0521,1.067,1.0657,1.0664,1.0684,1.0684,1.0684,1.0684,1.0684,1.0684,1.0684,1.0684,1.0745,1.088,1.0887,1.0941,1.1138,1.1138,1.1213,1.1335,1.1463,1.1477,1.1396,1.1577,1.1678,1.1685,1.1898,1.2009,1.2009,1.203,1.2043,1.2222,1.3938,1.4776,1.5207,1.6952,1.7752,1.8259,2.0135,2.0792,2.1114,2.3053,2.3683,2.3683,2.3683,2.3683,2.3683,2.3683,2.3683,2.3629,2.3327,2.326,2.3193,2.296,2.284,2.2773,2.2773,2.2773,2.2773,2.2773,2.2539,2.2365,2.2365,2.2151,2.1991,2.1991,2.1991,2.1991,2.1991,2.1984,2.1957,2.1957,2.457,2.6373,2.6595,2.9565,3.1304,3.1118,3.1307,3.1269,3.0898,3.0898,3.0918,3.0976,3.1387,3.1641,3.1699,3.2441,3.2832,3.2891,3.3242,3.3386,0.7828,0.8777,0.9564,0.9765,0.9994,1.0154,0.9954,0.992,0.994,0.997,0.9967,0.9967,1.0148,1.0181,1.0229,1.0378,1.0399,1.0453,1.0602,1.0622,1.0643,1.0677,1.0684,1.0684,1.0684,1.0684,1.0684,1.0684,1.0765,1.0813,1.0813,1.0928,1.1002,1.1063,1.107,1.1097,1.12,1.1281,1.1409,1.164,1.1877,1.1959,1.1904,1.2115,1.2026,1.1692,1.1996,1.2098,1.2098,1.2098,1.2098,1.2284,1.4297,1.5755,1.6919,1.8923,2.0357,2.1426,2.2251,2.2515,2.2658,2.3505,2.3803,2.3803,2.3803,2.3803,2.3803,2.3803,2.3803,2.3777,2.3607,2.3581,2.3541,2.3442,2.3402,2.3402,2.3402,2.3134,2.2893,2.2893,2.2786,2.2672,2.2672,2.2599,2.2505,2.2505,2.2505,2.2505,2.2505,2.2325,2.2231,2.2231,2.3426,2.4222,2.4222,2.6439,2.8188,2.8964,2.9886,3.0744,3.1572,3.1631,3.1631,3.1631,3.1309,3.1289,3.1494,3.1894,3.2207,3.2492,3.2871,3.3066,0.7859,0.8696,0.9415,0.9758,1.0073,1.0243,1.0103,1.0076,1.0076,1.0076,1.0103,1.0163,1.031,1.0363,1.0378,1.0527,1.0548,1.0588,1.0704,1.0684,1.0684,1.0684,1.0684,1.0704,1.0738,1.0745,1.0759,1.0833,1.0907,1.0968,1.0968,1.1104,1.1213,1.1254,1.1254,1.1288,1.137,1.1525,1.1728,1.1915,1.2216,1.2325,1.2329,1.2964,1.2986,1.2518,1.2284,1.2213,1.2244,1.2771,1.2951,1.3214,1.5757,1.7598,1.9068,2.1087,2.2754,2.3995,2.3995,2.3995,2.3995,2.3995,2.3995,2.3995,2.3995,2.3995,2.3995,2.3995,2.3995,2.3968,2.3937,2.391,2.3897,2.383,2.3803,2.3803,2.3803,2.3455,2.3134,2.3134,2.3067,2.3014,2.3014,2.2947,2.2893,2.2893,2.2893,2.2893,2.2893,2.2672,2.2525,2.2525,2.2726,2.3087,2.3535,2.5063,2.6729,2.8444,2.9667,3.089,3.2137,3.2198,3.2198,3.2198,3.1573,3.1309,3.1494,3.1621,3.1797,3.2042,3.2441,3.2637,0.7536,0.8079,0.8709,0.9301,0.9537,0.9761,1.0175,1.027,1.027,1.027,1.0378,1.0473,1.048,1.048,1.0527,1.0683,1.0677,1.0677,1.0684,1.0684,1.0684,1.0684,1.0684,1.0745,1.0887,1.0901,1.0961,1.1166,1.1179,1.1186,1.1186,1.1193,1.1261,1.1375,1.1382,1.1511,1.1759,1.2094,1.225,1.2271,1.242,1.242,1.2367,1.4404,1.5269,1.5002,1.3242,1.2481,1.2628,1.4528,1.5323,1.5735,1.9709,2.1331,2.1629,2.3684,2.4472,2.4559,2.4559,2.4559,2.4559,2.4559,2.4559,2.4559,2.4559,2.4559,2.4559,2.4559,2.4559,2.4492,2.4249,2.4182,2.4115,2.387,2.3803,2.3803,2.3803,2.3777,2.3763,2.3763,2.35,2.3265,2.3265,2.306,2.2893,2.2893,2.2893,2.2893,2.2893,2.288,2.288,2.288,2.4356,2.5993,2.7719,2.947,3.1052,3.2432,3.2568,3.2486,3.2218,3.2198,3.2198,3.2198,3.2159,3.1914,3.1494,3.1964,3.1964,3.1562,3.1992,3.2237,0.7342,0.7821,0.8364,0.909,0.9564,0.99,1.0062,1.0276,1.0419,1.0419,1.046,1.0521,1.0622,1.0636,1.0623,1.0677,1.0684,1.0684,1.0684,1.0684,1.0725,1.0819,1.0833,1.0894,1.107,1.1084,1.1104,1.1193,1.1288,1.1342,1.1342,1.1402,1.1525,1.1631,1.1674,1.1816,1.2121,1.2237,1.2338,1.2427,1.3807,1.4413,1.4427,1.6534,1.7473,1.736,1.6724,1.6409,1.6485,1.7208,1.7474,1.7777,2.053,2.1601,2.1826,2.387,2.4599,2.4599,2.4599,2.4599,2.4599,2.4599,2.4599,2.4599,2.4599,2.4599,2.4599,2.4599,2.4599,2.4572,2.4466,2.4439,2.4412,2.4356,2.4329,2.4329,2.4329,2.4035,2.3803,2.3803,2.3688,2.3607,2.3607,2.3549,2.3482,2.3482,2.3482,2.3482,2.3482,2.3273,2.3153,2.3153,2.355,2.4094,2.4757,2.5383,2.6909,2.9672,2.9834,3.0792,3.2875,3.2969,3.2969,3.2969,3.2969,3.2637,3.1934,3.212,3.212,3.1983,3.2394,3.2609,0.7124,0.7516,0.7997,0.877,0.934,0.9771,0.9974,1.0285,1.0555,1.05,1.0575,1.0643,1.0643,1.0691,1.0745,1.0698,1.0732,1.0765,1.0765,1.0765,1.0819,1.0968,1.0988,1.1077,1.1261,1.1274,1.1295,1.1349,1.1409,1.147,1.147,1.1565,1.1651,1.1786,1.1895,1.2081,1.2291,1.3011,1.3426,1.3529,1.5578,1.6215,1.5671,1.8493,1.9409,1.8871,2.0282,2.0044,1.8648,1.9327,1.9591,1.9817,2.1826,2.262,2.2769,2.4105,2.4599,2.4599,2.4599,2.4599,2.4599,2.4599,2.4599,2.4599,2.4599,2.4599,2.4599,2.4599,2.4599,2.4599,2.4599,2.4599,2.4599,2.4599,2.4599,2.4599,2.4599,2.4329,2.4062,2.4062,2.3981,2.3915,2.3915,2.387,2.3803,2.3803,2.3803,2.3803,2.3803,2.3594,2.3474,2.3474,2.3322,2.3707,2.4905,2.4872,2.6341,2.9927,3.0018,3.0983,3.3292,3.3386,3.3386,3.3386,3.3386,3.3144,3.2598,3.2472,3.2335,3.2198,3.2492,3.2578,0.0,0.0,0.0,0.8301,0.8832,0.9328,0.9859,1.0346,1.0663,1.0586,1.0797,1.092,1.0652,1.0818,1.0934,1.0744,1.0819,1.0921,1.0921,1.0928,1.0982,1.1193,1.1213,1.1274,1.1396,1.1409,1.147,1.1584,1.1597,1.1597,1.1597,1.164,1.1701,1.191,1.2173,1.2336,1.2419,1.4404,1.5433,1.5442,1.7607,1.7674,1.603,2.0222,2.1121,1.9631,2.3701,2.2934,1.8971,2.0902,2.1737,2.1924,2.3859,2.4626,2.4626,2.4626,2.4626,2.4626,2.4626,2.4626,2.4626,2.4626,2.4626,2.4626,2.4626,2.4626,2.4626,2.4626,2.4626,2.4626,2.4626,2.4626,2.4626,2.4626,2.4626,2.4626,2.4626,2.4613,2.4613,2.4599,2.4372,2.4222,2.4222,2.3981,2.383,2.383,2.383,2.383,2.383,2.383,2.3817,2.3817,2.3803,2.5215,2.8757,2.8686,3.0028,3.3727,3.3532,3.333,3.3425,3.3406,3.3406,3.3406,3.3406,3.3386,3.3386,3.3008,3.2628,3.2237,3.2237,3.2237,0.6607,0.0,0.0,0.0,0.0,0.0,0.9369,0.9924,1.0798,1.2234,1.2791,1.2976,1.2904,1.3049,1.2598,1.0958,1.0934,1.1104,1.1104,1.1199,1.1321,1.1477,1.1586,1.1708,1.19,1.1914,1.1928,1.1975,1.1975,1.1975,1.1975,1.2047,1.2781,1.429,1.3094,1.3221,1.4833,1.3917,1.3536,1.3731,1.7306,1.8777,1.8407,2.2617,2.4252,2.3817,2.5007,2.475,2.363,2.4175,2.4416,2.4492,2.5037,2.5239,2.5239,2.5239,2.5239,2.5239,2.5239,2.5239,2.5239,2.5239,2.5239,2.5239,2.5239,2.5239,2.5239,2.5239,2.5239,2.5239,2.5239,2.5239,2.5239,2.5239,2.5239,2.5239,2.5239,2.5104,2.489,2.4639,2.4532,2.4479,2.4479,2.4412,2.4396,2.4396,2.4396,2.4396,2.4396,2.4209,2.4088,2.4088,2.3937,2.4216,2.5215,2.52,2.6681,3.0341,3.0439,3.1571,3.4239,3.4062,3.3887,3.3887,3.3574,3.3386,3.3386,3.3269,3.3184,3.3066,3.3066,3.3066,0.7955,0.8262,0.8374,0.8328,0.0,0.0,1.0357,1.0906,1.1925,1.4293,1.4166,1.3729,1.3874,1.3305,1.2414,1.1186,1.1199,1.1342,1.1213,1.1329,1.147,1.1644,1.1746,1.1891,1.2084,1.2098,1.2098,1.2098,1.2873,1.3712,1.4555,1.3982,1.4182,1.5333,1.3649,1.3747,1.5937,1.5592,1.5917,1.7007,2.0256,2.1402,2.0758,2.4159,2.5281,2.4557,2.5477,2.5879,2.5879,2.5879,2.5732,2.5518,2.5518,2.5518,2.5518,2.5518,2.5518,2.5518,2.5518,2.5518,2.5518,2.5518,2.5518,2.5518,2.5518,2.5518,2.5518,2.5518,2.5518,2.5518,2.5518,2.5518,2.5518,2.5518,2.5518,2.5518,2.5518,2.5384,2.517,2.4877,2.4679,2.4599,2.4599,2.4599,2.4599,2.4599,2.4599,2.4599,2.4599,2.4452,2.4382,2.4382,2.4235,2.48,2.6404,2.6343,2.7854,3.1537,3.1614,3.2481,3.4589,3.4473,3.4336,3.4336,3.4082,3.3945,3.3945,3.3562,3.3386,3.3386,3.3386,3.3386,0.9857,1.004,0.9745,0.919,0.9429,0.0,1.1603,1.2052,1.2956,1.5738,1.4765,1.3536,1.3823,1.2566,1.1406,1.1302,1.162,1.1725,1.1295,1.1335,1.1531,1.1739,1.18,1.1911,1.2084,1.2335,1.2454,1.2454,1.4122,1.5937,1.7729,1.639,1.565,1.5871,1.4483,1.474,1.6915,1.8484,2.027,2.2253,2.4264,2.4365,2.28,2.5036,2.5099,2.358,2.5528,2.6386,2.6386,2.6386,2.6079,2.5611,2.5611,2.5611,2.5611,2.5611,2.5611,2.5611,2.5611,2.5611,2.5611,2.5611,2.5611,2.5611,2.5611,2.5611,2.5611,2.5611,2.5611,2.5611,2.5611,2.5611,2.5611,2.5611,2.5611,2.5611,2.5611,2.5585,2.5491,2.5262,2.4943,2.4693,2.4693,2.4693,2.4693,2.4653,2.4653,2.4639,2.4599,2.4599,2.4599,2.4599,2.4599,2.5991,2.9385,2.936,3.0752,3.4571,3.4441,3.4396,3.4844,3.4805,3.4766,3.4766,3.4726,3.4707,3.4707,3.3887,3.3496,3.3496,3.3406,3.3386,0.9006,0.8365,0.7871,0.7588,0.7959,0.0,0.8783,0.9171,1.0143,1.2592,1.3052,1.3072,1.3231,1.304,1.2417,1.0927,1.2364,1.3162,1.158,1.1579,1.1685,1.1667,1.187,1.2064,1.2098,1.3649,1.4686,1.4686,1.5156,1.5582,1.5999,1.5949,1.665,1.8259,1.828,1.9242,2.1412,2.0216,1.9872,2.0419,2.255,2.3381,2.311,2.5332,2.6096,2.5779,2.6228,2.6386,2.6386,2.6386,2.6319,2.6213,2.6213,2.6213,2.6213,2.6213,2.6213,2.6213,2.6213,2.6213,2.6213,2.6213,2.6213,2.6213,2.6213,2.6213,2.6213,2.6213,2.6213,2.6213,2.6213,2.6213,2.6213,2.6213,2.6213,2.6213,2.6213,2.6039,2.5891,2.5837,2.5545,2.5306,2.5306,2.5306,2.5264,2.5024,2.4997,2.4903,2.4626,2.4599,2.4599,2.4599,2.4599,2.4881,2.5662,2.5643,2.7241,3.1056,3.1198,3.2538,3.5626,3.543,3.5254,3.5254,3.4883,3.4707,3.4707,3.4199,3.3945,3.3945,3.3594,3.3386,1.2159,1.1432,1.0661,1.0329,0.983,0.0,0.0,1.0292,1.0605,1.3096,1.3031,1.2599,1.2821,1.2212,1.1385,1.0628,1.2482,1.3307,1.1323,1.3185,1.4677,1.4548,1.47,1.4815,1.4871,1.5881,1.6972,1.8154,1.8302,1.8826,1.9967,1.9462,1.961,2.0626,2.0022,2.074,2.2873,2.1906,2.1963,2.314,2.4231,2.4761,2.4761,2.5898,2.6386,2.6386,2.6386,2.6386,2.6386,2.6386,2.6386,2.6386,2.6386,2.6386,2.6386,2.6386,2.6386,2.6386,2.6386,2.6386,2.6386,2.6386,2.6386,2.6386,2.6386,2.6386,2.6386,2.6386,2.6386,2.6386,2.6386,2.6386,2.6386,2.6386,2.6386,2.6386,2.6386,2.6279,2.6212,2.6212,2.6052,2.5852,2.5558,2.5518,2.5464,2.5317,2.5291,2.5237,2.5053,2.5039,2.5024,2.4877,2.4863,2.5154,2.5969,2.691,2.8685,3.1562,3.263,3.402,3.5913,3.582,3.5703,3.5703,3.5469,3.5351,3.5351,3.4941,3.4642,3.4375,3.416,3.4062,1.552,1.4753,1.3717,1.331,1.2145,1.1448,0.0,0.0,0.0,1.393,1.3002,1.1877,1.2095,1.0837,0.9846,1.0148,1.2121,1.3012,1.1261,1.4769,1.7329,1.6789,1.7221,1.754,1.7523,1.7696,1.8943,2.158,2.117,2.1707,2.3907,2.2946,2.2338,2.2338,2.155,2.1965,2.3712,2.3752,2.4641,2.6386,2.6386,2.6386,2.6386,2.6386,2.6386,2.6386,2.6386,2.6386,2.6386,2.6386,2.6386,2.6386,2.6386,2.6386,2.6386,2.6386,2.6386,2.6386,2.6386,2.6386,2.6386,2.6386,2.6386,2.6386,2.6386,2.6386,2.6386,2.6386,2.6386,2.6386,2.6386,2.6386,2.6386,2.6386,2.6386,2.6386,2.6386,2.6386,2.6386,2.6386,2.6386,2.6239,2.5758,2.5678,2.5665,2.5598,2.5598,2.5585,2.5518,2.5518,2.5424,2.5184,2.5534,2.6308,2.7605,2.9465,3.1344,3.3209,3.4737,3.5718,3.5982,3.5982,3.5982,3.5982,3.5982,3.5982,3.5982,3.5684,3.5273,3.4824,3.4746,3.4707,1.5409,1.396,1.2737,1.256,1.2269,1.2087,1.229,0.0,1.1712,1.2003,0.0,1.0432,1.0475,0.0,0.0,0.9061,1.1275,1.2815,1.2294,1.4913,1.6165,1.4194,1.6164,1.7475,1.6952,1.7769,1.9863,2.3591,2.1004,2.0035,2.1849,2.2286,2.2481,2.2481,2.4551,2.5779,2.6017,2.6017,2.6149,2.6386,2.6386,2.6386,2.6386,2.6386,2.6386,2.6386,2.6386,2.6386,2.6386,2.6386,2.6386,2.6386,2.6386,2.6386,2.6386,2.6386,2.6386,2.6386,2.6386,2.6386,2.6386,2.6386,2.6386,2.6386,2.6386,2.6386,2.6386,2.6386,2.6386,2.6386,2.6386,2.6386,2.6386,2.6386,2.6386,2.6386,2.6386,2.6386,2.6386,2.6386,2.6386,2.6373,2.6306,2.6293,2.6199,2.5984,2.5944,2.585,2.5545,2.5518,2.5504,2.5464,2.7093,2.8267,2.8447,3.0308,3.2096,3.3641,3.394,3.4652,3.5967,3.5982,3.5982,3.5982,3.5982,3.5982,3.5982,3.5942,3.5723,3.5312,3.4883,3.4707,1.8092,1.6926,1.594,1.5525,1.4735,1.397,1.3601,1.2582,1.1667,1.1603,0.0,0.0,0.0,0.0,0.0,0.0,1.3081,1.421,1.2984,1.5559,1.6913,1.5197,1.6228,1.7407,1.8327,1.9412,2.1034,2.3492,2.17,2.1262,2.3025,2.382,2.4252,2.4252,2.5635,2.6386,2.6386,2.6386,2.6386,2.6386,2.6386,2.6386,2.6386,2.6386,2.6386,2.6386,2.6386,2.6386,2.6386,2.6386,2.6386,2.6386,2.6386,2.6386,2.6386,2.6386,2.6386,2.6386,2.6386,2.6386,2.6386,2.6386,2.6386,2.6386,2.6386,2.6386,2.6386,2.6386,2.6386,2.6386,2.6386,2.6386,2.6386,2.6386,2.6386,2.6386,2.6386,2.6386,2.6386,2.6386,2.6386,2.6386,2.6386,2.6386,2.6346,2.6265,2.6252,2.6159,2.6039,2.6026,2.5959,2.5824,2.6553,2.7006,2.6823,2.9678,3.1736,3.2383,3.4553,3.5994,3.6372,3.6406,3.6289,3.6035,3.5982,3.5982,3.5982,3.5982,3.5903,3.5742,3.5566,3.5469,2.0254,1.9452,1.8744,1.8303,1.7271,1.6225,1.5802,1.4473,1.3244,1.2978,1.2472,0.0,0.0,0.0,1.1456,1.1785,0.0,1.3321,1.19,1.3939,1.5565,1.5576,1.6053,1.6977,1.8616,1.9192,2.0337,2.2473,2.1545,2.1898,2.4196,2.5077,2.5518,2.5518,2.6079,2.6386,2.6386,2.6386,2.6386,2.6386,2.6386,2.6386,2.6386,2.6386,2.6386,2.6386,2.6386,2.6386,2.6386,2.6306,2.6266,2.6266,2.6186,2.6146,2.6172,2.6333,2.6386,2.6386,2.6386,2.6386,2.6386,2.6386,2.6386,2.6386,2.6386,2.6386,2.6386,2.6386,2.6386,2.6386,2.6386,2.6386,2.6386,2.6386,2.6386,2.6386,2.6386,2.6386,2.6386,2.6386,2.6386,2.6386,2.6386,2.6386,2.6386,2.6386,2.6386,2.6386,2.6386,2.6386,2.6306,2.6131,2.6612,2.7045,2.7382,3.0543,3.2716,3.3162,3.576,3.7168,3.689,3.6871,3.6699,3.6367,3.6367,3.6309,3.6191,3.6191,3.6133,3.5982,3.5982,3.5982,2.0846,2.0214,1.9746,1.9733,1.9263,1.878,1.8753,1.8061,1.7237,1.6641,1.5181,1.3968,1.3837,1.1662,0.0,0.0,0.0,0.0,0.0,0.8754,1.0446,1.3867,1.5124,1.5982,1.6635,1.5726,1.6745,2.0695,1.9816,2.0687,2.4391,2.5184,2.5518,2.5518,2.6079,2.6386,2.6386,2.6386,2.6386,2.6386,2.6386,2.6386,2.6386,2.6386,2.6386,2.6386,2.6386,2.6386,2.6373,2.6131,2.6011,2.5984,2.5651,2.5545,2.5611,2.6186,2.6386,2.6386,2.6386,2.6386,2.6386,2.6386,2.6386,2.6386,2.6386,2.6386,2.6386,2.6386,2.6386,2.6386,2.6386,2.6386,2.6386,2.6386,2.6386,2.6386,2.6386,2.6386,2.6386,2.6386,2.6386,2.6386,2.6386,2.6386,2.6386,2.6386,2.6386,2.6386,2.6386,2.6386,2.6386,2.6373,2.814,3.0115,3.213,3.4192,3.6018,3.7587,3.7449,3.7285,3.7285,3.7266,3.7266,3.7266,3.7266,3.7051,3.6675,3.6675,3.6426,3.5982,3.5982,3.5982,2.1991,2.183,2.1622,2.0646,2.0552,2.0498,1.9679,1.8971,1.8357,1.7969,1.678,1.5802,1.5753,1.4679,0.0,0.0,0.0,0.0,0.0,1.0536,1.0105,1.1389,0.0,0.0,0.0,1.6787,1.8618,2.2226,2.1571,2.1983,2.4199,2.509,2.5518,2.5518,2.6079,2.6386,2.6386,2.6386,2.6386,2.6386,2.6386,2.6386,2.6386,2.6386,2.6386,2.6373,2.6225,2.6145,2.6118,2.5785,2.5665,2.5651,2.5558,2.5518,2.5558,2.5998,2.6145,2.6172,2.6319,2.6386,2.6386,2.6386,2.6386,2.6386,2.6386,2.6386,2.6386,2.6386,2.6386,2.6386,2.6386,2.6386,2.6386,2.6386,2.6386,2.6386,2.6386,2.6386,2.6386,2.6386,2.6386,2.6386,2.6386,2.6386,2.6386,2.6386,2.6386,2.6386,2.6386,2.6386,2.6386,2.6386,2.7004,2.8232,3.0284,3.3532,3.6331,3.8251,3.8259,3.8008,3.7734,3.7715,3.7578,3.7305,3.7305,3.7226,3.709,3.709,3.7012,3.6875,3.6875,3.6562,2.2873,2.2886,2.2779,2.1756,2.177,2.1796,2.0802,2.0201,1.9773,1.9479,1.8477,1.7742,1.8063,1.6925,0.0,0.0,0.0,0.0,0.0,1.169,1.0728,0.0,0.0,0.0,0.0,0.0,1.8935,2.2375,2.2137,2.2638,2.4419,2.5144,2.5558,2.5665,2.6132,2.6386,2.6386,2.6386,2.6386,2.6386,2.6386,2.6386,2.6386,2.6279,2.6279,2.6265,2.5957,2.5837,2.5824,2.5585,2.5518,2.5518,2.5518,2.5518,2.5531,2.5732,2.5904,2.6024,2.6212,2.6306,2.6386,2.6386,2.6386,2.6386,2.6386,2.6386,2.6386,2.6386,2.6319,2.6305,2.636,2.6319,2.6279,2.6279,2.6319,2.636,2.6305,2.6319,2.6386,2.6386,2.6306,2.6305,2.6373,2.6306,2.6266,2.6373,2.6386,2.6386,2.6386,2.6386,2.6386,2.6386,2.6386,2.7502,3.0284,3.357,3.6386,3.8465,3.8611,3.8457,3.8164,3.8164,3.8027,3.7754,3.7754,3.7676,3.7519,3.7519,3.7441,3.7305,3.7305,3.6992]},{"header":{"parameterUnit":"m.s-1","parameterCategory":1,"la1":30.6,"la2":29.2853,"lo1":-89.7004,"lo2":-87.6739,"dx":0.0162,"dy":0.0183,"nx":112,"ny":82,"refTime":"2022-11-03T06:00:00:Z","depth":0,"parameterNumber":3,"parameterNumberName":"V-component_of_WINDS"},"data":[0.0,0.0,0.0,0.0,0.0,0.0,0.0,0.0,0.0,0.0,0.0,0.0,0.0,0.0,0.0,0.0,0.0,0.0,0.0,0.0,0.0,0.0,0.0,0.0,0.0,0.0,0.0,0.0,0.0,0.0,0.0,0.0,0.0,0.0,0.0,0.0,0.0,0.0,0.0,0.0,0.0,0.0,0.0,0.0,0.0,0.0,0.0,0.0,0.0,0.0,0.0,0.0,0.0,0.0,0.0,0.0,0.0,0.0,0.0,0.0,0.0,0.0,0.0,0.0,0.0,0.0,0.0,0.0,0.0,0.0,0.0,0.0,0.0,0.0,0.0,0.0,0.0,0.0,0.0,0.0,0.0,0.0,0.0,0.0,0.0,0.0,0.0,0.0,0.0,0.0,1.6007,1.4785,1.3944,1.2944,1.165,0.9836,0.9063,0.9729,0.0,0.0,0.0,0.0,0.0,0.0,0.0,0.0,0.0,0.0,0.0,0.0,0.0,0.0,0.0,0.0,0.0,0.0,0.0,0.0,0.0,0.0,0.0,0.0,0.0,0.0,0.0,0.0,0.0,0.0,0.0,0.0,0.0,0.0,0.0,0.0,0.0,0.0,0.0,0.0,0.0,0.0,0.0,0.0,0.0,0.0,0.0,0.0,0.0,0.0,0.0,0.0,0.0,0.0,0.0,0.0,0.0,0.0,0.0,0.0,0.0,0.0,0.0,0.0,0.0,0.0,0.0,0.0,0.0,0.0,0.0,0.0,0.0,0.0,0.0,0.0,0.0,0.0,0.0,0.0,0.0,0.0,0.0,0.0,0.0,0.0,0.0,0.0,0.0,0.0,0.0,0.0,0.0,0.0,0.0,0.0,0.0,0.0,0.0,0.0,0.0,0.0,0.0,0.0,1.5602,1.2625,1.2376,1.1726,1.0014,0.9114,0.8542,0.8323,0.0,0.0,0.0,0.0,0.0,0.0,0.0,0.0,0.0,0.0,0.0,0.0,0.0,0.0,0.0,0.0,0.0,0.0,0.0,0.0,0.0,0.0,0.0,0.0,0.0,0.0,0.0,0.0,0.0,0.0,0.0,0.0,0.0,0.0,0.0,0.0,0.0,0.0,0.0,0.0,0.0,0.0,0.0,0.0,0.0,0.0,0.0,0.0,0.0,0.0,0.0,0.0,0.0,0.0,0.0,0.0,0.0,0.0,0.0,0.0,0.0,0.0,0.0,0.0,0.0,0.0,0.0,0.0,0.0,0.0,0.0,0.0,0.0,0.0,0.0,0.0,0.0,0.0,0.0,0.0,0.0,0.0,0.0,0.0,0.0,0.0,0.0,0.0,0.0,0.0,0.0,0.0,0.0,0.0,0.0,0.0,0.0,0.0,0.0,0.0,0.0,0.0,0.0,1.4677,1.3542,1.1583,1.1246,1.0891,1.0165,0.9414,0.8617,0.7727,0.6172,0.0,0.0,0.0,0.0,0.0,0.0,0.0,0.0,0.0,0.0,0.0,0.0,0.0,0.0,0.0,0.0,0.0,0.0,0.0,0.0,0.0,0.0,0.0,0.0,0.0,0.0,0.0,0.0,0.0,0.0,0.0,0.0,0.0,0.0,0.0,0.0,0.0,0.0,0.0,0.0,0.0,0.0,0.0,0.0,0.0,0.0,0.0,0.0,0.0,0.0,0.0,0.0,0.0,0.0,0.0,0.0,0.0,0.0,0.0,0.0,0.0,0.0,0.0,0.0,0.0,0.0,0.0,0.0,0.0,0.0,0.0,0.0,0.0,0.0,0.0,0.0,0.0,0.0,0.0,0.0,0.0,0.0,0.0,0.0,0.0,0.0,0.0,0.0,0.0,0.0,0.0,0.0,0.0,0.0,0.0,0.0,0.0,0.0,0.0,0.0,0.0,0.0,1.3377,1.1431,1.0764,1.0214,0.9845,0.9717,0.8552,0.7416,0.6449,0.5255,0.0,0.0,0.0,0.0,0.0,0.0,0.0,0.0,0.0,0.0,0.0,0.0,0.0,0.0,0.0,0.0,0.0,0.0,0.0,0.0,0.0,0.0,0.0,0.0,0.0,0.0,0.0,0.0,0.0,0.0,0.0,0.0,0.0,0.0,0.0,0.0,0.0,0.0,0.0,0.0,0.0,0.0,0.0,0.0,0.0,0.0,0.0,0.0,0.0,0.0,0.0,0.0,0.0,0.0,0.0,0.0,0.0,0.0,0.0,0.0,0.0,0.0,0.0,0.0,0.0,0.0,0.0,0.0,0.0,0.0,0.0,0.0,0.0,0.0,0.0,0.0,0.0,0.0,0.0,0.0,0.0,0.0,0.0,0.0,0.0,0.0,0.0,0.0,0.0,0.0,0.0,0.0,0.0,0.0,0.0,0.0,0.0,0.0,0.0,0.0,0.0,0.0,1.265,1.0129,0.9837,0.9138,0.8268,0.7171,0.4901,0.3498,0.341,0.4332,0.0,0.0,0.0,0.0,0.0,0.0,0.0,0.0,0.0,0.0,0.0,0.0,0.0,0.0,0.0,0.0,0.0,0.0,0.0,0.0,0.0,0.0,0.0,0.0,0.0,0.0,0.0,0.0,0.0,0.0,0.0,0.0,0.0,0.0,0.0,0.0,0.0,0.0,0.0,0.0,0.0,0.0,0.0,0.0,0.0,0.0,0.0,0.0,0.0,0.0,0.0,0.0,0.0,0.0,0.0,0.0,0.0,0.0,0.0,0.0,0.0,0.0,0.0,0.0,0.0,0.0,0.0,0.0,0.0,0.0,0.0,0.0,0.0,0.0,0.0,0.0,0.0,0.0,0.0,0.0,0.0,0.0,0.0,0.0,0.0,0.0,0.0,0.0,0.0,0.0,0.0,0.0,0.0,0.0,0.0,0.0,0.0,0.0,0.0,0.0,0.0,0.0,1.3521,1.1205,0.9847,0.8362,0.6764,0.496,0.2574,0.1712,0.3013,0.0,0.0,0.0,0.0,0.0,0.0,0.0,0.0,0.0,0.0,0.0,0.0,0.0,0.0,0.0,0.0,0.0,0.0,0.0,0.0,0.0,0.0,0.0,0.0,0.0,0.0,0.0,0.0,0.0,0.0,0.0,0.0,0.0,0.0,0.0,0.0,0.0,0.0,0.0,0.0,0.0,0.0,0.0,0.0,0.0,0.0,0.0,0.0,0.0,0.0,0.0,0.0,0.0,0.0,0.0,0.0,0.0,0.0,0.0,0.0,0.0,0.0,0.0,0.0,0.0,0.0,0.0,0.0,0.0,0.0,0.0,0.0,0.0,0.0,0.0,0.0,0.0,0.0,0.0,0.0,0.0,0.0,0.0,0.0,0.0,0.0,0.0,0.0,0.0,0.0,0.0,0.0,0.0,0.0,0.0,0.0,0.0,0.0,0.0,0.0,0.0,0.0,1.5969,1.3916,1.1732,0.9898,0.8016,0.6272,0.4736,0.1781,0.0857,0.2851,0.0,0.0,0.0,0.0,0.0,0.0,0.0,0.0,0.0,0.0,0.0,0.0,0.0,0.0,0.0,0.0,0.0,0.0,0.0,0.0,0.0,0.0,0.0,0.0,0.0,0.0,0.0,0.0,0.0,0.0,0.0,0.0,0.0,0.0,0.0,0.0,0.0,0.0,0.0,0.0,0.0,0.0,0.0,0.0,0.0,0.0,0.0,0.0,0.0,0.0,0.0,0.0,0.0,0.0,0.0,0.0,0.0,0.0,0.0,0.0,0.0,0.0,0.0,0.0,0.0,0.0,0.0,0.0,0.0,0.0,0.0,0.0,0.0,0.0,0.0,0.0,0.0,0.0,0.0,0.0,0.0,0.0,0.0,0.0,0.0,0.0,0.0,0.0,0.0,0.0,0.0,0.0,0.0,0.0,0.0,0.0,0.0,0.0,0.0,0.0,0.0,0.0,1.5961,1.3602,1.1276,0.9878,0.8171,0.7042,0.6812,0.2673,0.0834,0.0,0.0,0.0,0.0,0.0,0.0,0.0,0.0,0.0,0.0,0.0,0.0,0.0,0.0,0.0,0.0,0.0,0.0,0.0,0.0,0.0,0.0,0.0,0.0,0.0,0.0,0.0,0.0,0.0,0.0,0.0,0.0,0.0,0.0,0.0,0.0,0.0,0.0,0.0,0.0,0.0,0.0,0.0,0.0,0.0,0.0,0.0,0.0,0.0,0.0,0.0,0.0,0.0,0.0,0.0,0.0,0.0,0.0,0.0,0.0,0.0,0.0,0.0,0.0,0.0,0.0,0.0,0.0,0.0,0.0,0.0,0.0,0.0,0.0,0.0,0.0,0.0,0.0,0.0,0.0,0.0,0.0,0.0,0.0,0.0,0.0,0.0,0.0,0.0,0.0,0.0,0.0,0.0,0.0,0.0,0.0,0.0,0.0,0.0,0.0,0.0,0.0,0.0,1.6522,1.4544,1.2478,1.1101,1.0125,0.8871,0.7154,0.5563,0.4092,0.2774,0.0,0.0,0.0,0.0,0.0,0.0,0.0,0.0,0.0,0.0,0.0,0.0,0.0,0.0,0.0,0.0,0.0,0.0,0.0,0.0,0.0,0.0,0.0,0.0,0.0,0.0,0.0,0.0,0.0,0.0,0.0,0.0,0.0,0.0,0.0,0.0,0.0,0.0,0.0,0.0,0.0,0.0,0.0,0.0,0.0,0.0,0.0,0.0,0.0,0.0,0.0,0.0,0.0,0.0,0.0,0.0,0.0,0.0,0.0,0.0,0.0,0.0,0.0,0.0,0.0,0.0,0.0,0.0,0.0,0.0,0.0,0.0,0.0,0.0,0.0,0.0,0.0,0.0,0.0,0.0,0.0,0.0,0.0,0.0,0.0,0.0,0.0,0.0,0.0,0.0,0.0,0.0,0.0,0.0,0.0,0.0,0.0,0.0,0.0,0.0,0.0,0.0,1.7063,1.5479,1.3683,1.2213,1.1171,0.9828,0.7891,0.7088,0.5964,0.4312,0.0,0.0,0.0,0.0,0.0,0.0,0.0,0.0,0.0,0.0,0.0,0.0,0.0,0.0,0.0,0.0,0.0,0.0,0.0,0.0,0.0,0.0,0.0,0.0,0.0,0.0,0.0,0.0,0.0,0.0,0.0,0.0,0.0,0.0,0.0,0.0,0.0,0.0,0.0,0.0,0.0,0.0,0.0,0.0,0.0,0.0,0.0,0.0,0.0,0.0,0.0,0.0,0.0,0.0,0.0,0.0,0.0,0.0,0.0,0.0,0.0,0.0,0.0,0.0,0.0,0.0,0.0,0.0,0.0,0.0,0.0,0.0,0.0,0.0,0.0,0.0,0.0,0.0,0.0,0.0,0.0,0.0,0.0,0.0,0.0,0.0,0.0,0.0,0.0,0.0,0.0,0.0,0.0,0.0,0.0,0.0,0.0,0.0,0.0,0.0,0.0,0.0,1.7618,1.6411,1.4937,1.3296,1.1808,1.0353,0.898,0.7714,0.6846,0.6525,0.0,0.0,0.0,0.0,0.0,0.0,0.0,0.0,0.0,0.0,0.0,0.0,0.0,0.0,0.0,0.0,0.0,0.0,0.0,0.0,0.0,0.0,0.0,0.0,0.0,0.0,0.0,0.0,0.0,0.0,0.0,0.0,0.0,0.0,0.0,0.0,0.0,0.0,0.0,0.0,0.0,0.0,0.0,0.0,0.0,0.0,0.0,0.0,0.0,0.0,0.0,0.0,0.0,0.0,0.0,0.0,0.0,0.0,0.0,0.0,2.5199,2.3446,0.0,0.0,0.0,0.0,0.0,0.0,0.0,0.0,0.0,0.0,0.0,0.0,0.0,0.0,0.0,0.0,0.0,0.0,0.0,0.0,0.0,0.0,0.0,0.0,0.0,0.0,0.0,0.0,0.0,0.0,0.0,0.0,0.0,0.0,0.0,0.0,0.0,0.0,0.0,0.0,1.8691,1.7532,1.6171,1.4905,1.3877,1.2445,1.0373,0.9041,0.777,0.6565,0.6067,0.0,0.0,0.0,0.0,0.0,0.0,0.0,0.0,0.0,0.0,0.0,0.0,0.0,0.0,0.0,0.0,0.0,0.0,0.0,0.0,0.0,0.0,0.0,0.0,0.0,0.0,0.0,0.0,0.0,0.0,0.0,0.0,0.0,0.0,0.0,0.0,0.0,0.0,0.0,0.0,0.0,0.0,0.0,0.0,0.0,0.0,0.0,0.0,0.0,0.0,0.0,0.0,0.0,0.0,0.0,0.0,0.0,0.0,0.0,2.772,2.5777,0.0,0.0,0.0,0.0,0.0,0.0,0.0,0.0,0.0,0.0,0.0,0.0,0.0,0.0,0.0,0.0,0.0,0.0,0.0,0.0,0.0,0.0,0.0,0.0,0.0,0.0,0.0,0.0,0.0,0.0,0.0,0.0,0.0,0.0,0.0,0.0,0.0,0.0,0.0,0.0,1.9667,1.8333,1.7005,1.6075,1.4783,1.3083,1.08,0.9435,0.8164,0.686,0.6444,0.0,0.0,0.0,0.0,0.0,0.0,0.0,0.0,0.0,0.0,0.0,0.0,0.0,0.0,0.0,0.0,0.0,0.0,0.0,0.0,0.0,0.0,0.0,0.0,0.0,0.0,0.0,0.0,0.0,0.0,0.0,0.0,0.0,0.0,0.0,0.0,0.0,0.0,0.0,0.0,0.0,0.0,0.0,0.0,0.0,0.0,0.0,0.0,0.0,0.0,0.0,0.0,0.0,3.0658,3.1295,3.1299,3.2002,3.278,3.3401,2.9817,2.801,2.7473,2.6985,0.0,0.0,0.0,0.0,0.0,0.0,0.0,0.0,0.0,0.0,0.0,0.0,0.0,0.0,0.0,0.0,0.0,0.0,0.0,0.0,0.0,0.0,2.868,2.9967,2.957,2.8693,2.7903,0.0,0.0,0.0,0.0,0.0,0.0,0.0,0.0,0.0,0.0,0.0,2.0501,1.9249,1.7962,1.6917,1.5466,1.3576,1.1101,0.9933,0.885,0.7745,0.7367,0.7024,0.0,0.0,0.0,0.0,0.0,0.0,0.0,0.0,0.0,0.0,0.0,0.0,0.0,0.0,0.0,0.0,0.0,0.0,0.0,0.0,0.0,0.0,0.0,0.0,0.0,0.0,0.0,0.0,0.0,0.0,0.0,0.0,2.0994,2.1062,0.0,0.0,0.0,0.0,0.0,0.0,0.0,0.0,0.0,0.0,0.0,0.0,0.0,2.8852,2.9489,3.0688,3.1534,3.2069,3.2457,3.2562,3.2412,3.2687,3.2798,3.2756,3.236,0.0,3.1904,3.0261,0.0,0.0,0.0,0.0,0.0,0.0,0.0,0.0,0.0,0.0,0.0,0.0,0.0,0.0,0.0,0.0,0.0,0.0,0.0,0.0,0.0,0.0,3.2876,3.2617,3.2979,3.3173,3.2485,2.9275,2.6751,2.74,2.5787,2.4204,0.0,0.0,0.0,0.0,0.0,0.0,2.1116,2.0921,1.9959,1.75,1.7017,1.5563,1.2343,1.1925,1.1304,1.0028,0.9919,0.9745,0.9408,0.8311,0.0,0.0,0.0,0.0,0.0,0.0,0.0,0.0,0.0,0.0,0.0,0.0,0.0,0.0,0.0,0.0,0.0,0.0,0.0,0.0,0.0,0.0,0.0,0.0,0.0,0.0,0.0,0.0,0.0,2.115,2.2555,2.3363,2.3573,2.3808,0.0,0.0,0.0,0.0,0.0,0.0,0.0,0.0,0.0,2.9426,3.0198,3.0896,3.1628,3.2625,3.3243,3.352,3.4089,3.4312,3.4245,3.4316,3.4312,3.4245,3.4319,3.4369,3.4298,3.2521,3.1339,3.0538,0.0,0.0,0.0,0.0,2.9033,2.9156,3.0098,3.0372,3.0361,3.0376,0.0,0.0,0.0,0.0,0.0,0.0,0.0,3.0621,3.1703,3.2326,3.2821,3.3532,3.3128,3.2785,3.3424,3.129,2.9455,3.0032,2.8216,2.69,2.7879,2.6903,0.0,0.0,0.0,2.4212,2.3561,2.2752,2.1418,1.9263,1.9043,1.7717,1.4428,1.3597,1.2726,1.1501,1.1016,1.0614,1.0202,0.9716,0.948,0.0,0.0,0.0,0.0,0.0,0.0,0.0,0.0,0.0,0.0,0.0,0.0,0.0,0.0,0.0,0.0,0.0,0.0,0.0,0.0,0.0,0.0,0.0,0.0,0.0,0.0,0.0,0.0,2.3326,2.4663,2.6212,2.6518,2.6613,0.0,0.0,0.0,0.0,0.0,0.0,2.9737,2.997,3.0663,3.1968,3.2237,3.2622,3.324,3.4087,3.4548,3.4548,3.5196,3.55,3.55,3.55,3.55,3.55,3.55,3.5524,3.5475,3.4013,3.3033,3.2452,3.2295,3.1869,3.1388,3.1651,3.1768,3.1841,3.2849,3.3123,3.3117,3.3163,3.3867,3.4568,3.3861,0.0,0.0,0.0,0.0,3.2184,3.2877,3.2812,3.2814,3.385,3.3044,3.2319,3.3399,3.2585,3.1696,3.1934,3.0056,2.8967,3.064,2.9131,0.0,2.8877,2.7299,2.5959,2.5758,2.4567,2.3086,2.1322,2.0679,1.9304,1.6641,1.5209,1.4058,1.3159,1.2323,1.1717,1.1362,1.1227,1.114,1.1125,0.0,0.0,0.0,0.0,0.0,0.0,0.0,0.0,0.0,0.0,0.0,0.0,0.0,0.0,0.0,0.0,0.0,0.0,0.0,0.0,0.0,0.0,0.0,0.0,0.0,0.0,0.0,0.0,0.0,2.9914,3.0148,0.0,0.0,0.0,0.0,2.9047,3.0541,3.1538,3.158,3.2275,3.2737,3.2852,3.3625,3.4087,3.4125,3.5003,3.5423,3.5423,3.5462,3.55,3.55,3.55,3.55,3.55,3.55,3.5524,3.5511,3.4626,3.4273,3.4288,3.3441,3.3134,3.3254,3.4116,3.4444,3.4609,3.5508,3.582,3.5781,3.582,3.5269,3.458,3.4483,3.3815,0.0,0.0,3.409,3.4145,3.4515,3.4562,3.4443,3.3954,3.3747,3.3609,3.3292,3.2822,3.2439,3.245,3.0783,2.9557,3.0291,0.0,2.8512,2.8434,2.88,2.8494,2.6833,2.6346,2.5338,2.3284,2.1473,1.9926,1.8735,1.6782,1.5593,1.5516,1.4531,1.3947,1.3907,1.312,1.2811,1.3061,1.1964,0.0,0.0,0.0,0.0,0.0,0.0,0.0,0.0,0.0,0.0,0.0,0.0,0.0,0.0,0.0,0.0,0.0,0.0,0.0,0.0,0.0,0.0,0.0,0.0,0.0,0.0,0.0,0.0,3.0346,3.1349,0.0,3.2003,3.2506,3.2468,3.1625,3.2625,3.3317,3.3317,3.3587,3.4007,3.4542,3.4888,3.5042,3.5042,3.5346,3.55,3.55,3.55,3.55,3.55,3.55,3.5525,3.5548,3.5548,3.564,3.5758,3.5448,3.5347,3.5374,3.5095,3.5031,3.5075,3.5388,3.5507,3.5586,3.5898,3.6016,3.6094,3.6641,3.6601,3.6439,3.6873,3.6342,3.5665,3.5885,3.5373,3.482,3.4927,3.4675,3.4304,3.4117,3.3935,3.3675,3.3306,3.2842,3.24,3.21,3.0923,3.0467,3.2071,3.0576,2.9589,3.0797,3.0014,2.9033,2.8294,2.7607,2.6459,2.4572,2.318,2.1993,2.0948,1.8984,1.7819,1.7819,1.6988,1.6375,1.618,1.6058,1.5647,1.4834,1.4241,1.3369,0.0,0.0,0.0,0.0,0.0,0.0,0.0,0.0,0.0,0.0,0.0,0.0,0.0,0.0,0.0,0.0,0.0,0.0,0.0,0.0,0.0,0.0,0.0,0.0,0.0,2.9154,3.0731,3.158,3.266,3.3356,3.3356,3.4122,3.4276,3.3394,3.416,3.4622,3.4622,3.4622,3.4891,3.5462,3.55,3.55,3.55,3.55,3.55,3.55,3.5769,3.5885,3.5923,3.6196,3.6373,3.6487,3.6487,3.6427,3.6332,3.6332,3.6184,3.5924,3.5975,3.6016,3.6016,3.6016,3.6016,3.6016,3.6016,3.6016,3.6094,3.668,3.6835,3.6906,3.734,3.704,3.6515,3.6463,3.5867,3.5194,3.5008,3.4675,3.4335,3.4123,3.3935,3.3746,3.3465,3.3052,3.2582,3.2127,3.1104,3.0815,3.2415,3.0915,3.0059,3.1786,3.0731,2.974,2.9848,2.9097,2.7995,2.651,2.5204,2.4062,2.308,2.0974,1.9642,1.9492,1.8466,1.7709,1.731,1.775,1.7518,1.6485,1.5919,1.4854,1.3239,0.0,0.0,0.0,0.0,0.0,0.0,0.0,0.0,0.0,0.0,0.0,0.0,0.0,0.0,0.0,0.0,0.0,0.0,0.0,0.0,0.0,0.0,0.0,3.1699,3.1018,3.1441,3.3904,3.4218,3.4254,3.4244,3.501,3.5164,3.4327,3.5013,3.551,3.5517,3.551,3.551,3.5517,3.5545,3.5542,3.5545,3.558,3.5577,3.5577,3.6385,3.6734,3.6773,3.7626,3.8086,3.821,3.8213,3.7841,3.7234,3.7234,3.6785,3.6094,3.6016,3.6016,3.6016,3.6016,3.6016,3.6055,3.6055,3.6094,3.6094,3.6094,3.6046,3.5931,3.5825,3.5726,3.5676,3.5589,3.5577,3.5453,3.4936,3.4793,3.461,3.4028,3.3887,3.3874,3.3867,3.3553,3.3132,3.268,3.1397,3.0572,3.1199,3.0313,2.9949,3.1173,3.0857,0.0,3.1362,3.0777,2.998,2.9125,2.7409,2.5995,2.5141,2.27,2.0997,2.0526,1.9001,1.7924,1.7472,1.8095,1.8332,1.8046,1.6911,1.561,1.4158,0.0,0.0,0.0,0.0,0.0,0.0,0.0,0.0,0.0,0.0,0.0,0.0,0.0,0.0,0.0,0.0,0.0,0.0,0.0,0.0,0.0,3.1077,3.1654,3.1073,3.2351,3.36,3.4195,3.4851,3.526,3.5146,3.5385,3.5452,3.5223,3.5452,3.5576,3.5633,3.5586,3.5578,3.5635,3.6134,3.6411,3.6493,3.7031,3.7311,3.7315,3.7546,3.7623,3.7665,3.8,3.8177,3.8299,3.833,3.8282,3.8201,3.8201,3.8085,3.7773,3.6484,3.6016,3.6016,3.6016,3.6406,3.7031,3.7656,3.7891,3.7851,3.7759,3.7743,3.7676,3.7484,3.7433,3.7411,3.7326,3.7311,3.7218,3.6813,3.6598,3.6356,3.5975,3.5756,3.5534,3.5196,3.5015,3.4819,3.4318,3.3224,3.2095,3.1335,3.0595,3.0209,3.0604,3.0584,3.0351,2.9958,3.013,3.0138,2.9771,2.8028,2.6797,2.6604,2.4645,2.3186,2.2672,2.1549,2.0838,2.07,2.025,1.9589,1.8738,1.7276,1.6189,0.0,0.0,0.0,0.0,0.0,0.0,0.0,0.0,0.0,0.0,0.0,0.0,0.0,0.0,0.0,0.0,0.0,0.0,0.0,0.0,0.0,0.0,3.2842,3.3301,3.2504,3.3594,3.4583,3.4867,3.5381,3.5679,3.557,3.5628,3.5633,3.5633,3.5633,3.5818,3.6232,3.6219,3.637,3.6782,3.7165,3.7398,3.7453,3.787,3.8053,3.8007,3.8354,3.8555,3.8598,3.9042,3.9305,3.9444,3.9482,3.9361,3.9141,3.9141,3.8945,3.8516,0.0,0.0,0.0,0.0,3.7422,3.793,3.8437,3.8594,3.8594,3.8507,3.844,3.8344,3.8229,3.8106,3.8061,3.7998,3.8007,3.7901,3.7457,3.7217,3.6991,3.6617,3.6422,3.6216,3.5964,3.5882,3.5766,3.5291,3.4438,0.0,3.2603,3.1257,3.0412,3.0744,3.0385,3.0085,3.0187,3.0307,3.0306,3.0155,2.9105,2.8156,2.7473,2.617,0.0,0.0,0.0,2.2102,2.1679,2.1154,0.0,0.0,0.0,1.7669,1.6986,1.5915,0.0,0.0,1.2647,1.1885,0.0,0.0,0.0,0.0,0.0,0.0,0.0,0.0,0.0,0.0,0.0,0.0,0.0,0.0,0.0,0.0,3.4351,3.5686,3.5078,3.489,3.5055,3.5663,3.5827,3.5864,3.5845,3.5929,3.6013,3.6013,3.6013,3.6331,3.7124,3.7155,0.0,0.0,0.0,3.8426,3.8365,3.8466,3.8426,3.8345,3.9115,3.9512,3.9577,4.0358,4.0837,4.1016,4.1021,4.0652,4.0039,4.0039,3.9609,3.8867,3.8672,3.8594,3.8594,3.8711,3.875,3.875,3.8867,0.0,0.0,3.8866,3.8711,3.8562,3.8533,3.8402,3.8277,3.8277,3.8277,3.8151,3.7586,3.7451,3.7303,3.674,3.6632,3.6618,3.6574,3.656,3.6465,3.6028,3.5445,3.4889,3.4479,3.2324,3.0835,3.1353,3.0532,3.0217,3.1266,3.0945,3.0592,3.0539,3.046,0.0,2.8227,2.7481,2.6551,2.537,2.3723,2.2336,2.1332,2.1192,2.0803,2.009,1.9979,1.9424,1.8336,1.7333,1.6837,1.6778,1.4147,1.2974,0.0,0.0,0.0,0.0,0.0,0.0,0.0,0.0,0.0,0.0,0.0,0.0,0.0,0.0,0.0,3.4154,3.5188,3.6171,3.6719,3.6756,3.6551,3.5932,3.6545,3.6932,3.6758,3.7425,3.7883,3.7883,3.7883,3.8017,3.8276,3.8177,3.8252,3.851,3.9068,3.9375,3.9418,4.0015,4.0274,4.0249,4.0444,0.0,4.0559,4.0833,4.0955,4.1017,4.1126,4.1093,4.0937,4.0937,4.0859,4.0547,3.9141,3.8594,3.8672,3.9375,3.9648,3.9766,4.0469,4.0703,4.0663,4.0444,4.0342,4.028,4.0127,4.0033,0.0,4.0012,4.0012,3.9957,3.9595,3.9513,3.938,3.8705,3.8546,3.8493,3.8279,3.8248,3.8226,3.812,3.7205,3.6259,3.5738,3.4061,3.2678,3.232,3.2038,3.177,3.1586,3.1389,3.1442,3.202,3.1401,3.0846,3.0539,2.9086,2.7901,2.7229,2.4767,2.2899,2.1899,2.1111,2.0644,2.0505,1.9844,1.9395,1.9167,1.8621,1.8372,1.8306,1.5956,1.4868,0.0,0.0,0.0,0.0,0.0,0.0,0.0,0.0,0.0,0.0,0.0,3.3223,3.326,0.0,3.5407,3.5852,3.6327,3.6953,3.7812,3.7969,3.7773,3.7297,3.7655,3.7927,3.7824,3.8227,3.8507,3.8507,3.8507,3.8707,3.9219,3.9176,3.9371,3.9883,4.0219,4.0392,4.035,4.071,4.0867,4.0819,4.0819,4.0845,4.0889,4.0963,4.1028,4.1084,4.1171,4.1211,4.1211,4.1211,4.1211,4.1094,4.0234,3.9883,3.9961,4.0391,4.0547,4.0625,4.1055,4.117,4.1079,4.0951,4.0826,4.0742,4.063,4.0552,4.0516,4.0516,4.0516,4.0426,4.0186,4.012,3.9982,3.9462,3.9346,3.9251,3.8961,3.8913,3.8855,3.8727,3.7964,3.7197,3.6682,3.5665,3.4446,3.3136,3.2674,3.2473,3.2552,3.2552,3.2685,3.2959,3.293,3.2435,3.1299,2.9291,2.7783,2.7034,2.528,2.38,2.2784,2.2301,2.1813,2.1317,2.0898,2.058,2.0304,1.9685,1.9513,1.9702,1.8182,1.7131,0.0,0.0,0.0,0.0,0.0,0.0,0.0,3.2589,3.3631,3.3701,3.4446,3.5041,3.5095,3.584,3.6666,3.7422,3.7539,3.7851,3.8711,3.8867,3.8906,3.9101,3.8945,3.8867,3.8867,3.9023,3.9101,3.9101,3.9101,3.9414,4.0117,4.0156,4.0469,4.1172,4.1211,4.1169,4.103,4.1029,4.0969,4.0874,4.0874,4.0946,4.1029,4.1029,4.1083,4.1211,4.1211,4.1211,4.1211,4.1211,4.1211,4.1211,4.1211,4.1211,4.1211,4.1211,4.1211,4.1211,4.1171,4.1082,4.0972,4.0948,4.0837,4.0692,4.0661,4.0598,4.0516,4.0516,4.0516,4.0438,4.0246,4.0196,4.0091,3.9781,3.9709,3.9574,3.9179,3.9087,3.9015,3.8765,3.834,3.7885,3.7415,3.6981,3.6051,3.4115,3.3283,3.3071,3.3637,3.3799,3.3835,3.3748,3.4328,3.38,3.1579,2.9658,2.8193,2.7258,2.638,2.5427,2.4434,2.4214,2.3642,2.2632,2.2613,2.2464,2.213,2.132,2.1187,2.164,2.0822,1.9616,3.2766,3.2106,3.1959,3.3281,3.3812,3.4214,0.0,3.5284,3.5446,3.5657,3.6312,3.6926,3.6991,3.7695,3.832,3.8437,3.8437,3.875,3.9648,3.9766,4.0039,4.082,4.0234,3.9766,3.9766,4.0469,4.0898,4.0898,4.0898,4.0937,4.1055,4.1055,4.1094,4.1211,4.1211,4.1172,4.1171,4.1171,4.1171,4.117,4.117,4.117,4.1171,4.1171,4.1172,4.1211,4.1211,4.1211,4.1211,4.1211,4.1211,4.1211,4.1211,4.1211,4.1211,4.1211,4.1211,4.1171,4.1075,4.102,4.0959,4.0788,4.0726,4.0674,4.0559,4.0492,4.0516,4.0516,4.0516,4.0469,4.0446,4.048,4.0385,4.0101,4.0037,3.9856,3.9231,3.9087,3.9015,3.8765,3.8643,3.8449,3.7902,3.7772,3.7205,3.5583,3.4755,3.4331,3.4445,3.449,3.4525,3.4545,3.4666,3.3982,3.2262,3.1856,3.1346,3.0527,2.9539,2.8559,2.7612,2.6742,2.5817,2.4867,2.4847,2.5052,2.5462,2.4659,2.453,2.5029,2.4227,2.2399,3.4711,3.4265,3.4032,3.4173,3.4947,3.5691,3.5643,3.646,3.7235,3.7359,3.7725,3.8004,3.8047,3.8359,3.8789,3.9258,3.9375,3.9648,4.0547,4.0664,4.0781,4.1172,4.0898,4.0664,4.0664,4.0976,4.1211,4.1211,4.1211,4.1211,4.1211,4.1641,4.1914,4.1914,4.2383,4.2891,4.3398,4.3398,4.3398,4.3398,4.3398,4.3164,4.2656,4.2656,4.2656,4.2656,4.2656,4.2656,4.2656,4.2656,4.2656,4.2656,4.2656,4.2656,4.2539,4.1562,4.1169,4.1078,4.1022,4.0925,4.0814,4.074,4.0636,4.0581,4.05,4.0516,4.0516,4.0516,4.0516,4.0516,4.0516,4.0516,4.0454,4.036,4.0334,4.0208,3.9786,3.9516,3.9283,3.8997,3.8811,3.852,3.8006,3.7893,3.7605,3.6666,3.5994,3.5512,3.5215,3.5592,3.6043,3.647,3.5735,3.4937,3.4242,3.2965,3.206,3.1736,3.086,2.9918,2.8958,2.8497,2.7575,2.6041,2.6026,2.6131,2.635,2.5999,2.5914,2.5989,2.5663,2.4602,3.6386,3.6284,3.6183,3.5494,3.6267,3.7019,3.6496,3.7389,3.835,3.8446,3.8702,3.8904,3.8945,3.9141,3.9531,4.0156,4.0273,4.0547,4.1406,4.1523,4.1601,4.1875,4.1875,4.1875,4.1875,4.168,4.1641,4.1875,4.1875,4.1875,4.1875,4.2422,4.2773,4.2773,4.3359,4.4101,4.5,4.4766,4.4883,4.5351,4.4883,4.4453,4.4062,4.3828,4.3711,4.3711,4.3711,4.3711,4.3711,4.3711,4.3711,4.3711,4.3711,4.3711,4.3555,4.2344,4.1828,4.1712,4.1634,4.1522,4.1385,4.1377,4.1124,4.0858,4.0858,4.0704,4.0516,4.0516,4.0516,4.0516,4.0516,4.0516,4.0516,4.0516,4.0516,4.0418,4.0177,3.9829,3.9492,3.916,3.8891,3.8588,3.8173,3.8115,3.7964,3.746,3.7068,3.6565,3.5909,3.6571,3.7299,3.7748,3.702,3.6345,3.5901,3.436,3.3336,3.3109,3.2545,3.1769,3.0779,3.0727,2.9838,2.7927,2.7871,2.7893,2.7921,2.7591,2.7485,2.7632,2.6958,2.6346,3.8015,3.8117,3.8204,3.8163,3.827,3.8359,3.8322,3.8362,3.8414,3.8554,3.917,3.9707,3.9843,4.0547,4.1133,4.1172,4.1172,4.1445,4.2266,4.2344,4.2695,4.3516,4.3633,4.3633,4.3633,4.2851,4.2695,4.3555,4.3633,4.3633,4.3633,4.3633,4.3672,4.3672,4.3672,4.4101,4.5,4.4141,4.4609,4.625,4.4531,4.418,4.4922,4.4101,4.3711,4.3711,4.3711,4.3711,4.3711,4.3711,4.3711,4.3711,4.3711,4.3711,4.3672,4.3633,4.3585,4.3491,4.3208,4.3137,4.3102,4.3042,4.2435,4.1773,4.1773,4.1162,4.0516,4.0516,4.0516,4.0516,4.0516,4.0516,4.0516,4.0516,4.0516,4.0418,4.0177,3.9829,3.9492,3.916,3.8891,3.8681,3.8666,3.8666,3.8488,3.7981,3.7859,3.7506,3.6508,3.7251,3.7858,3.7814,3.8413,3.8195,3.6706,3.6523,3.6151,3.5446,3.5365,3.4925,3.3904,3.3853,3.2979,3.1096,3.1058,3.1131,3.1254,3.0091,3.0045,3.0998,2.866,2.7558,3.8205,3.8266,3.8364,3.8317,3.8754,3.9203,3.9203,3.9665,4.0123,4.0175,4.089,4.1521,4.1562,4.1797,4.1992,4.1992,4.1562,4.1484,4.2305,4.2383,4.2734,4.3594,4.3711,4.3945,4.4492,4.3789,4.3398,4.3672,4.3711,4.3711,4.3711,4.4258,4.457,4.457,4.5117,4.6133,4.7578,4.7305,4.7422,4.8008,4.625,4.5586,4.5859,4.5547,4.543,4.543,4.543,4.543,4.543,4.543,4.543,4.543,4.543,4.543,4.539,4.5341,4.5284,4.5062,4.3772,4.3266,4.3195,4.3119,4.2893,4.2662,4.2662,4.247,4.2243,4.2243,4.2243,4.2243,4.2243,4.1816,4.1354,4.1354,4.0935,4.0496,4.0381,3.9964,3.9551,3.9444,3.9024,3.8681,3.8681,3.8681,3.8635,3.8465,3.7869,3.7359,3.7148,3.7837,3.8412,3.8585,3.8778,3.8704,3.8171,3.7688,3.7071,3.629,3.6243,3.5563,3.4047,3.3996,3.3429,3.2146,3.2128,3.219,3.2342,3.1937,3.1551,3.1178,3.0372,2.9556,3.8344,3.8808,3.9259,3.8936,3.9517,4.0178,4.0178,4.0397,4.0609,4.0609,4.109,4.1601,4.1914,4.1953,4.2187,4.2773,4.2422,4.2383,4.3203,4.3594,4.3984,4.457,4.4648,4.4844,4.5391,4.4961,4.4648,4.4648,4.4648,4.4648,4.4648,4.5156,4.5469,4.5469,4.6016,4.7148,4.8867,4.8594,4.8437,4.8437,4.7617,4.6914,4.6328,4.6601,4.6601,4.6289,4.6289,4.6289,4.6289,4.6289,4.6289,4.6289,4.6289,4.6289,4.6289,4.6201,4.6145,4.5921,4.4705,4.4201,4.4092,4.4005,4.3778,4.3547,4.3547,4.3316,4.3085,4.3085,4.3085,4.3162,4.3431,4.3124,4.2696,4.2696,4.2277,4.1858,4.1858,4.1358,4.0825,4.0535,4.0007,3.9378,3.8791,3.8681,3.8681,3.8681,3.8152,3.7703,3.766,3.7979,3.8376,3.8822,3.8912,3.8911,3.8888,3.8469,3.7862,3.7069,3.6752,3.6104,3.4968,3.4681,3.4092,3.3105,3.3087,3.3201,3.3368,3.298,3.2684,3.2426,3.1575,3.0776,3.8679,3.9727,4.0795,4.0116,4.0586,4.1211,4.1211,4.0547,3.9961,3.9961,4.0,4.0273,4.1172,4.1328,4.1836,4.3437,4.3711,4.3984,4.4805,4.5664,4.625,4.6289,4.6289,4.6289,4.6289,4.6289,4.6289,4.6289,4.6289,4.6289,4.6289,4.6289,4.6289,4.6289,4.6289,4.7109,4.8828,4.8047,4.7695,4.7734,4.8516,4.8047,4.6445,4.7344,4.7266,4.6445,4.6484,4.6484,4.6445,4.6445,4.6445,4.6445,4.6367,4.6367,4.6367,4.6328,4.6202,4.6071,4.5853,4.578,4.5789,4.5628,4.5051,4.4359,4.4359,4.3816,4.3239,4.3239,4.3239,4.3393,4.4201,4.4393,4.4393,4.4432,4.4393,4.4359,4.4359,4.3841,4.3184,4.2396,4.1725,4.0769,3.9203,3.8938,3.8938,3.8938,3.8938,3.8708,3.8055,3.776,3.786,3.8591,3.8901,3.9013,3.8983,3.8962,3.8649,3.7908,3.7144,3.6676,3.66,3.5927,3.51,3.4109,3.4092,3.4199,3.4417,3.3446,3.3529,3.4603,3.238,3.1356,4.0042,4.0257,4.0271,4.0742,4.1055,4.1211,4.1211,4.1016,4.0859,4.0859,4.1367,4.2031,4.2891,4.3047,4.3203,4.3633,4.3711,4.3789,4.3984,4.4766,4.5586,4.6211,4.6289,4.6289,4.6289,4.6289,4.6289,4.6289,4.6289,4.6289,4.6289,4.6289,4.6289,4.6289,4.6289,4.6836,4.793,4.8359,4.8906,4.9531,4.9101,4.8672,4.8281,4.9141,4.9062,4.8281,4.8906,4.8828,4.8242,4.8242,4.8242,4.8164,4.7539,4.7266,4.7187,4.6432,4.614,4.6071,4.5853,4.578,4.5789,4.5628,4.5436,4.5282,4.5282,4.5128,4.4975,4.4975,4.4975,4.5167,4.6009,4.574,4.5436,4.6086,4.574,4.5282,4.5282,4.4934,4.4581,4.4364,4.3788,4.3113,4.2398,4.2294,4.2294,4.2294,4.2294,4.1483,3.9303,3.8939,3.9116,3.9651,3.9793,3.98,3.9791,3.9778,3.9467,3.8663,3.8442,3.7801,3.6645,3.6415,3.5944,3.5133,3.5116,3.4986,3.4779,3.4998,3.4716,3.3962,3.384,3.3399,4.0848,4.1051,4.1094,4.1601,4.1719,4.1641,4.1289,4.0898,4.0625,4.0625,4.0976,4.1562,4.2422,4.2617,4.2969,4.4101,4.3945,4.3984,4.4726,4.5273,4.5742,4.625,4.6641,4.6875,4.6875,4.7226,4.7422,4.7422,4.7109,4.6875,4.6875,4.7226,4.7422,4.7422,4.7422,4.7851,4.8711,4.9219,4.9726,5.0195,4.9687,4.9258,4.8945,4.9805,4.9726,4.8945,4.9414,4.9336,4.8906,4.8906,4.8866,4.878,4.8271,4.8066,4.7924,4.7377,4.7137,4.704,4.6923,4.6841,4.6677,4.5864,4.5594,4.5594,4.5594,4.5594,4.5667,4.6052,4.6163,4.6432,4.7663,4.7625,4.7398,4.7894,4.7625,4.7283,4.7283,4.697,4.6502,4.5843,4.4834,4.3951,4.3555,4.3506,4.3506,4.3506,4.3506,4.2986,4.156,4.0562,4.0053,4.0297,3.989,3.9762,4.0079,4.0113,3.9914,3.9447,3.9116,3.8492,3.7642,3.6979,3.6399,3.599,3.5667,3.5525,3.5605,3.5796,3.559,3.5084,3.527,3.4794,4.1288,4.1953,4.2539,4.2422,4.2383,4.2187,4.1367,4.0625,4.0078,4.0078,4.0078,4.0351,4.1211,4.1289,4.1992,4.4414,4.418,4.4258,4.5898,4.6211,4.6289,4.6289,4.707,4.7617,4.7617,4.8398,4.8906,4.8906,4.832,4.7891,4.7773,4.8476,4.8906,4.8906,4.8906,4.9336,5.0195,5.0195,5.0234,5.0351,5.0351,4.9961,4.9258,5.0117,5.0039,4.9218,4.9336,4.9335,4.9176,4.9217,4.9126,4.8998,4.8881,4.8754,4.8657,4.8523,4.8401,4.8312,4.8286,4.8205,4.7855,4.6398,4.5859,4.5782,4.5898,4.5859,4.5936,4.6812,4.7043,4.7428,4.8971,4.9394,4.9433,4.9553,4.9586,4.9586,4.9586,4.9253,4.8542,4.7101,4.5684,4.4612,4.4217,4.413,4.413,4.413,4.413,4.4163,4.4324,4.247,4.112,4.1071,4.0182,3.9843,4.0454,4.0434,4.0383,4.0383,3.9734,3.9313,3.9204,3.7716,3.6877,3.6754,3.5924,3.5789,3.6374,3.6172,3.6303,3.6693,3.6585,3.6011,4.1992,4.2812,4.3281,4.2578,4.2383,4.2187,4.1367,4.1094,4.0976,4.0976,4.0976,4.1211,4.2031,4.1641,4.1797,4.3633,4.3789,4.4062,4.5078,4.5859,4.6289,4.6289,4.707,4.7617,4.7617,4.8398,4.8906,4.8906,4.9414,4.9414,4.8711,4.8828,4.8906,4.8906,4.8906,4.9336,5.0195,5.0195,5.0547,5.1172,5.1172,5.1094,5.1016,5.1875,5.1714,5.0868,5.1677,5.1543,5.0729,5.0766,5.0748,5.0616,4.9872,4.9583,4.9471,4.8645,4.8301,4.8294,4.8167,4.8118,4.8043,4.7778,4.724,4.6812,4.7471,4.7197,4.6851,4.7658,4.7889,4.812,4.9125,4.9394,4.9591,5.0284,5.0476,5.0476,5.0476,5.0145,4.9612,4.8648,4.8261,4.7924,4.7546,4.7462,4.7462,4.7462,4.7462,4.7241,4.6606,4.4689,4.3397,4.3549,4.2964,4.2612,4.2751,4.2245,4.1927,4.1927,4.1774,4.1452,4.0823,3.9328,3.8191,3.753,3.6198,3.5579,3.5669,3.6667,3.6775,3.609,3.7625,3.7763,4.2851,4.3711,4.418,4.3281,4.3437,4.3281,4.1601,4.1523,4.1562,4.0703,4.0508,4.0508,4.043,4.0117,4.0273,4.1523,4.2109,4.2851,4.4141,4.5078,4.5781,4.625,4.7461,4.8281,4.8281,4.9453,5.0195,5.0195,5.0586,5.0469,4.9609,4.9961,5.0195,5.0195,5.0195,5.0391,5.082,5.082,5.1016,5.1406,5.1406,5.1366,5.1315,5.1745,5.1642,5.1179,5.1651,5.1583,5.1096,5.1115,5.1072,5.0939,5.0545,5.0332,5.0197,4.9748,4.9556,4.9539,4.9475,4.9433,4.9433,4.9433,4.8894,4.8279,4.8663,4.8817,4.9048,4.9851,4.9779,4.9663,5.0466,5.0394,5.0168,5.0592,5.0707,5.0634,5.0446,5.0224,4.9878,4.9051,4.8886,4.877,4.8392,4.8296,4.8296,4.8296,4.8296,4.815,4.7783,4.6822,4.5797,4.477,4.3851,4.3303,4.3303,4.2685,4.23,4.23,4.23,4.2153,4.1779,4.0682,3.9909,3.9525,3.7981,3.717,3.717,3.8017,3.8204,3.7757,3.9392,3.9576,4.3476,4.4219,4.457,4.3867,4.4062,4.3828,4.1445,4.1406,4.1445,3.9922,3.9609,3.9414,3.8711,3.8437,3.8672,3.9726,4.0469,4.1562,4.3437,4.4453,4.5391,4.6445,4.7969,4.8984,4.9141,5.0547,5.1406,5.1406,5.1406,5.1133,5.0508,5.1055,5.1406,5.1406,5.1406,5.1406,5.1406,5.1366,5.1365,5.1365,5.1322,5.1265,5.118,5.118,5.1129,5.105,5.1079,5.1058,5.1002,5.1034,5.0995,5.0863,5.0863,5.0799,5.0707,5.0707,5.0707,5.0707,5.0707,5.0822,5.0976,5.0976,5.0399,4.9707,4.9894,5.0394,5.1125,5.1967,5.1702,5.1399,5.2005,5.1702,5.1207,5.1015,5.0822,5.0599,5.0183,5.0111,4.9878,4.9051,4.8886,4.877,4.8392,4.8296,4.8296,4.8296,4.8296,4.8296,4.8296,4.8296,4.7648,4.5962,4.4834,4.4118,4.3962,4.3348,4.2934,4.2821,4.2807,4.2807,4.2807,4.1932,4.1451,4.1451,3.9828,3.8886,3.8693,3.9338,3.9559,3.9451,4.0905,4.1151,4.3476,4.375,4.3789,4.3711,4.3164,4.2187,4.043,4.0078,3.9844,3.8906,3.8711,3.8711,3.8594,3.7969,3.7969,3.9648,3.9961,4.0898,4.3359,4.4453,4.5625,4.7266,4.832,4.9219,5.0,5.0898,5.1406,5.1406,5.1406,5.1367,5.1289,5.1367,5.1406,5.1406,5.1406,5.1406,5.1406,5.1271,5.1211,5.121,5.1175,5.112,5.111,5.111,5.1036,5.0925,5.1036,5.0972,5.0758,5.0883,5.0835,5.0707,5.0707,5.0693,5.0707,5.0707,5.0707,5.0707,5.0707,5.1164,5.1774,5.1774,5.1241,5.0707,5.1467,5.1736,5.1967,5.2851,5.3044,5.301,5.3044,5.3044,5.2774,5.1967,5.1241,5.0599,5.0183,5.0111,4.9878,4.9051,4.8886,4.877,4.8392,4.8296,4.8296,4.8296,4.8296,4.8296,4.8296,4.8296,4.8213,4.8019,4.7436,4.6773,4.6189,4.5543,4.4955,4.442,4.4412,4.4412,4.4412,4.2994,4.222,4.222,4.066,3.9501,3.8693,3.9989,4.017,3.9451,4.1403,4.2263,4.2695,4.3672,4.4375,4.3828,4.3437,4.2734,4.1055,4.0273,3.9492,3.8125,3.7812,3.7656,3.7148,3.6758,3.6758,3.7422,3.8867,4.0625,4.2617,4.457,4.6445,4.8164,4.9141,4.9805,5.0156,5.0937,5.1561,5.2012,5.2048,5.2269,5.2693,5.18,5.1272,5.1272,5.1706,5.1954,5.1954,5.2423,5.2635,5.2635,5.2624,5.2555,5.2463,5.2463,5.2399,5.2278,5.2326,5.2305,5.2212,5.2271,5.2252,5.2202,5.2202,5.2202,5.2125,5.1625,5.1433,5.1356,5.0861,5.1241,5.1885,5.1885,5.239,5.3054,5.3356,5.3818,5.428,5.4626,5.4357,5.3972,5.3972,5.3587,5.3121,5.2774,5.2433,5.2092,5.1691,5.1406,5.0935,4.9878,4.9488,4.9104,4.8408,4.8296,4.8296,4.8296,4.8296,4.8296,4.8296,4.8296,4.8296,4.8296,4.7756,4.7121,4.6448,4.584,4.5228,4.4657,4.4615,4.4615,4.4615,4.401,4.3685,4.3685,4.2565,4.1831,4.1478,4.2344,4.2296,4.1436,4.3074,4.3513,4.2187,4.3476,4.4453,4.3867,4.332,4.2539,4.082,3.9766,3.8711,3.7226,3.6914,3.6719,3.6094,3.6016,3.6016,3.6016,3.7969,4.0117,4.1797,4.4297,4.6758,4.9023,5.0039,5.0625,5.0856,5.1355,5.1996,5.276,5.2833,5.3034,5.3571,5.2496,5.1877,5.1905,5.2414,5.2676,5.2676,5.3255,5.3542,5.3539,5.3492,5.344,5.334,5.334,5.329,5.3197,5.3197,5.3197,5.3197,5.3197,5.3197,5.3197,5.3197,5.3197,5.3121,5.2505,5.2274,5.2197,5.1625,5.1972,5.2697,5.2967,5.4049,5.5247,5.5247,5.5478,5.5708,5.5708,5.5285,5.4857,5.4857,5.4203,5.3561,5.3399,5.3185,5.2909,5.2481,5.2155,5.1682,5.0695,5.0296,4.9886,4.917,4.903,4.903,4.903,4.903,4.903,4.903,4.903,4.903,4.903,4.8456,4.7594,4.6495,4.6014,4.5451,4.4637,4.4615,4.4615,4.4615,4.4615,4.4615,4.4615,4.4006,4.3443,4.2925,4.3685,4.3476,4.2358,4.3726,4.3985,4.2187,4.3047,4.3711,4.3711,4.2461,4.0781,3.9023,3.7969,3.707,3.6211,3.6016,3.6016,3.6016,3.6016,3.6016,3.6016,3.7461,3.9219,4.0976,4.3398,4.6289,4.9766,5.0898,5.1676,5.2421,5.237,5.264,5.353,5.3608,5.3605,5.3605,5.3462,5.3448,5.3563,5.3566,5.3605,5.3605,5.3451,5.3399,5.3399,5.3253,5.3208,5.3203,5.3203,5.3203,5.3197,5.3197,5.3197,5.3197,5.3197,5.3197,5.3197,5.3197,5.3197,5.3197,5.3197,5.3197,5.3197,5.3159,5.3741,5.4587,5.5401,5.6247,5.6983,5.6983,5.6362,5.5708,5.5708,5.5708,5.5708,5.5708,5.5093,5.4364,5.3887,5.3181,5.2467,5.2001,5.191,5.1785,5.1352,5.1301,5.1185,5.0809,5.0765,5.0765,5.0765,5.0765,5.0765,5.0765,5.0765,5.0765,5.0765,5.0068,4.8717,4.6566,4.6377,4.5865,4.4665,4.4615,4.4615,4.4615,4.4615,4.4615,4.4615,4.4601,4.3739,4.2029,4.334,4.3126,4.1452,4.2731,4.3309,3.957,4.043,4.1094,4.1094,4.0273,3.9297,3.8711,3.7461,3.6328,3.6055,3.6016,3.6016,3.6016,3.6016,3.6406,3.7578,3.8242,3.9805,4.332,4.4407,4.615,4.9665,5.1227,5.2116,5.2358,5.2857,5.3524,5.4298,5.4365,5.4541,5.5018,5.4983,5.4507,5.3519,5.3931,5.4203,5.4203,5.4709,5.4979,5.4979,5.4937,5.4895,5.4895,5.4895,5.4895,5.4895,5.4895,5.4895,5.4895,5.4895,5.4895,5.4895,5.4895,5.4895,5.4857,5.428,5.4087,5.4087,5.4087,5.4626,5.5478,5.6324,5.717,5.7896,5.7896,5.7286,5.6478,5.5862,5.5708,5.5708,5.5708,5.5516,5.5297,5.5126,5.4912,5.4691,5.4514,5.4268,5.3789,5.2782,5.2376,5.189,5.0966,5.0802,5.0802,5.0802,5.0802,5.0802,5.0802,5.0802,5.0802,5.0802,5.0582,4.9565,4.7477,4.6731,4.5878,4.4665,4.4615,4.4615,4.4615,4.4615,4.4615,4.4615,4.4615,4.4577,4.4534,4.5451,4.5489,4.4647,4.3734,4.329,3.8281,3.9492,4.0312,3.9961,3.9258,3.8516,3.8164,3.7031,3.6016,3.6016,3.6016,3.6016,3.6016,3.6523,3.7344,3.8437,3.9414,4.1054,4.4057,4.5248,4.7053,5.0459,5.1952,5.2834,5.3183,5.3659,5.4262,5.5014,5.5082,5.5249,5.5675,5.5708,5.5242,5.4314,5.4713,5.4934,5.4934,5.5439,5.5708,5.5708,5.5708,5.5708,5.5708,5.5708,5.5708,5.5708,5.5708,5.5708,0.0,5.5708,5.5708,5.5708,5.5708,5.5708,5.5631,5.5131,5.4934,5.5011,5.5324,5.5785,5.6362,5.7555,5.8319,5.8736,5.8736,5.8165,5.7324,5.6439,5.6209,5.6093,5.5785,5.5708,5.561,5.5338,5.5237,5.5167,5.4848,5.4548,5.4171,5.3357,5.2986,5.2599,5.1844,5.1709,5.1709,5.1709,5.1709,5.1709,5.1709,5.1709,5.1709,5.1709,5.1426,5.0643,4.9102,4.7927,4.6878,4.5864,4.5583,4.5413,4.5413,4.5413,4.5413,4.5413,4.5413,4.5505,4.5615,4.6014,4.6012,4.5652,4.4434,4.3654,0.0,3.9609,4.0625,3.9805,3.9023,3.8203,3.7383,3.6562,0.0,3.6016,3.6016,3.6016,3.6094,3.7422,3.8594,3.8906,4.082,4.269,4.3789,4.6075,4.881,5.1916,5.2971,5.3832,5.4696,5.4675,5.4895,5.5631,5.5708,5.5708,5.5708,5.5708,5.5708,5.5708,5.5708,5.5708,5.5708,5.5708,5.5708,5.5708,5.5708,5.5708,5.5708,5.5708,5.5708,5.5708,5.5708,5.5708,5.5708,5.5708,5.5708,5.5708,5.5708,5.5708,5.5708,5.5708,5.5747,5.5939,5.6786,5.7132,5.744,5.905,5.9588,5.9588,5.9588,5.8973,5.8127,5.7324,5.7093,5.6901,5.6093,5.5901,5.5679,5.4867,5.4668,5.4389,5.3504,5.3324,5.3282,5.3241,5.323,5.322,5.3177,5.3214,5.3214,5.3214,5.3214,5.3214,5.3214,5.3214,5.3214,5.3214,5.2527,5.1825,5.1212,4.9698,4.8521,4.7827,4.7167,4.68,4.68,4.68,4.68,4.68,4.6902,4.6559,4.5769,4.5599,4.5341,4.503,4.4986,4.4416,3.6484,0.0,3.7187,3.6953,3.6758,3.6562,0.0,3.6133,3.6016,3.6016,3.6016,3.6211,3.6875,3.7258,3.8579,4.1953,4.1765,4.2647,4.69,4.8956,5.0562,5.2036,5.3421,5.4621,5.5587,5.5533,5.5516,5.5708,5.5708,5.5708,5.5708,5.5708,5.5708,5.5708,5.5708,5.5708,5.5708,5.5708,5.5708,5.5708,5.5708,5.5708,5.5708,5.5708,5.5708,5.5708,5.5708,5.5708,5.5708,5.5708,5.5708,5.5708,5.5708,5.5708,5.5708,5.5708,5.6132,5.6824,5.7703,5.8396,5.9088,6.0165,6.0473,6.0473,6.0473,5.9473,5.8275,5.805,5.7973,5.7934,5.7742,5.7703,5.7478,5.6609,5.6192,5.571,5.4829,5.4412,5.4103,5.372,5.3644,5.3556,5.3251,5.3214,5.3214,5.3214,5.3214,5.3214,5.3214,5.3214,5.3214,5.3214,5.3031,5.2842,5.2714,5.0306,4.8521,4.7827,4.7167,4.68,4.68,4.68,4.68,4.68,4.7902,4.8385,4.8182,4.853,4.8309,4.7456,4.6754,4.5833,3.587,3.6203,3.6484,3.6049,3.6243,3.6513,3.6456,3.6452,3.6569,3.6956,3.7344,3.7656,3.7736,3.9266,4.1099,4.276,4.3785,4.5613,4.9301,5.0804,5.1852,5.2634,5.4177,5.5223,5.5284,5.5532,5.5708,5.5708,5.5708,5.5708,5.5708,5.5708,5.5708,5.5708,5.5708,5.5708,5.5708,5.5708,5.5708,5.5708,5.5708,5.5708,5.5708,5.5708,5.5708,5.5708,5.5708,5.5708,5.5708,5.5708,5.5708,5.5708,5.5708,5.5708,5.5747,5.6132,5.6593,5.717,5.8434,5.9396,6.0165,6.0666,6.0787,6.0787,6.0787,6.0165,5.9358,5.8973,5.8858,5.8775,5.839,5.8132,5.7819,5.7134,5.6907,5.6685,5.6012,5.5696,5.5498,5.5212,5.4876,5.4562,5.4343,5.3995,5.3739,5.3739,5.3434,5.3214,5.3214,5.3214,5.3214,5.3214,5.3214,5.3214,5.3214,5.1155,4.9706,4.9341,4.8653,4.8119,4.7815,4.78,4.797,4.8323,4.9424,5.0017,5.0017,5.0307,4.9936,4.8975,4.8469,4.7441,3.5878,3.6865,3.7531,3.6369,3.6632,3.7165,3.7207,3.7191,3.743,3.8176,3.8953,3.9418,3.8953,4.182,4.4024,4.3331,4.6493,4.9521,5.0834,5.2017,5.2995,5.3715,5.5068,5.5681,5.4988,5.5388,5.5708,5.5708,5.5708,5.5708,5.5708,5.5708,5.5708,5.5708,5.5708,5.5708,5.5708,5.5708,5.5708,5.5708,5.5708,5.5708,5.5708,5.5708,5.5708,5.5708,5.5708,5.5708,5.5708,5.5708,5.5708,5.5708,5.5708,5.5708,5.5824,5.667,5.7093,5.744,5.9127,6.0165,6.0787,6.0787,6.0787,6.0787,6.0787,6.0787,6.0666,5.9896,5.9669,5.9436,5.8744,5.8329,5.7878,5.7238,5.7444,5.761,5.7007,5.6841,5.6811,5.6811,5.6161,5.5585,5.5585,5.5034,5.4583,5.4583,5.3995,5.3581,5.3581,5.3581,5.3581,5.3581,5.3581,5.3508,5.3398,5.2293,5.151,5.1254,5.0362,4.9644,4.9185,4.9187,4.9526,5.0236,5.0998,5.137,5.137,5.1472,5.1078,5.0128,4.9972,4.8937,3.6609,3.8493,3.9716,3.7413,3.6945,3.7212,3.7926,3.8115,3.8141,3.8331,3.9085,4.0059,4.1377,4.2066,4.3614,4.7012,4.9819,5.137,5.085,5.2713,5.4519,5.5471,5.5691,5.6006,5.6725,5.6121,5.5708,5.5708,5.5708,5.5708,5.5708,5.5708,5.5708,5.5708,5.5708,5.5708,5.5708,5.5708,5.5708,5.5708,5.5708,5.5708,5.5708,5.5708,5.5708,5.5708,5.5708,5.5708,5.5708,5.5708,5.5708,5.5708,5.5708,5.5708,5.5824,5.667,5.7478,5.8357,6.0012,6.071,6.0787,6.0787,6.0787,6.0787,6.0787,6.0787,6.0781,6.0627,6.0316,5.996,5.9852,5.9991,5.9781,5.8278,5.8756,5.9099,5.7631,5.7031,5.6811,5.6811,5.6161,5.5585,5.5585,5.5511,5.5438,5.5438,5.5328,5.5218,5.5218,5.5218,5.5218,5.5218,5.5218,5.495,5.4289,5.4016,5.3338,5.203,5.0188,4.9379,4.9914,4.9932,5.027,5.0998,5.1758,5.2131,5.2131,5.279,5.2604,5.1574,5.07,4.9672,3.661,3.7694,3.8741,3.9426,3.999,4.0452,4.079,4.0884,4.1022,4.148,4.2272,4.2973,4.328,4.4424,4.6422,4.9788,5.0981,5.1816,5.2721,5.4339,5.5564,5.5901,5.627,5.6463,5.6406,5.5979,5.5708,5.5708,5.5708,5.5708,5.5708,5.5708,5.5708,5.5708,5.5708,5.5708,5.5708,5.5708,5.5708,5.5708,5.5708,5.5708,5.5708,5.5708,5.5708,5.5708,5.5708,5.5708,5.5708,5.5708,5.5708,5.5708,5.5708,5.5978,5.6555,5.7863,5.8896,5.9742,6.0512,6.0787,6.0787,6.0787,6.0787,6.0787,6.0787,6.0787,6.0787,6.0787,6.0986,6.1179,6.1179,6.0928,6.0559,6.0248,6.016,6.0078,5.9734,5.9529,5.9281,5.8841,5.8107,5.7409,5.6969,5.6528,5.6235,5.6235,5.5879,5.5585,5.5585,5.5585,5.5585,5.5585,5.5585,5.5294,5.4502,5.4098,5.3372,5.221,5.0927,5.0363,5.0692,5.1082,5.1454,5.1776,5.257,5.2942,5.2942,5.3315,5.3263,5.2765,5.231,5.1502,3.6734,3.7273,3.835,4.1581,4.2621,4.2957,4.3315,4.3547,4.3794,4.4263,4.5204,4.5782,4.5312,4.731,4.962,5.1577,5.1869,5.2478,5.4404,5.5489,5.6026,5.5861,5.6433,5.6559,5.5768,5.5708,5.5708,5.5708,5.5708,5.5708,5.5708,5.5708,5.5708,5.5708,5.5708,5.5708,5.5708,5.5708,5.5708,5.5708,5.5708,5.5708,5.5708,5.5708,5.5708,5.5708,5.5708,5.5708,5.5708,5.5708,5.5708,5.5708,5.5708,5.6362,5.7478,5.8973,6.005,6.0787,6.0787,6.0787,6.0787,6.0787,6.0787,6.0787,6.0787,6.0734,6.0634,6.0634,6.1198,6.1715,6.1524,6.0901,6.0501,6.112,6.0984,6.0786,6.1227,6.13,6.108,6.026,5.9453,5.8719,5.8107,5.7483,5.7079,5.7079,5.6565,5.6172,5.6172,5.6172,5.6172,5.6172,5.6172,5.5859,5.51,5.4353,5.3592,5.278,5.1914,5.1626,5.1978,5.2367,5.2672,5.2841,5.3281,5.3518,5.3518,5.3518,5.3518,5.3501,5.323,5.268,3.7469,3.905,4.0858,4.3474,4.3017,4.2294,4.3859,4.4859,4.5222,4.4622,4.5782,4.7133,4.7889,4.9975,5.1692,5.1885,5.3228,5.4326,5.4508,5.5217,5.5722,5.574,5.5779,5.5768,5.5708,5.5708,5.5708,5.5708,5.5708,5.5708,5.5708,5.5708,5.5708,5.5708,5.5708,5.5708,5.5708,5.5708,5.5708,5.5708,5.5708,5.5708,5.5708,5.5708,5.5708,5.5708,5.5708,5.5708,5.5708,5.5708,5.5708,5.5708,5.5708,5.6742,5.8313,5.9165,6.005,6.0787,6.0787,6.0787,6.0787,6.0787,6.0787,6.0787,6.0787,6.0495,6.0154,6.0154,6.0463,6.0614,5.9803,5.9458,5.9324,5.9361,6.0479,6.13,6.0639,6.0493,6.026,5.9453,5.8657,5.807,5.7997,5.796,5.7923,5.7923,5.785,5.7813,5.7813,5.7813,5.7813,5.7813,5.7813,5.7508,5.6717,5.5914,5.5124,5.4392,5.2999,5.2874,5.4313,5.3754,5.3754,5.4397,5.3822,5.3518,5.3518,5.3518,5.3518,5.3501,5.2487,5.1975,3.8473,4.0435,4.2739,4.5278,4.5812,4.6043,4.7201,4.7745,4.7883,4.7611,4.8476,4.9556,5.0391,5.1713,5.289,5.3433,5.4087,5.4664,5.517,5.5516,5.5708,5.5708,5.5708,5.5708,5.5708,5.5708,5.5708,5.5708,5.5708,5.5708,5.5708,5.5708,5.5708,5.5708,5.5708,5.5708,5.5708,5.5708,5.5708,5.5708,5.5708,5.5708,5.5708,5.5708,5.5708,5.5708,5.5708,5.5708,5.5708,5.5708,5.5708,5.5824,5.6896,5.805,5.9165,6.0012,6.0512,6.0787,6.0787,6.0787,6.0787,6.0787,6.0787,6.0787,6.0787,6.0665,6.0476,6.0175,6.0012,5.9935,6.017,5.9962,5.9843,6.0303,6.0259,6.015,6.037,6.0419,6.015,5.938,5.8939,5.8584,5.8107,5.7997,5.7997,5.7997,5.7997,5.7997,5.7997,5.7997,5.7997,5.7997,5.713,5.6436,5.6136,5.5009,5.4356,5.4569,5.4414,5.4422,5.4584,5.4769,5.4989,5.5277,5.4989,5.4853,5.4853,5.4853,5.4853,5.4853,5.4437,5.4278,4.005,4.1777,4.3778,4.6581,4.7697,4.8466,4.9856,5.0202,5.0202,5.0202,5.1087,5.2054,5.262,5.3428,5.4164,5.478,5.4895,5.5049,5.5631,5.5708,5.5708,5.5708,5.5708,5.5708,5.5708,5.5708,5.5708,5.5708,5.5708,5.5708,5.5708,5.5978,5.6093,5.6093,5.6401,5.6511,5.6511,5.6511,5.6511,5.6511,5.6511,5.6401,5.6132,5.6395,5.6511,5.6511,5.6511,5.6511,5.6511,5.6511,5.6665,5.7049,5.8819,5.9858,6.0435,6.1281,6.1435,6.121,6.121,6.1018,6.0787,6.0787,6.0716,6.0591,6.0591,6.0365,6.0081,5.976,5.931,5.9083,5.9674,5.9604,5.9574,6.0369,5.9888,5.9343,5.9893,6.0003,5.9783,5.8976,5.8829,5.8646,5.8107,5.7997,5.7997,5.7997,5.7997,5.7997,5.7997,5.7997,5.7997,5.7997,5.7054,5.6411,5.6411,5.5282,5.4695,5.494,5.5386,5.5544,5.5312,5.5564,5.58,5.6037,5.58,5.5699,5.5699,5.5699,5.5699,5.5699,5.5699,5.5699,4.2162,4.3124,4.397,4.7274,4.812,4.8812,5.1346,5.1923,5.1885,5.1923,5.3313,5.4511,5.4511,5.517,5.5708,5.5708,5.5708,5.5708,5.5708,5.5708,5.5708,5.5708,5.5708,5.5708,5.5708,5.5708,5.5708,5.5708,5.5708,5.5708,5.5708,5.6555,5.7022,5.7022,5.7857,5.8313,5.8313,5.8313,5.8313,5.8313,5.8313,5.7857,5.7055,5.7896,5.8313,5.8313,5.8313,5.8313,5.8313,5.8313,5.8781,5.9704,6.1441,6.2095,6.221,6.3006,6.2781,6.2095,6.2095,6.1556,6.0819,6.0819,6.052,6.0103,6.0103,5.9479,5.8723,5.8713,5.8391,5.8045,5.7997,5.8033,5.8217,5.9013,5.9184,5.9184,5.9184,5.9184,5.8939,5.8143,5.7997,5.7997,5.7997,5.7997,5.7997,5.7997,5.7997,5.7997,5.7997,5.7997,5.7997,5.7997,5.7985,5.7985,5.7985,5.7302,5.6536,5.5738,5.5667,5.6004,5.6767,5.6071,5.6037,5.6799,5.6071,5.5733,5.5733,5.5733,5.5733,5.5733,5.5733,5.5733,4.3162,4.5701,4.7778,4.8779,5.0356,5.189,5.262,5.2351,5.2236,5.3472,5.4126,5.4664,5.5247,5.5555,5.5708,5.5708,5.5708,5.5708,5.5708,5.5708,5.5708,5.5708,5.5708,5.5708,5.5708,5.6247,5.6593,5.6593,5.7165,5.755,5.755,5.778,5.7896,5.7896,5.8165,5.8313,5.8313,5.8313,5.8313,5.8313,5.8852,5.8704,5.7934,5.8165,5.8313,5.8313,5.8313,5.8313,5.8352,5.8896,6.0012,6.1364,6.1903,6.2441,6.2974,6.3198,6.316,6.2935,6.2935,6.2541,6.2087,6.2087,6.1735,6.1291,6.1291,6.1098,6.0801,6.0472,6.028,6.01,5.9754,5.9281,5.8756,5.8437,5.8364,5.8364,5.8364,5.8364,5.829,5.8033,5.7997,5.7997,5.7997,5.7997,5.7997,5.7997,5.7997,5.7997,5.7997,5.7997,5.7997,5.7997,5.7029,5.6371,5.6371,5.5223,5.4425,5.4171,5.4151,5.4465,5.5226,5.6055,5.6596,5.6799,5.7103,5.7239,5.7239,5.7239,5.7239,5.7239,5.7239,5.7239,4.5355,4.8091,4.9976,5.0317,5.1813,5.3274,5.3626,5.3549,5.3703,5.4741,5.5247,5.5555,5.567,5.5978,5.6093,5.5747,5.5708,5.5708,5.5708,5.5708,5.5824,5.617,5.6209,5.6362,5.6703,5.7209,5.7517,5.7517,5.8011,5.8313,5.8313,5.8583,5.8781,5.8781,5.9127,5.9281,5.9281,5.9281,5.9281,5.9319,5.9781,5.9742,5.9281,5.9281,5.9281,5.9319,5.9665,5.9819,5.9896,6.105,6.2166,6.3134,6.348,6.3903,6.432,6.432,6.4122,6.3795,6.3577,6.311,6.2567,6.2355,6.1942,6.1532,6.1532,6.1384,6.1197,6.0892,6.0804,6.0762,6.0466,6.004,5.9453,5.8657,5.8217,5.7997,5.7997,5.7997,5.7997,5.7997,5.7997,5.7997,5.7997,5.7997,5.7997,5.7997,5.7997,5.7997,5.7997,5.7997,5.7997,5.7997,5.7155,5.6514,5.6218,5.5059,5.4267,5.3962,5.3651,5.3687,5.4126,5.5581,5.6494,5.6799,5.7509,5.79,5.79,5.79,5.79,5.79,5.79,5.79,4.7817,4.9976,5.0976,5.1736,5.262,5.3549,5.4395,5.517,5.5708,5.5708,5.6324,5.6632,5.5862,5.6362,5.6632,5.5824,5.5708,5.5747,5.5824,5.5824,5.6132,5.7016,5.7132,5.744,5.8204,5.8352,5.839,5.839,5.8467,5.8544,5.8544,5.9204,5.9627,5.9627,6.0396,6.0787,6.0787,6.0787,6.0787,6.0787,6.0787,6.0787,6.0787,6.0787,6.0825,6.0979,6.1826,6.2249,6.2441,6.3974,6.4666,6.4782,6.559,6.5904,6.5904,6.5904,6.5397,6.4654,6.4091,6.342,6.2693,6.2142,6.1639,6.1241,6.1241,6.095,6.0639,6.0639,6.0639,6.0639,6.0639,6.0566,6.0309,5.96,5.8792,5.8217,5.8217,5.8217,5.8217,5.8217,5.8217,5.818,5.8107,5.8107,5.807,5.7997,5.7997,5.7997,5.7997,5.7997,5.7997,5.7997,5.7856,5.7522,5.6861,5.5976,5.5203,5.4544,5.3864,5.3518,5.3518,5.4853,5.5902,5.6596,5.7374,5.778,5.778,5.7866,5.79,5.79,5.79,5.79,4.6428,4.9505,5.1697,5.1846,5.3082,5.4434,5.5247,5.5593,5.5708,5.5708,5.5862,5.5939,5.5747,5.5862,5.5939,5.5747,5.5708,5.5939,5.6632,5.6709,5.7055,5.7934,5.8011,5.8088,5.8275,5.8852,5.9242,5.9242,5.9896,6.0242,6.0242,6.0435,6.0512,6.0512,6.071,6.0787,6.0787,6.0787,6.0787,6.0787,6.0787,6.0787,6.0787,6.0787,6.1172,6.1864,6.2704,6.3435,6.4089,6.4436,6.5013,6.5628,6.582,6.5904,6.5904,6.5904,6.5788,6.5545,6.5016,6.4461,6.3916,6.3372,6.2866,6.2438,6.2438,6.2341,6.2279,6.2279,6.2279,6.2279,6.2279,6.1814,6.13,6.1117,6.0456,5.9869,5.9869,5.9869,5.9869,5.9869,5.9869,5.9685,5.9049,5.8939,5.8719,5.8107,5.7997,5.7997,5.7997,5.7997,5.7997,5.7997,5.694,5.6128,5.5976,5.4745,5.3897,5.375,5.3584,5.3518,5.3518,5.4363,5.4905,5.5074,5.6359,5.7036,5.7036,5.7611,5.79,5.79,5.79,5.79,4.6312,4.9351,5.1702,5.3318,5.4703,5.5708,5.5708,5.5708,5.5708,5.5708,5.5708,5.5708,5.5708,5.5708,5.5824,5.6247,5.6324,5.6632,5.7517,5.7632,5.7934,5.8775,5.8852,5.905,5.9473,5.9896,6.0127,6.0127,6.055,6.0787,6.0787,6.0787,6.0787,6.0787,6.0787,6.0787,6.0787,6.0787,6.1018,6.1402,6.1402,6.1826,6.2589,6.1787,6.1672,6.2172,6.3397,6.416,6.4628,6.5051,6.5474,6.5904,6.5904,6.5723,6.5527,6.5527,6.5374,6.5113,6.4572,6.4226,6.3944,6.3385,6.3038,6.2793,6.2793,6.2793,6.2793,6.2793,6.2793,6.2793,6.2793,6.2499,6.2181,6.2181,6.1263,6.0419,6.0419,6.0419,6.0419,6.0419,6.0419,6.026,5.9857,5.9783,5.9636,5.9208,5.9134,5.9134,5.9134,5.8804,5.8572,5.8572,5.7508,5.6659,5.6313,5.5223,5.4407,5.4042,5.3684,5.3518,5.3518,5.3856,5.4228,5.4566,5.5716,5.6461,5.6799,5.7171,5.7543,5.79,5.79,5.79,4.6163,4.924,5.1823,5.4747,5.6132,5.6593,5.5862,5.5708,5.5747,5.5901,5.5785,5.5747,5.5901,5.5939,5.6209,5.7093,5.7209,5.7517,5.8396,5.8511,5.8819,5.9627,5.9704,6.0012,6.0748,6.0787,6.0787,6.0787,6.0787,6.0787,6.0787,6.0787,6.0864,6.1018,6.1018,6.1095,6.1243,6.1243,6.1672,6.2518,6.2672,6.3403,6.4551,6.348,6.2941,6.3057,6.4589,6.5243,6.532,6.6013,6.632,6.6314,6.6211,6.5928,6.5511,6.543,6.5169,6.4756,6.4198,6.4018,6.3929,6.3407,6.3233,6.3233,6.3233,6.3233,6.3233,6.3233,6.3233,6.3196,6.305,6.3013,6.2976,6.2829,6.1765,6.0811,6.0811,6.0811,6.0811,6.0811,6.0713,6.0603,6.0603,6.0493,6.0419,6.0419,6.0419,6.0419,6.0419,5.982,5.9416,5.9416,5.8567,5.7776,5.7166,5.6248,5.5374,5.4642,5.402,5.3619,5.3518,5.3518,5.3788,5.4397,5.5124,5.5818,5.6427,5.6697,5.7103,5.7712,5.7832,5.79,4.4013,4.874,5.3164,5.4357,5.5285,5.5824,5.5747,5.5708,5.5901,5.667,5.6247,5.5939,5.667,5.6824,5.7093,5.7973,5.8127,5.8396,5.9242,5.9358,5.9665,6.0512,6.0633,6.0671,6.0787,6.0787,6.0787,6.0787,6.0787,6.0787,6.0787,6.0787,6.1133,6.1903,6.1941,6.2249,6.2968,6.2968,6.3391,6.4282,6.5013,6.5089,6.4628,6.5865,6.6442,6.6481,6.7475,6.7891,6.7891,6.8007,6.8084,6.8012,6.7562,6.7343,6.7207,6.6748,6.654,6.6402,6.5858,6.5694,6.5591,6.5101,6.4958,6.4958,6.4958,6.4958,6.4958,6.4958,6.4958,6.4811,6.409,6.3906,6.3723,6.2976,6.2646,6.2462,6.2462,6.2462,6.2462,6.2462,6.1924,6.1447,6.1447,6.086,6.0419,6.0419,6.0419,6.0419,6.0419,6.0297,6.0224,6.0224,5.8952,5.8039,5.7938,5.6568,5.54,5.4652,5.4499,5.416,5.3518,5.3518,5.3551,5.3653,5.4363,5.4803,5.4905,5.619,5.6867,5.6968,5.7577,5.79,4.4393,4.9779,5.4241,5.5555,5.6863,5.7588,5.6632,5.6439,5.6555,5.6907,5.6709,5.6709,5.755,5.7742,5.8011,5.8858,5.8973,5.9281,6.0127,6.0242,6.0358,6.0748,6.0787,6.0787,6.0787,6.0787,6.0787,6.0787,6.1248,6.1518,6.1518,6.1973,6.2397,6.2743,6.2781,6.2935,6.3314,6.3775,6.4705,6.6013,6.7359,6.7821,6.7513,6.8706,6.8205,6.6519,6.7814,6.8391,6.8391,6.8391,6.8391,6.8358,6.7806,6.7402,6.7079,6.6541,6.6198,6.5942,6.5668,6.562,6.5571,6.5355,6.5288,6.5288,6.5288,6.5288,6.5288,6.5288,6.5288,6.5215,6.4861,6.4787,6.4677,6.4297,6.4187,6.4187,6.4187,6.3453,6.2793,6.2793,6.2499,6.2291,6.2291,6.1985,6.1728,6.1728,6.1728,6.1728,6.1728,6.1337,6.108,6.108,6.0045,5.9391,5.9391,5.8352,5.7397,5.6615,5.6134,5.5534,5.4753,5.4718,5.4718,5.4718,5.4228,5.4194,5.4617,5.5243,5.5784,5.6206,5.6934,5.7273,4.4427,4.9317,5.3395,5.5516,5.7126,5.8088,5.7478,5.7324,5.7324,5.7324,5.7478,5.7824,5.8473,5.8583,5.8858,5.9704,5.9819,6.005,6.0704,6.0787,6.0787,6.0787,6.0787,6.0902,6.1095,6.1133,6.121,6.1435,6.2056,6.2403,6.2403,6.2974,6.3391,6.3622,6.3622,6.3814,6.4275,6.5359,6.6513,6.7789,6.9283,6.9898,6.9699,7.0378,6.9222,6.6726,6.8358,6.9045,6.9,6.8905,6.8831,6.8781,6.8083,6.759,6.719,6.6625,6.6199,6.5925,6.5925,6.5925,6.5925,6.5925,6.5925,6.5925,6.5925,6.5925,6.5925,6.5925,6.5925,6.5852,6.5655,6.5582,6.5545,6.5362,6.5288,6.5288,6.5288,6.4334,6.3453,6.3453,6.327,6.3123,6.3123,6.2939,6.2793,6.2793,6.2793,6.2793,6.2793,6.2291,6.1887,6.1887,6.1189,6.0636,6.0422,5.9677,5.8821,5.7837,5.7219,5.6524,5.5734,5.5699,5.5699,5.5699,5.4617,5.4228,5.4617,5.4769,5.5074,5.5428,5.619,5.6528,4.2739,4.5817,4.9236,5.2582,5.4087,5.5357,5.7703,5.8242,5.8242,5.8242,5.8858,5.9396,5.9435,5.9435,5.9704,6.0589,6.0748,6.0748,6.0787,6.0787,6.0787,6.0787,6.0787,6.1133,6.1941,6.2018,6.2364,6.3121,6.3198,6.3237,6.3237,6.3275,6.366,6.4512,6.4551,6.5282,6.6904,6.859,6.9475,6.959,7.0437,7.0437,6.9692,7.0018,6.9594,6.8733,7.0167,7.0783,7.0717,7.0232,7.0022,6.9891,6.8876,6.8432,6.8338,6.7819,6.758,6.759,6.759,6.759,6.759,6.759,6.759,6.759,6.759,6.759,6.759,6.759,6.759,6.7407,6.6623,6.6439,6.6256,6.5472,6.5288,6.5288,6.5288,6.5215,6.5178,6.5178,6.4567,6.4029,6.4029,6.3356,6.2793,6.2793,6.2793,6.2793,6.2793,6.2756,6.2756,6.2756,6.203,6.1235,6.0473,5.9596,5.8478,5.6961,5.6838,5.648,5.5733,5.5699,5.5699,5.5699,5.5631,5.5277,5.4617,5.5293,5.5293,5.4668,5.5412,5.5767,4.1504,4.4355,4.7432,5.139,5.4241,5.6324,5.7247,5.828,5.9088,5.9088,5.9319,5.9665,6.0242,6.0319,6.0441,6.0748,6.0787,6.0787,6.0787,6.0787,6.1018,6.1556,6.1633,6.1979,6.2781,6.2858,6.2974,6.3275,6.3814,6.4122,6.4122,6.4666,6.5359,6.6173,6.6205,6.7013,6.8744,6.9398,6.9975,7.0475,7.0417,7.0255,6.9934,6.9706,6.9437,6.9143,6.9661,6.9856,6.9838,6.9664,6.9598,6.9521,6.8758,6.8511,6.844,6.7878,6.77,6.77,6.77,6.77,6.77,6.77,6.77,6.77,6.77,6.77,6.77,6.77,6.77,6.7627,6.7333,6.726,6.7187,6.6916,6.6843,6.6843,6.6843,6.6035,6.5288,6.5288,6.5081,6.4861,6.4861,6.4591,6.4407,6.4407,6.4407,6.4407,6.4407,6.3943,6.3613,6.3613,6.2883,6.2258,6.1955,6.1659,6.0795,5.919,5.9109,5.8527,5.7157,5.7103,5.7103,5.7103,5.7103,5.6528,5.531,5.5564,5.5564,5.5327,5.6037,5.6409,4.0273,4.2624,4.5355,4.9582,5.2972,5.5593,5.6747,5.8517,5.9858,5.955,5.9973,6.0358,6.0358,6.0825,6.1133,6.0864,6.1056,6.1248,6.1248,6.1248,6.1556,6.2403,6.2518,6.282,6.366,6.3737,6.3852,6.416,6.4705,6.5051,6.5051,6.559,6.6288,6.7058,6.7673,6.8513,6.9706,6.9774,7.0093,7.063,7.0086,7.0062,7.0506,6.9778,6.9691,7.0122,6.9727,6.9471,6.9292,6.9106,6.9032,6.8967,6.844,6.8223,6.8173,6.7836,6.77,6.77,6.77,6.77,6.77,6.77,6.77,6.77,6.77,6.77,6.77,6.77,6.77,6.77,6.77,6.77,6.77,6.77,6.77,6.77,6.77,6.6843,6.6109,6.6109,6.5888,6.5705,6.5705,6.5472,6.5288,6.5288,6.5288,6.5288,6.5288,6.4824,6.4494,6.4494,6.3967,6.3408,6.2822,6.254,6.1681,6.0023,5.9716,5.9044,5.7954,5.79,5.79,5.79,5.79,5.7408,5.6461,5.6172,5.5936,5.5699,5.6206,5.6427,0.0,0.0,0.0,4.6928,4.9928,5.2736,5.6093,5.8863,6.0473,5.9654,6.0846,6.1538,5.984,6.0962,6.1814,6.0935,6.1556,6.2133,6.2133,6.2172,6.248,6.3275,6.3391,6.3737,6.4628,6.4705,6.5051,6.5904,6.5981,6.5981,6.5981,6.6013,6.6359,6.7115,6.8814,6.9738,6.9762,7.0018,7.0158,7.0196,6.9645,7.0071,7.1386,7.0233,7.0457,7.1697,7.058,6.9806,6.9286,6.8769,6.855,6.849,6.7965,6.7774,6.7774,6.7774,6.7774,6.7774,6.7774,6.7774,6.7774,6.7774,6.7774,6.7774,6.7774,6.7774,6.7774,6.7774,6.7774,6.7774,6.7774,6.7774,6.7774,6.7774,6.7774,6.7774,6.7774,6.7737,6.7737,6.77,6.7076,6.6549,6.6549,6.5888,6.5362,6.5362,6.5362,6.5362,6.5362,6.5362,6.5325,6.5325,6.5288,6.463,6.2919,6.2135,6.0976,5.9235,5.8447,5.8022,5.7967,5.7934,5.7934,5.7934,5.7934,5.79,5.79,5.7171,5.6443,5.5767,5.5767,5.5767,3.735,0.0,0.0,0.0,0.0,0.0,5.2967,5.628,5.898,5.8979,6.0339,6.1378,6.0874,6.1721,6.2094,6.0976,6.2012,6.2974,6.2974,6.3512,6.4205,6.5089,6.5705,6.6397,6.7276,6.7353,6.743,6.7699,6.7699,6.7699,6.7699,6.8321,6.8545,6.8326,6.9798,7.0688,7.0926,7.139,7.1941,7.254,7.157,7.1319,7.1658,7.0524,7.0186,7.0541,7.0252,7.0012,6.9862,6.9716,6.9674,6.9647,6.9495,6.9463,6.9463,6.9463,6.9463,6.9463,6.9463,6.9463,6.9463,6.9463,6.9463,6.9463,6.9463,6.9463,6.9463,6.9463,6.9463,6.9463,6.9463,6.9463,6.9463,6.9463,6.9463,6.9463,6.9463,6.8972,6.8385,6.7811,6.7517,6.737,6.737,6.7187,6.7026,6.7026,6.7026,6.7026,6.7026,6.6512,6.6182,6.6182,6.5655,6.5094,6.463,6.4385,6.3531,6.178,6.147,6.0808,5.9528,5.8998,5.8693,5.8693,5.8152,5.79,5.79,5.7697,5.7476,5.7273,5.7273,5.7273,3.7326,3.8458,4.0152,4.2353,0.0,0.0,5.2066,5.5143,5.7966,5.9679,6.0753,6.1454,6.1782,6.2426,6.2768,6.2443,6.3512,6.4122,6.3391,6.4045,6.5051,6.625,6.6827,6.7436,6.8314,6.8391,6.8391,6.8391,6.821,6.7966,6.7751,6.9107,6.9705,6.934,7.1044,7.198,7.1887,7.2003,7.2172,7.2404,7.1523,7.1392,7.1948,7.1043,7.0901,7.1444,7.1204,7.1101,7.1101,7.1101,7.0697,7.011,7.011,7.011,7.011,7.011,7.011,7.011,7.011,7.011,7.011,7.011,7.011,7.011,7.011,7.011,7.011,7.011,7.011,7.011,7.011,7.011,7.011,7.011,7.011,7.011,7.011,6.9743,6.9155,6.8348,6.7921,6.77,6.77,6.77,6.77,6.77,6.77,6.77,6.77,6.7297,6.699,6.699,6.6586,6.6002,6.5251,6.4896,6.3964,6.223,6.1797,6.1169,6.0137,5.9708,5.9471,5.9471,5.9032,5.8795,5.8795,5.8204,5.79,5.79,5.79,5.79,3.8202,3.8477,3.9358,4.1775,4.436,0.0,5.1802,5.4223,5.6542,6.0042,6.0771,6.1056,6.1873,6.2459,6.3078,6.3891,6.4866,6.5045,6.3654,6.4282,6.5397,6.6789,6.7135,6.7552,6.8314,6.8428,6.8446,6.8446,6.8082,6.768,6.7192,6.9098,7.023,7.0141,7.2194,7.3059,7.2546,7.2122,7.1722,7.1254,7.0719,7.1138,7.2311,7.1692,7.2125,7.3251,7.2719,7.2496,7.2496,7.2496,7.1651,7.0367,7.0367,7.0367,7.0367,7.0367,7.0367,7.0367,7.0367,7.0367,7.0367,7.0367,7.0367,7.0367,7.0367,7.0367,7.0367,7.0367,7.0367,7.0367,7.0367,7.0367,7.0367,7.0367,7.0367,7.0367,7.0367,7.0293,7.0036,6.9288,6.8531,6.7958,6.7958,6.7958,6.7958,6.7847,6.7847,6.7811,6.77,6.77,6.77,6.77,6.77,6.7053,6.5422,6.4705,6.3578,6.1809,6.103,6.0563,6.0351,6.0283,6.0216,6.0216,6.0148,6.0114,6.0114,5.8693,5.8017,5.8017,5.7934,5.79,3.8532,3.9355,4.1089,4.0943,4.3338,0.0,4.6959,4.9032,5.1431,5.374,5.5839,5.7478,5.8323,5.9126,5.9858,6.0426,6.1982,6.3454,6.4238,6.5667,6.6481,6.6167,6.7321,6.8199,6.8391,6.8616,6.8722,6.8722,6.9259,6.9565,6.9471,7.0484,7.0883,7.0445,7.1489,7.2126,7.2286,7.2589,7.3048,7.3627,7.3044,7.2905,7.3155,7.254,7.2435,7.2672,7.2553,7.2496,7.2496,7.2496,7.2312,7.2018,7.2018,7.2018,7.2018,7.2018,7.2018,7.2018,7.2018,7.2018,7.2018,7.2018,7.2018,7.2018,7.2018,7.2018,7.2018,7.2018,7.2018,7.2018,7.2018,7.2018,7.2018,7.2018,7.2018,7.2018,7.2018,7.1541,7.1013,7.0866,7.0183,6.9646,6.9646,6.9646,6.9412,6.8752,6.8678,6.8421,6.7774,6.77,6.77,6.77,6.77,6.7556,6.7179,6.702,6.6175,6.4386,6.4143,6.343,6.2019,6.1366,6.1061,6.1061,6.0419,6.0114,6.0114,5.9235,5.8795,5.8795,5.8186,5.79,4.1212,4.0365,4.0495,4.1427,4.2471,0.0,0.0,4.7651,4.9102,5.1566,5.3635,5.5261,5.6092,5.7147,5.8233,5.9329,6.0842,6.2106,6.2617,6.4805,6.6205,6.5793,6.648,6.7175,6.7602,6.7774,6.7911,6.805,6.8455,6.8758,6.8924,7.0325,7.1014,7.0766,7.2197,7.2928,7.282,7.3076,7.3263,7.3391,7.308,7.2943,7.2943,7.263,7.2496,7.2496,7.2496,7.2496,7.2496,7.2496,7.2496,7.2496,7.2496,7.2496,7.2496,7.2496,7.2496,7.2496,7.2496,7.2496,7.2496,7.2496,7.2496,7.2496,7.2496,7.2496,7.2496,7.2496,7.2496,7.2496,7.2496,7.2496,7.2496,7.2496,7.2496,7.2496,7.2496,7.2202,7.1894,7.1894,7.1578,7.1027,7.022,7.011,6.9963,6.9559,6.9486,6.9339,6.8949,6.8912,6.8752,6.8348,6.8311,6.7955,6.7103,6.6605,6.5775,6.4444,6.3954,6.3314,6.244,6.2042,6.1839,6.1839,6.1434,6.1231,6.1231,6.052,5.9926,5.9539,5.9167,5.8998,4.4521,4.2099,4.0555,4.2618,4.2355,4.263,0.0,0.0,0.0,4.9807,5.1429,5.2622,5.3453,5.4639,5.6016,5.755,5.9082,5.9932,5.949,6.2417,6.4672,6.4773,6.5266,6.5747,6.6116,6.6918,6.7307,6.7165,6.7787,6.8068,6.7865,6.9843,7.0982,7.0982,7.2897,7.3711,7.325,7.3237,7.2983,7.2496,7.2496,7.2496,7.2496,7.2496,7.2496,7.2496,7.2496,7.2496,7.2496,7.2496,7.2496,7.2496,7.2496,7.2496,7.2496,7.2496,7.2496,7.2496,7.2496,7.2496,7.2496,7.2496,7.2496,7.2496,7.2496,7.2496,7.2496,7.2496,7.2496,7.2496,7.2496,7.2496,7.2496,7.2496,7.2496,7.2496,7.2496,7.2496,7.2496,7.2496,7.2496,7.2092,7.077,7.055,7.0513,7.033,7.033,7.0293,7.011,7.011,6.9853,6.9192,6.898,6.8312,6.6954,6.5986,6.4984,6.3963,6.3235,6.2731,6.24,6.24,6.24,6.24,6.24,6.24,6.24,6.1806,6.1095,6.0317,6.0182,6.0114,4.7073,4.5484,4.4787,4.4349,4.4147,4.4238,4.479,0.0,4.4096,4.5191,0.0,4.7421,4.8371,0.0,0.0,5.1553,5.3912,5.5372,5.461,5.8319,6.1262,6.1789,6.4086,6.5077,6.3681,6.6899,6.8425,6.6734,6.9513,7.0449,6.8514,7.0015,7.0896,7.0896,7.2066,7.2672,7.2588,7.2588,7.2582,7.2496,7.2496,7.2496,7.2496,7.2496,7.2496,7.2496,7.2496,7.2496,7.2496,7.2496,7.2496,7.2496,7.2496,7.2496,7.2496,7.2496,7.2496,7.2496,7.2496,7.2496,7.2496,7.2496,7.2496,7.2496,7.2496,7.2496,7.2496,7.2496,7.2496,7.2496,7.2496,7.2496,7.2496,7.2496,7.2496,7.2496,7.2496,7.2496,7.2496,7.2496,7.2496,7.2459,7.2275,7.2239,7.1982,7.127,7.116,7.0903,7.0183,7.011,7.0073,6.9963,6.9223,6.8667,6.8466,6.7577,6.6356,6.4795,6.4595,6.3905,6.2454,6.24,6.24,6.24,6.24,6.24,6.24,6.2333,6.1873,6.1163,6.0419,6.0114,5.1898,4.9862,4.8338,4.6994,4.647,4.6053,4.5103,4.4059,4.3259,4.3114,0.0,0.0,0.0,0.0,0.0,0.0,5.0925,5.2121,5.2077,5.5517,5.8381,5.9294,6.1367,6.2504,6.1996,6.6197,6.787,6.5318,6.8562,6.968,6.7468,6.9302,7.0434,7.0434,7.177,7.2496,7.2496,7.2496,7.2496,7.2496,7.2496,7.2496,7.2496,7.2496,7.2496,7.2496,7.2496,7.2496,7.2496,7.2496,7.2496,7.2496,7.2496,7.2496,7.2496,7.2496,7.2496,7.2496,7.2496,7.2496,7.2496,7.2496,7.2496,7.2496,7.2496,7.2496,7.2496,7.2496,7.2496,7.2496,7.2496,7.2496,7.2496,7.2496,7.2496,7.2496,7.2496,7.2496,7.2496,7.2496,7.2496,7.2496,7.2496,7.2496,7.2386,7.2041,7.2004,7.1872,7.1541,7.1505,7.1321,7.083,7.0434,7.0011,6.9537,6.8154,6.7005,6.6303,6.5243,6.419,6.3077,6.3057,6.2854,6.2415,6.24,6.24,6.24,6.24,6.2265,6.1907,6.1603,6.1434,5.5647,5.3445,5.1499,5.0288,4.9371,4.849,4.7314,4.5815,4.4354,4.3292,4.3318,0.0,0.0,0.0,4.5735,4.6941,0.0,4.9286,4.9448,5.2477,5.5191,5.6526,5.838,5.9947,6.089,6.5447,6.7307,6.4808,6.8201,6.9319,6.6932,6.8898,7.011,7.011,7.1651,7.2496,7.2496,7.2496,7.2496,7.2496,7.2496,7.2496,7.2496,7.2496,7.2496,7.2496,7.2496,7.2496,7.2496,7.2275,7.2165,7.2165,7.1945,7.1835,7.1908,7.2349,7.2496,7.2496,7.2496,7.2496,7.2496,7.2496,7.2496,7.2496,7.2496,7.2496,7.2496,7.2496,7.2496,7.2496,7.2496,7.2496,7.2496,7.2496,7.2496,7.2496,7.2496,7.2496,7.2496,7.2496,7.2496,7.2496,7.2496,7.2496,7.2496,7.2496,7.2496,7.2496,7.2496,7.2496,7.2275,7.1674,7.1414,7.0916,7.0074,6.8499,6.7358,6.6878,6.5436,6.4377,6.3815,6.3781,6.3565,6.299,6.299,6.2888,6.2685,6.2685,6.2584,6.24,6.24,6.24,5.7178,5.5537,5.4252,5.4216,5.3015,5.1861,5.1787,4.9877,4.7683,4.6112,4.4802,4.3967,4.3968,4.3907,0.0,0.0,0.0,0.0,0.0,4.8712,5.149,5.3142,5.5475,5.7873,6.0367,6.4879,6.7162,6.6012,6.9536,7.0545,6.7817,6.9192,7.011,7.011,7.1651,7.2496,7.2496,7.2496,7.2496,7.2496,7.2496,7.2496,7.2496,7.2496,7.2496,7.2496,7.2496,7.2496,7.2459,7.1674,7.1344,7.127,7.0477,7.0183,7.0367,7.1945,7.2496,7.2496,7.2496,7.2496,7.2496,7.2496,7.2496,7.2496,7.2496,7.2496,7.2496,7.2496,7.2496,7.2496,7.2496,7.2496,7.2496,7.2496,7.2496,7.2496,7.2496,7.2496,7.2496,7.2496,7.2496,7.2496,7.2496,7.2496,7.2496,7.2496,7.2496,7.2496,7.2496,7.2496,7.2496,7.2459,7.1665,7.0731,6.9795,6.8765,6.7473,6.5847,6.5026,6.458,6.458,6.4546,6.4546,6.4546,6.4546,6.4174,6.3443,6.3443,6.3091,6.24,6.24,6.24,6.0419,5.9979,5.9306,5.6627,5.637,5.6223,5.4069,5.2123,5.0435,4.937,4.7059,4.525,4.5267,4.4353,0.0,0.0,0.0,0.0,0.0,4.5635,4.7412,4.8485,0.0,0.0,0.0,6.433,6.6992,6.4893,6.8807,6.9988,6.7056,6.8935,7.011,7.011,7.1651,7.2496,7.2496,7.2496,7.2496,7.2496,7.2496,7.2496,7.2496,7.2496,7.2496,7.2459,7.1931,7.1711,7.1637,7.0844,7.0513,7.0477,7.022,7.011,7.022,7.1307,7.1711,7.1784,7.2312,7.2496,7.2496,7.2496,7.2496,7.2496,7.2496,7.2496,7.2496,7.2496,7.2496,7.2496,7.2496,7.2496,7.2496,7.2496,7.2496,7.2496,7.2496,7.2496,7.2496,7.2496,7.2496,7.2496,7.2496,7.2496,7.2496,7.2496,7.2496,7.2496,7.2496,7.2496,7.2496,7.2496,7.2226,7.1671,7.0701,6.9133,6.7704,6.6503,6.6183,6.5831,6.5358,6.5324,6.5087,6.4613,6.4613,6.4478,6.4241,6.4241,6.4106,6.3869,6.3869,6.3328,6.2842,6.2879,6.2585,5.9673,5.971,5.9783,5.7152,5.55,5.4326,5.3518,5.0765,4.8746,4.9627,4.7629,0.0,0.0,0.0,0.0,0.0,4.4304,4.5229,0.0,0.0,0.0,0.0,0.0,6.5359,6.5213,6.8258,6.9286,6.7433,6.9082,7.022,7.0513,7.1798,7.2496,7.2496,7.2496,7.2496,7.2496,7.2496,7.2496,7.2496,7.2202,7.2078,7.2041,7.1197,7.0866,7.083,7.0293,7.011,7.011,7.011,7.011,7.0146,7.0697,7.105,7.138,7.1894,7.2275,7.2496,7.2496,7.2496,7.2496,7.2496,7.2496,7.2496,7.2496,7.2312,7.2151,7.2422,7.2312,7.2078,7.2078,7.2312,7.2422,7.2151,7.2312,7.2496,7.2496,7.2275,7.2151,7.2459,7.2275,7.2165,7.2459,7.2496,7.2496,7.2496,7.2496,7.2496,7.2496,7.2496,7.1996,7.0701,6.9115,6.7807,6.6875,6.6791,6.6609,6.6102,6.6102,6.5865,6.5392,6.5392,6.5256,6.4986,6.4986,6.485,6.4613,6.4613,6.4072]}]]